<?xml version="1.0" encoding="UTF-8" standalone="no" ?>
<gpx xmlns="http://www.topografix.com/GPX/1/1" xmlns:xsi="http://www.w3.org/2001/XMLSchema-instance" xsi:schemaLocation="http://www.topografix.com/GPX/1/1 http://www.topografix.com/GPX/1/1/gpx.xsd" version="1.1" creator="VisuGPX - https://www.visugpx.com">
  <metadata>
    <name>Revel-Saint eynard-revel</name>
    <desc><![CDATA[File with points/tracks from Locus Map/4.0.0]]></desc>
  </metadata>
  <trk>
    <name><![CDATA[2021-04-02 15:17:50]]></name>
    <desc><![CDATA[St eynard]]></desc>
    <extensions>
      <line xmlns="http://www.topografix.com/GPX/gpx_style/0/2">
        <color>0000FF</color>
        <opacity>0.59</opacity>
        <width>6.0</width>
      </line>
    </extensions>
    <trkseg>
      <trkpt lat="45.20161" lon="5.83909">
        <ele>249.9</ele>
        <time>2021-04-02T13:17:51.000Z</time>
      </trkpt>
      <trkpt lat="45.20159" lon="5.83889">
        <ele>253.31</ele>
        <time>2021-04-02T13:17:56.000Z</time>
      </trkpt>
      <trkpt lat="45.20172" lon="5.83865">
        <ele>250.93</ele>
        <time>2021-04-02T13:18:01.000Z</time>
      </trkpt>
      <trkpt lat="45.20204" lon="5.83849">
        <ele>251.34</ele>
        <time>2021-04-02T13:18:06.000Z</time>
      </trkpt>
      <trkpt lat="45.20229" lon="5.83833">
        <ele>251.9</ele>
        <time>2021-04-02T13:18:11.000Z</time>
      </trkpt>
      <trkpt lat="45.20254" lon="5.83813">
        <ele>251.73</ele>
        <time>2021-04-02T13:18:16.000Z</time>
      </trkpt>
      <trkpt lat="45.20282" lon="5.83787">
        <ele>249.33</ele>
        <time>2021-04-02T13:18:21.000Z</time>
      </trkpt>
      <trkpt lat="45.20308" lon="5.83762">
        <ele>249.91</ele>
        <time>2021-04-02T13:18:26.000Z</time>
      </trkpt>
      <trkpt lat="45.2034" lon="5.83731">
        <ele>250.25</ele>
        <time>2021-04-02T13:18:31.000Z</time>
      </trkpt>
      <trkpt lat="45.20372" lon="5.83707">
        <ele>250.55</ele>
        <time>2021-04-02T13:18:36.000Z</time>
      </trkpt>
      <trkpt lat="45.20404" lon="5.83682">
        <ele>246.96</ele>
        <time>2021-04-02T13:18:41.000Z</time>
      </trkpt>
      <trkpt lat="45.2043" lon="5.83655">
        <ele>245.82</ele>
        <time>2021-04-02T13:18:46.000Z</time>
      </trkpt>
      <trkpt lat="45.20454" lon="5.83628">
        <ele>240.11</ele>
        <time>2021-04-02T13:18:51.000Z</time>
      </trkpt>
      <trkpt lat="45.20482" lon="5.83593">
        <ele>239.04</ele>
        <time>2021-04-02T13:18:56.000Z</time>
      </trkpt>
      <trkpt lat="45.20518" lon="5.83562">
        <ele>239.48</ele>
        <time>2021-04-02T13:19:01.000Z</time>
      </trkpt>
      <trkpt lat="45.20552" lon="5.83535">
        <ele>238.91</ele>
        <time>2021-04-02T13:19:06.000Z</time>
      </trkpt>
      <trkpt lat="45.20587" lon="5.83512">
        <ele>238.69</ele>
        <time>2021-04-02T13:19:11.000Z</time>
      </trkpt>
      <trkpt lat="45.20621" lon="5.83482">
        <ele>235.56</ele>
        <time>2021-04-02T13:19:16.000Z</time>
      </trkpt>
      <trkpt lat="45.20649" lon="5.83457">
        <ele>234.42</ele>
        <time>2021-04-02T13:19:21.000Z</time>
      </trkpt>
      <trkpt lat="45.20684" lon="5.83436">
        <ele>237.35</ele>
        <time>2021-04-02T13:19:26.000Z</time>
      </trkpt>
      <trkpt lat="45.20717" lon="5.83411">
        <ele>233.94</ele>
        <time>2021-04-02T13:19:31.000Z</time>
      </trkpt>
      <trkpt lat="45.20752" lon="5.83383">
        <ele>232.83</ele>
        <time>2021-04-02T13:19:36.000Z</time>
      </trkpt>
      <trkpt lat="45.20785" lon="5.83358">
        <ele>230.74</ele>
        <time>2021-04-02T13:19:41.000Z</time>
      </trkpt>
      <trkpt lat="45.20816" lon="5.83327">
        <ele>227.1</ele>
        <time>2021-04-02T13:19:46.000Z</time>
      </trkpt>
      <trkpt lat="45.20854" lon="5.83309">
        <ele>222.19</ele>
        <time>2021-04-02T13:19:51.000Z</time>
      </trkpt>
      <trkpt lat="45.20881" lon="5.83283">
        <ele>219.5</ele>
        <time>2021-04-02T13:19:56.000Z</time>
      </trkpt>
      <trkpt lat="45.20915" lon="5.83259">
        <ele>219.6</ele>
        <time>2021-04-02T13:20:01.000Z</time>
      </trkpt>
      <trkpt lat="45.20937" lon="5.83235">
        <ele>222.33</ele>
        <time>2021-04-02T13:20:06.000Z</time>
      </trkpt>
      <trkpt lat="45.20965" lon="5.83223">
        <ele>218.71</ele>
        <time>2021-04-02T13:20:11.000Z</time>
      </trkpt>
      <trkpt lat="45.20994" lon="5.83223">
        <ele>216.37</ele>
        <time>2021-04-02T13:20:16.000Z</time>
      </trkpt>
      <trkpt lat="45.21016" lon="5.83236">
        <ele>217.4</ele>
        <time>2021-04-02T13:20:21.000Z</time>
      </trkpt>
      <trkpt lat="45.21036" lon="5.83253">
        <ele>217.23</ele>
        <time>2021-04-02T13:20:26.000Z</time>
      </trkpt>
      <trkpt lat="45.21061" lon="5.83245">
        <ele>223.22</ele>
        <time>2021-04-02T13:20:31.000Z</time>
      </trkpt>
      <trkpt lat="45.21073" lon="5.8322">
        <ele>223.05</ele>
        <time>2021-04-02T13:20:36.000Z</time>
      </trkpt>
      <trkpt lat="45.2109" lon="5.83186">
        <ele>224.28</ele>
        <time>2021-04-02T13:20:41.000Z</time>
      </trkpt>
      <trkpt lat="45.21105" lon="5.83158">
        <ele>226.2</ele>
        <time>2021-04-02T13:20:46.000Z</time>
      </trkpt>
      <trkpt lat="45.21128" lon="5.83126">
        <ele>224.3</ele>
        <time>2021-04-02T13:20:51.000Z</time>
      </trkpt>
      <trkpt lat="45.21145" lon="5.83095">
        <ele>224.92</ele>
        <time>2021-04-02T13:20:56.000Z</time>
      </trkpt>
      <trkpt lat="45.21163" lon="5.8306">
        <ele>226.53</ele>
        <time>2021-04-02T13:21:01.000Z</time>
      </trkpt>
      <trkpt lat="45.21179" lon="5.83023">
        <ele>230.58</ele>
        <time>2021-04-02T13:21:06.000Z</time>
      </trkpt>
      <trkpt lat="45.21197" lon="5.8298">
        <ele>229.78</ele>
        <time>2021-04-02T13:21:11.000Z</time>
      </trkpt>
      <trkpt lat="45.21216" lon="5.82939">
        <ele>232.16</ele>
        <time>2021-04-02T13:21:16.000Z</time>
      </trkpt>
      <trkpt lat="45.21236" lon="5.82904">
        <ele>232.37</ele>
        <time>2021-04-02T13:21:21.000Z</time>
      </trkpt>
      <trkpt lat="45.21253" lon="5.82866">
        <ele>232.88</ele>
        <time>2021-04-02T13:21:26.000Z</time>
      </trkpt>
      <trkpt lat="45.21273" lon="5.82827">
        <ele>231.15</ele>
        <time>2021-04-02T13:21:31.000Z</time>
      </trkpt>
      <trkpt lat="45.21288" lon="5.82802">
        <ele>226.21</ele>
        <time>2021-04-02T13:21:36.000Z</time>
      </trkpt>
      <trkpt lat="45.21278" lon="5.82828">
        <ele>226.82</ele>
        <time>2021-04-02T13:21:41.000Z</time>
      </trkpt>
      <trkpt lat="45.21265" lon="5.82857">
        <ele>226.12</ele>
        <time>2021-04-02T13:21:46.000Z</time>
      </trkpt>
      <trkpt lat="45.2125" lon="5.82892">
        <ele>223.66</ele>
        <time>2021-04-02T13:21:51.000Z</time>
      </trkpt>
      <trkpt lat="45.21234" lon="5.82924">
        <ele>222.06</ele>
        <time>2021-04-02T13:21:56.000Z</time>
      </trkpt>
      <trkpt lat="45.21232" lon="5.82946">
        <ele>221.41</ele>
        <time>2021-04-02T13:22:01.000Z</time>
      </trkpt>
      <trkpt lat="45.21242" lon="5.82954">
        <ele>218.43</ele>
        <time>2021-04-02T13:22:06.000Z</time>
      </trkpt>
      <trkpt lat="45.21241" lon="5.82969">
        <ele>223.6</ele>
        <time>2021-04-02T13:22:15.000Z</time>
      </trkpt>
      <trkpt lat="45.21227" lon="5.8296">
        <ele>220.71</ele>
        <time>2021-04-02T13:22:20.000Z</time>
      </trkpt>
      <trkpt lat="45.21202" lon="5.82941">
        <ele>221.65</ele>
        <time>2021-04-02T13:22:25.000Z</time>
      </trkpt>
      <trkpt lat="45.21181" lon="5.82926">
        <ele>221.29</ele>
        <time>2021-04-02T13:22:30.000Z</time>
      </trkpt>
      <trkpt lat="45.21156" lon="5.82909">
        <ele>224.57</ele>
        <time>2021-04-02T13:22:35.000Z</time>
      </trkpt>
      <trkpt lat="45.21135" lon="5.82884">
        <ele>226.61</ele>
        <time>2021-04-02T13:22:40.000Z</time>
      </trkpt>
      <trkpt lat="45.21119" lon="5.82855">
        <ele>232.1</ele>
        <time>2021-04-02T13:22:45.000Z</time>
      </trkpt>
      <trkpt lat="45.21102" lon="5.82836">
        <ele>229.54</ele>
        <time>2021-04-02T13:22:50.000Z</time>
      </trkpt>
      <trkpt lat="45.21085" lon="5.82818">
        <ele>231.62</ele>
        <time>2021-04-02T13:22:55.000Z</time>
      </trkpt>
      <trkpt lat="45.2107" lon="5.82802">
        <ele>231.36</ele>
        <time>2021-04-02T13:23:00.000Z</time>
      </trkpt>
      <trkpt lat="45.21053" lon="5.82786">
        <ele>231.05</ele>
        <time>2021-04-02T13:23:05.000Z</time>
      </trkpt>
      <trkpt lat="45.21038" lon="5.82769">
        <ele>232.06</ele>
        <time>2021-04-02T13:23:10.000Z</time>
      </trkpt>
      <trkpt lat="45.21019" lon="5.82753">
        <ele>230.42</ele>
        <time>2021-04-02T13:23:15.000Z</time>
      </trkpt>
      <trkpt lat="45.21002" lon="5.82738">
        <ele>228.56</ele>
        <time>2021-04-02T13:23:20.000Z</time>
      </trkpt>
      <trkpt lat="45.20987" lon="5.82721">
        <ele>232.24</ele>
        <time>2021-04-02T13:23:25.000Z</time>
      </trkpt>
      <trkpt lat="45.20968" lon="5.82702">
        <ele>232.48</ele>
        <time>2021-04-02T13:23:30.000Z</time>
      </trkpt>
      <trkpt lat="45.20947" lon="5.82687">
        <ele>231.07</ele>
        <time>2021-04-02T13:23:35.000Z</time>
      </trkpt>
      <trkpt lat="45.20928" lon="5.82663">
        <ele>228.87</ele>
        <time>2021-04-02T13:23:40.000Z</time>
      </trkpt>
      <trkpt lat="45.2091" lon="5.82643">
        <ele>222.52</ele>
        <time>2021-04-02T13:23:45.000Z</time>
      </trkpt>
      <trkpt lat="45.20902" lon="5.82634">
        <ele>220.69</ele>
        <time>2021-04-02T13:23:50.000Z</time>
      </trkpt>
      <trkpt lat="45.20896" lon="5.82624">
        <ele>219.28</ele>
        <time>2021-04-02T13:24:59.000Z</time>
      </trkpt>
      <trkpt lat="45.20887" lon="5.82609">
        <ele>223.33</ele>
        <time>2021-04-02T13:25:04.000Z</time>
      </trkpt>
      <trkpt lat="45.20873" lon="5.82591">
        <ele>222.53</ele>
        <time>2021-04-02T13:25:09.000Z</time>
      </trkpt>
      <trkpt lat="45.20856" lon="5.82571">
        <ele>224.57</ele>
        <time>2021-04-02T13:25:14.000Z</time>
      </trkpt>
      <trkpt lat="45.20834" lon="5.8255">
        <ele>226.18</ele>
        <time>2021-04-02T13:25:19.000Z</time>
      </trkpt>
      <trkpt lat="45.20811" lon="5.82526">
        <ele>225.94</ele>
        <time>2021-04-02T13:25:24.000Z</time>
      </trkpt>
      <trkpt lat="45.20792" lon="5.82507">
        <ele>230.85</ele>
        <time>2021-04-02T13:25:29.000Z</time>
      </trkpt>
      <trkpt lat="45.20771" lon="5.82474">
        <ele>230.72</ele>
        <time>2021-04-02T13:25:34.000Z</time>
      </trkpt>
      <trkpt lat="45.2075" lon="5.82457">
        <ele>229.67</ele>
        <time>2021-04-02T13:25:39.000Z</time>
      </trkpt>
      <trkpt lat="45.2073" lon="5.82433">
        <ele>230.39</ele>
        <time>2021-04-02T13:25:44.000Z</time>
      </trkpt>
      <trkpt lat="45.20706" lon="5.82409">
        <ele>233.47</ele>
        <time>2021-04-02T13:25:49.000Z</time>
      </trkpt>
      <trkpt lat="45.20684" lon="5.82391">
        <ele>235.11</ele>
        <time>2021-04-02T13:25:54.000Z</time>
      </trkpt>
      <trkpt lat="45.20659" lon="5.8237">
        <ele>233.26</ele>
        <time>2021-04-02T13:25:59.000Z</time>
      </trkpt>
      <trkpt lat="45.20631" lon="5.82349">
        <ele>235.15</ele>
        <time>2021-04-02T13:26:04.000Z</time>
      </trkpt>
      <trkpt lat="45.2061" lon="5.82325">
        <ele>234.73</ele>
        <time>2021-04-02T13:26:09.000Z</time>
      </trkpt>
      <trkpt lat="45.20584" lon="5.82305">
        <ele>234.22</ele>
        <time>2021-04-02T13:26:14.000Z</time>
      </trkpt>
      <trkpt lat="45.20559" lon="5.82282">
        <ele>233.1</ele>
        <time>2021-04-02T13:26:19.000Z</time>
      </trkpt>
      <trkpt lat="45.20537" lon="5.82249">
        <ele>233.22</ele>
        <time>2021-04-02T13:26:24.000Z</time>
      </trkpt>
      <trkpt lat="45.20513" lon="5.82226">
        <ele>229.56</ele>
        <time>2021-04-02T13:26:29.000Z</time>
      </trkpt>
      <trkpt lat="45.20492" lon="5.82202">
        <ele>230.89</ele>
        <time>2021-04-02T13:26:34.000Z</time>
      </trkpt>
      <trkpt lat="45.20481" lon="5.82162">
        <ele>231.27</ele>
        <time>2021-04-02T13:26:39.000Z</time>
      </trkpt>
      <trkpt lat="45.20459" lon="5.82131">
        <ele>230.02</ele>
        <time>2021-04-02T13:26:44.000Z</time>
      </trkpt>
      <trkpt lat="45.20431" lon="5.82107">
        <ele>227.12</ele>
        <time>2021-04-02T13:26:49.000Z</time>
      </trkpt>
      <trkpt lat="45.20414" lon="5.82072">
        <ele>223.13</ele>
        <time>2021-04-02T13:26:54.000Z</time>
      </trkpt>
      <trkpt lat="45.20406" lon="5.82036">
        <ele>221.9</ele>
        <time>2021-04-02T13:26:59.000Z</time>
      </trkpt>
      <trkpt lat="45.20394" lon="5.81996">
        <ele>219.32</ele>
        <time>2021-04-02T13:27:04.000Z</time>
      </trkpt>
      <trkpt lat="45.20381" lon="5.81958">
        <ele>220.02</ele>
        <time>2021-04-02T13:27:09.000Z</time>
      </trkpt>
      <trkpt lat="45.20375" lon="5.81913">
        <ele>219.06</ele>
        <time>2021-04-02T13:27:14.000Z</time>
      </trkpt>
      <trkpt lat="45.20386" lon="5.81873">
        <ele>218.76</ele>
        <time>2021-04-02T13:27:19.000Z</time>
      </trkpt>
      <trkpt lat="45.20401" lon="5.81839">
        <ele>221.99</ele>
        <time>2021-04-02T13:27:24.000Z</time>
      </trkpt>
      <trkpt lat="45.20415" lon="5.81805">
        <ele>225.19</ele>
        <time>2021-04-02T13:27:29.000Z</time>
      </trkpt>
      <trkpt lat="45.20428" lon="5.81772">
        <ele>226.85</ele>
        <time>2021-04-02T13:27:34.000Z</time>
      </trkpt>
      <trkpt lat="45.20443" lon="5.81741">
        <ele>226.09</ele>
        <time>2021-04-02T13:27:39.000Z</time>
      </trkpt>
      <trkpt lat="45.20464" lon="5.81707">
        <ele>226.99</ele>
        <time>2021-04-02T13:27:44.000Z</time>
      </trkpt>
      <trkpt lat="45.20474" lon="5.81677">
        <ele>225.71</ele>
        <time>2021-04-02T13:27:49.000Z</time>
      </trkpt>
      <trkpt lat="45.20492" lon="5.81644">
        <ele>228.11</ele>
        <time>2021-04-02T13:27:54.000Z</time>
      </trkpt>
      <trkpt lat="45.20506" lon="5.81609">
        <ele>226.54</ele>
        <time>2021-04-02T13:27:59.000Z</time>
      </trkpt>
      <trkpt lat="45.20524" lon="5.81578">
        <ele>223.16</ele>
        <time>2021-04-02T13:28:04.000Z</time>
      </trkpt>
      <trkpt lat="45.20544" lon="5.81558">
        <ele>223.23</ele>
        <time>2021-04-02T13:28:09.000Z</time>
      </trkpt>
      <trkpt lat="45.20567" lon="5.81531">
        <ele>225.24</ele>
        <time>2021-04-02T13:28:14.000Z</time>
      </trkpt>
      <trkpt lat="45.20587" lon="5.81506">
        <ele>225.83</ele>
        <time>2021-04-02T13:28:19.000Z</time>
      </trkpt>
      <trkpt lat="45.2061" lon="5.81474">
        <ele>227.66</ele>
        <time>2021-04-02T13:28:24.000Z</time>
      </trkpt>
      <trkpt lat="45.20632" lon="5.81454">
        <ele>229.76</ele>
        <time>2021-04-02T13:28:29.000Z</time>
      </trkpt>
      <trkpt lat="45.20663" lon="5.8144">
        <ele>230.91</ele>
        <time>2021-04-02T13:28:34.000Z</time>
      </trkpt>
      <trkpt lat="45.20681" lon="5.81413">
        <ele>234.87</ele>
        <time>2021-04-02T13:28:39.000Z</time>
      </trkpt>
      <trkpt lat="45.2068" lon="5.81373">
        <ele>233.65</ele>
        <time>2021-04-02T13:28:44.000Z</time>
      </trkpt>
      <trkpt lat="45.20681" lon="5.81331">
        <ele>233.4</ele>
        <time>2021-04-02T13:28:49.000Z</time>
      </trkpt>
      <trkpt lat="45.20693" lon="5.81296">
        <ele>231.31</ele>
        <time>2021-04-02T13:28:54.000Z</time>
      </trkpt>
      <trkpt lat="45.20683" lon="5.81263">
        <ele>232</ele>
        <time>2021-04-02T13:28:59.000Z</time>
      </trkpt>
      <trkpt lat="45.20685" lon="5.81215">
        <ele>233.75</ele>
        <time>2021-04-02T13:29:04.000Z</time>
      </trkpt>
      <trkpt lat="45.20681" lon="5.81178">
        <ele>233.07</ele>
        <time>2021-04-02T13:29:09.000Z</time>
      </trkpt>
      <trkpt lat="45.20681" lon="5.8114">
        <ele>235.34</ele>
        <time>2021-04-02T13:29:14.000Z</time>
      </trkpt>
      <trkpt lat="45.20683" lon="5.81093">
        <ele>228.94</ele>
        <time>2021-04-02T13:29:19.000Z</time>
      </trkpt>
      <trkpt lat="45.20687" lon="5.81047">
        <ele>226.89</ele>
        <time>2021-04-02T13:29:24.000Z</time>
      </trkpt>
      <trkpt lat="45.2069" lon="5.81024">
        <ele>224.2</ele>
        <time>2021-04-02T13:29:29.000Z</time>
      </trkpt>
      <trkpt lat="45.20699" lon="5.81022">
        <ele>222.03</ele>
        <time>2021-04-02T13:30:31.000Z</time>
      </trkpt>
      <trkpt lat="45.20719" lon="5.81008">
        <ele>219.81</ele>
        <time>2021-04-02T13:30:36.000Z</time>
      </trkpt>
      <trkpt lat="45.20732" lon="5.80994">
        <ele>216.19</ele>
        <time>2021-04-02T13:30:41.000Z</time>
      </trkpt>
      <trkpt lat="45.20747" lon="5.80979">
        <ele>214.7</ele>
        <time>2021-04-02T13:30:46.000Z</time>
      </trkpt>
      <trkpt lat="45.20763" lon="5.80968">
        <ele>211.25</ele>
        <time>2021-04-02T13:30:51.000Z</time>
      </trkpt>
      <trkpt lat="45.2078" lon="5.80954">
        <ele>212.74</ele>
        <time>2021-04-02T13:30:56.000Z</time>
      </trkpt>
      <trkpt lat="45.20797" lon="5.80937">
        <ele>213.64</ele>
        <time>2021-04-02T13:31:01.000Z</time>
      </trkpt>
      <trkpt lat="45.20811" lon="5.8092">
        <ele>216.44</ele>
        <time>2021-04-02T13:31:06.000Z</time>
      </trkpt>
      <trkpt lat="45.20823" lon="5.80907">
        <ele>218.89</ele>
        <time>2021-04-02T13:31:11.000Z</time>
      </trkpt>
      <trkpt lat="45.20834" lon="5.80897">
        <ele>214.65</ele>
        <time>2021-04-02T13:31:16.000Z</time>
      </trkpt>
      <trkpt lat="45.20843" lon="5.80882">
        <ele>212.36</ele>
        <time>2021-04-02T13:31:21.000Z</time>
      </trkpt>
      <trkpt lat="45.20853" lon="5.80872">
        <ele>214.32</ele>
        <time>2021-04-02T13:31:26.000Z</time>
      </trkpt>
      <trkpt lat="45.20869" lon="5.80861">
        <ele>212.81</ele>
        <time>2021-04-02T13:31:31.000Z</time>
      </trkpt>
      <trkpt lat="45.20885" lon="5.80842">
        <ele>209.6</ele>
        <time>2021-04-02T13:31:36.000Z</time>
      </trkpt>
      <trkpt lat="45.20901" lon="5.80827">
        <ele>208.96</ele>
        <time>2021-04-02T13:31:41.000Z</time>
      </trkpt>
      <trkpt lat="45.20916" lon="5.80815">
        <ele>211.16</ele>
        <time>2021-04-02T13:31:46.000Z</time>
      </trkpt>
      <trkpt lat="45.20944" lon="5.808">
        <ele>210.96</ele>
        <time>2021-04-02T13:31:51.000Z</time>
      </trkpt>
      <trkpt lat="45.2096" lon="5.80778">
        <ele>213.01</ele>
        <time>2021-04-02T13:31:56.000Z</time>
      </trkpt>
      <trkpt lat="45.20975" lon="5.8076">
        <ele>212.76</ele>
        <time>2021-04-02T13:32:01.000Z</time>
      </trkpt>
      <trkpt lat="45.20998" lon="5.80741">
        <ele>212.85</ele>
        <time>2021-04-02T13:32:06.000Z</time>
      </trkpt>
      <trkpt lat="45.21017" lon="5.80717">
        <ele>211.48</ele>
        <time>2021-04-02T13:32:11.000Z</time>
      </trkpt>
      <trkpt lat="45.21041" lon="5.80704">
        <ele>213.52</ele>
        <time>2021-04-02T13:32:16.000Z</time>
      </trkpt>
      <trkpt lat="45.21052" lon="5.80685">
        <ele>213.02</ele>
        <time>2021-04-02T13:32:21.000Z</time>
      </trkpt>
      <trkpt lat="45.21088" lon="5.8065">
        <ele>213.57</ele>
        <time>2021-04-02T13:32:29.000Z</time>
      </trkpt>
      <trkpt lat="45.21106" lon="5.80633">
        <ele>212.65</ele>
        <time>2021-04-02T13:32:34.000Z</time>
      </trkpt>
      <trkpt lat="45.21131" lon="5.80617">
        <ele>214.04</ele>
        <time>2021-04-02T13:32:39.000Z</time>
      </trkpt>
      <trkpt lat="45.21146" lon="5.80596">
        <ele>215.11</ele>
        <time>2021-04-02T13:32:44.000Z</time>
      </trkpt>
      <trkpt lat="45.21148" lon="5.80577">
        <ele>218.22</ele>
        <time>2021-04-02T13:32:49.000Z</time>
      </trkpt>
      <trkpt lat="45.21139" lon="5.80556">
        <ele>217.24</ele>
        <time>2021-04-02T13:32:54.000Z</time>
      </trkpt>
      <trkpt lat="45.21127" lon="5.80534">
        <ele>215.81</ele>
        <time>2021-04-02T13:32:59.000Z</time>
      </trkpt>
      <trkpt lat="45.21118" lon="5.80508">
        <ele>214.11</ele>
        <time>2021-04-02T13:33:04.000Z</time>
      </trkpt>
      <trkpt lat="45.21106" lon="5.8048">
        <ele>214.19</ele>
        <time>2021-04-02T13:33:09.000Z</time>
      </trkpt>
      <trkpt lat="45.21095" lon="5.8045">
        <ele>215.59</ele>
        <time>2021-04-02T13:33:14.000Z</time>
      </trkpt>
      <trkpt lat="45.21084" lon="5.8042">
        <ele>215.4</ele>
        <time>2021-04-02T13:33:19.000Z</time>
      </trkpt>
      <trkpt lat="45.21088" lon="5.80386">
        <ele>216.48</ele>
        <time>2021-04-02T13:33:24.000Z</time>
      </trkpt>
      <trkpt lat="45.21092" lon="5.80352">
        <ele>216.02</ele>
        <time>2021-04-02T13:33:29.000Z</time>
      </trkpt>
      <trkpt lat="45.21097" lon="5.80312">
        <ele>217.2</ele>
        <time>2021-04-02T13:33:34.000Z</time>
      </trkpt>
      <trkpt lat="45.2109" lon="5.80285">
        <ele>220.24</ele>
        <time>2021-04-02T13:33:39.000Z</time>
      </trkpt>
      <trkpt lat="45.21095" lon="5.80248">
        <ele>221.15</ele>
        <time>2021-04-02T13:33:44.000Z</time>
      </trkpt>
      <trkpt lat="45.21094" lon="5.80215">
        <ele>220.81</ele>
        <time>2021-04-02T13:33:49.000Z</time>
      </trkpt>
      <trkpt lat="45.21093" lon="5.80177">
        <ele>221.25</ele>
        <time>2021-04-02T13:33:54.000Z</time>
      </trkpt>
      <trkpt lat="45.21087" lon="5.80146">
        <ele>220.91</ele>
        <time>2021-04-02T13:33:59.000Z</time>
      </trkpt>
      <trkpt lat="45.2108" lon="5.80115">
        <ele>219.05</ele>
        <time>2021-04-02T13:34:04.000Z</time>
      </trkpt>
      <trkpt lat="45.21067" lon="5.80088">
        <ele>216.74</ele>
        <time>2021-04-02T13:34:09.000Z</time>
      </trkpt>
      <trkpt lat="45.21054" lon="5.80058">
        <ele>217.1</ele>
        <time>2021-04-02T13:34:14.000Z</time>
      </trkpt>
      <trkpt lat="45.21043" lon="5.8003">
        <ele>215.91</ele>
        <time>2021-04-02T13:34:19.000Z</time>
      </trkpt>
      <trkpt lat="45.21058" lon="5.80016">
        <ele>213.62</ele>
        <time>2021-04-02T13:34:24.000Z</time>
      </trkpt>
      <trkpt lat="45.21075" lon="5.80008">
        <ele>214.66</ele>
        <time>2021-04-02T13:34:29.000Z</time>
      </trkpt>
      <trkpt lat="45.21094" lon="5.79999">
        <ele>216.22</ele>
        <time>2021-04-02T13:34:34.000Z</time>
      </trkpt>
      <trkpt lat="45.21107" lon="5.79981">
        <ele>216.39</ele>
        <time>2021-04-02T13:34:39.000Z</time>
      </trkpt>
      <trkpt lat="45.21125" lon="5.79961">
        <ele>217.77</ele>
        <time>2021-04-02T13:34:44.000Z</time>
      </trkpt>
      <trkpt lat="45.2114" lon="5.79939">
        <ele>219.77</ele>
        <time>2021-04-02T13:34:49.000Z</time>
      </trkpt>
      <trkpt lat="45.21149" lon="5.79925">
        <ele>220.98</ele>
        <time>2021-04-02T13:34:54.000Z</time>
      </trkpt>
      <trkpt lat="45.21167" lon="5.79922">
        <ele>221.86</ele>
        <time>2021-04-02T13:34:59.000Z</time>
      </trkpt>
      <trkpt lat="45.21184" lon="5.79904">
        <ele>225.53</ele>
        <time>2021-04-02T13:35:04.000Z</time>
      </trkpt>
      <trkpt lat="45.21202" lon="5.79885">
        <ele>228.75</ele>
        <time>2021-04-02T13:35:09.000Z</time>
      </trkpt>
      <trkpt lat="45.21217" lon="5.79869">
        <ele>228.44</ele>
        <time>2021-04-02T13:35:14.000Z</time>
      </trkpt>
      <trkpt lat="45.21236" lon="5.79863">
        <ele>228.84</ele>
        <time>2021-04-02T13:35:19.000Z</time>
      </trkpt>
      <trkpt lat="45.21255" lon="5.79855">
        <ele>230.47</ele>
        <time>2021-04-02T13:35:24.000Z</time>
      </trkpt>
      <trkpt lat="45.21276" lon="5.7984">
        <ele>228.14</ele>
        <time>2021-04-02T13:35:29.000Z</time>
      </trkpt>
      <trkpt lat="45.21293" lon="5.79828">
        <ele>226.57</ele>
        <time>2021-04-02T13:35:34.000Z</time>
      </trkpt>
      <trkpt lat="45.21307" lon="5.79818">
        <ele>224.38</ele>
        <time>2021-04-02T13:35:39.000Z</time>
      </trkpt>
      <trkpt lat="45.2133" lon="5.79814">
        <ele>225.07</ele>
        <time>2021-04-02T13:35:44.000Z</time>
      </trkpt>
      <trkpt lat="45.21347" lon="5.7981">
        <ele>223.18</ele>
        <time>2021-04-02T13:35:49.000Z</time>
      </trkpt>
      <trkpt lat="45.21371" lon="5.798">
        <ele>223.7</ele>
        <time>2021-04-02T13:35:54.000Z</time>
      </trkpt>
      <trkpt lat="45.2139" lon="5.79791">
        <ele>225.06</ele>
        <time>2021-04-02T13:35:59.000Z</time>
      </trkpt>
      <trkpt lat="45.21407" lon="5.7978">
        <ele>226.41</ele>
        <time>2021-04-02T13:36:04.000Z</time>
      </trkpt>
      <trkpt lat="45.21425" lon="5.7977">
        <ele>228.77</ele>
        <time>2021-04-02T13:36:09.000Z</time>
      </trkpt>
      <trkpt lat="45.21438" lon="5.79753">
        <ele>232.99</ele>
        <time>2021-04-02T13:36:14.000Z</time>
      </trkpt>
      <trkpt lat="45.21445" lon="5.79743">
        <ele>232.72</ele>
        <time>2021-04-02T13:36:19.000Z</time>
      </trkpt>
      <trkpt lat="45.21458" lon="5.79735">
        <ele>233.67</ele>
        <time>2021-04-02T13:36:24.000Z</time>
      </trkpt>
      <trkpt lat="45.21473" lon="5.7972">
        <ele>233.82</ele>
        <time>2021-04-02T13:36:29.000Z</time>
      </trkpt>
      <trkpt lat="45.21492" lon="5.79701">
        <ele>234.7</ele>
        <time>2021-04-02T13:36:34.000Z</time>
      </trkpt>
      <trkpt lat="45.21508" lon="5.79688">
        <ele>235.2</ele>
        <time>2021-04-02T13:36:39.000Z</time>
      </trkpt>
      <trkpt lat="45.21528" lon="5.79682">
        <ele>237.03</ele>
        <time>2021-04-02T13:36:44.000Z</time>
      </trkpt>
      <trkpt lat="45.21552" lon="5.79674">
        <ele>238.64</ele>
        <time>2021-04-02T13:36:49.000Z</time>
      </trkpt>
      <trkpt lat="45.21569" lon="5.7966">
        <ele>238.58</ele>
        <time>2021-04-02T13:36:54.000Z</time>
      </trkpt>
      <trkpt lat="45.21584" lon="5.79651">
        <ele>238.58</ele>
        <time>2021-04-02T13:36:59.000Z</time>
      </trkpt>
      <trkpt lat="45.21603" lon="5.79634">
        <ele>240.68</ele>
        <time>2021-04-02T13:37:04.000Z</time>
      </trkpt>
      <trkpt lat="45.21623" lon="5.79624">
        <ele>237.21</ele>
        <time>2021-04-02T13:37:09.000Z</time>
      </trkpt>
      <trkpt lat="45.21639" lon="5.7961">
        <ele>235.98</ele>
        <time>2021-04-02T13:37:14.000Z</time>
      </trkpt>
      <trkpt lat="45.21658" lon="5.79608">
        <ele>238.52</ele>
        <time>2021-04-02T13:37:19.000Z</time>
      </trkpt>
      <trkpt lat="45.21678" lon="5.79605">
        <ele>239.87</ele>
        <time>2021-04-02T13:37:24.000Z</time>
      </trkpt>
      <trkpt lat="45.21698" lon="5.79601">
        <ele>244.07</ele>
        <time>2021-04-02T13:37:29.000Z</time>
      </trkpt>
      <trkpt lat="45.21713" lon="5.79598">
        <ele>246.21</ele>
        <time>2021-04-02T13:37:34.000Z</time>
      </trkpt>
      <trkpt lat="45.21721" lon="5.79587">
        <ele>247.37</ele>
        <time>2021-04-02T13:37:39.000Z</time>
      </trkpt>
      <trkpt lat="45.21734" lon="5.79577">
        <ele>245.09</ele>
        <time>2021-04-02T13:37:44.000Z</time>
      </trkpt>
      <trkpt lat="45.21749" lon="5.79571">
        <ele>243.69</ele>
        <time>2021-04-02T13:37:49.000Z</time>
      </trkpt>
      <trkpt lat="45.21757" lon="5.79561">
        <ele>248.83</ele>
        <time>2021-04-02T13:37:54.000Z</time>
      </trkpt>
      <trkpt lat="45.21763" lon="5.79546">
        <ele>251.47</ele>
        <time>2021-04-02T13:37:59.000Z</time>
      </trkpt>
      <trkpt lat="45.21777" lon="5.79534">
        <ele>254.31</ele>
        <time>2021-04-02T13:38:04.000Z</time>
      </trkpt>
      <trkpt lat="45.21789" lon="5.79507">
        <ele>253.48</ele>
        <time>2021-04-02T13:38:09.000Z</time>
      </trkpt>
      <trkpt lat="45.21796" lon="5.79478">
        <ele>254.4</ele>
        <time>2021-04-02T13:38:14.000Z</time>
      </trkpt>
      <trkpt lat="45.21794" lon="5.7945">
        <ele>255.41</ele>
        <time>2021-04-02T13:38:19.000Z</time>
      </trkpt>
      <trkpt lat="45.21798" lon="5.79432">
        <ele>254.05</ele>
        <time>2021-04-02T13:38:24.000Z</time>
      </trkpt>
      <trkpt lat="45.21805" lon="5.79424">
        <ele>252.03</ele>
        <time>2021-04-02T13:38:29.000Z</time>
      </trkpt>
      <trkpt lat="45.21803" lon="5.7941">
        <ele>257.15</ele>
        <time>2021-04-02T13:38:39.000Z</time>
      </trkpt>
      <trkpt lat="45.21801" lon="5.79395">
        <ele>258.21</ele>
        <time>2021-04-02T13:38:45.000Z</time>
      </trkpt>
      <trkpt lat="45.2179" lon="5.79377">
        <ele>255.21</ele>
        <time>2021-04-02T13:38:50.000Z</time>
      </trkpt>
      <trkpt lat="45.21781" lon="5.79357">
        <ele>253.8</ele>
        <time>2021-04-02T13:38:55.000Z</time>
      </trkpt>
      <trkpt lat="45.21771" lon="5.7933">
        <ele>249.73</ele>
        <time>2021-04-02T13:39:00.000Z</time>
      </trkpt>
      <trkpt lat="45.21773" lon="5.79312">
        <ele>249.12</ele>
        <time>2021-04-02T13:39:05.000Z</time>
      </trkpt>
      <trkpt lat="45.21769" lon="5.79289">
        <ele>251.28</ele>
        <time>2021-04-02T13:39:10.000Z</time>
      </trkpt>
      <trkpt lat="45.2177" lon="5.79267">
        <ele>253.3</ele>
        <time>2021-04-02T13:39:15.000Z</time>
      </trkpt>
      <trkpt lat="45.21778" lon="5.79246">
        <ele>250.24</ele>
        <time>2021-04-02T13:39:20.000Z</time>
      </trkpt>
      <trkpt lat="45.21789" lon="5.79235">
        <ele>250.5</ele>
        <time>2021-04-02T13:39:25.000Z</time>
      </trkpt>
      <trkpt lat="45.21804" lon="5.7922">
        <ele>252.25</ele>
        <time>2021-04-02T13:39:30.000Z</time>
      </trkpt>
      <trkpt lat="45.21819" lon="5.79211">
        <ele>255.59</ele>
        <time>2021-04-02T13:39:35.000Z</time>
      </trkpt>
      <trkpt lat="45.21833" lon="5.79195">
        <ele>256.02</ele>
        <time>2021-04-02T13:39:40.000Z</time>
      </trkpt>
      <trkpt lat="45.21849" lon="5.79182">
        <ele>255.38</ele>
        <time>2021-04-02T13:39:45.000Z</time>
      </trkpt>
      <trkpt lat="45.21862" lon="5.79172">
        <ele>250.75</ele>
        <time>2021-04-02T13:39:50.000Z</time>
      </trkpt>
      <trkpt lat="45.21875" lon="5.7916">
        <ele>251.73</ele>
        <time>2021-04-02T13:39:55.000Z</time>
      </trkpt>
      <trkpt lat="45.21893" lon="5.7915">
        <ele>258.77</ele>
        <time>2021-04-02T13:40:00.000Z</time>
      </trkpt>
      <trkpt lat="45.21907" lon="5.79144">
        <ele>267.35</ele>
        <time>2021-04-02T13:40:05.000Z</time>
      </trkpt>
      <trkpt lat="45.2192" lon="5.7914">
        <ele>268.97</ele>
        <time>2021-04-02T13:40:10.000Z</time>
      </trkpt>
      <trkpt lat="45.21933" lon="5.79127">
        <ele>268.22</ele>
        <time>2021-04-02T13:40:15.000Z</time>
      </trkpt>
      <trkpt lat="45.21943" lon="5.79111">
        <ele>267.62</ele>
        <time>2021-04-02T13:40:20.000Z</time>
      </trkpt>
      <trkpt lat="45.21954" lon="5.79097">
        <ele>268.66</ele>
        <time>2021-04-02T13:40:25.000Z</time>
      </trkpt>
      <trkpt lat="45.21969" lon="5.79089">
        <ele>270.08</ele>
        <time>2021-04-02T13:40:30.000Z</time>
      </trkpt>
      <trkpt lat="45.21984" lon="5.79081">
        <ele>271.1</ele>
        <time>2021-04-02T13:40:35.000Z</time>
      </trkpt>
      <trkpt lat="45.21996" lon="5.7907">
        <ele>272.95</ele>
        <time>2021-04-02T13:40:40.000Z</time>
      </trkpt>
      <trkpt lat="45.22008" lon="5.7906">
        <ele>277.18</ele>
        <time>2021-04-02T13:40:45.000Z</time>
      </trkpt>
      <trkpt lat="45.22021" lon="5.79054">
        <ele>276.68</ele>
        <time>2021-04-02T13:40:50.000Z</time>
      </trkpt>
      <trkpt lat="45.22037" lon="5.7905">
        <ele>274.72</ele>
        <time>2021-04-02T13:40:55.000Z</time>
      </trkpt>
      <trkpt lat="45.22053" lon="5.79043">
        <ele>282.52</ele>
        <time>2021-04-02T13:41:00.000Z</time>
      </trkpt>
      <trkpt lat="45.22067" lon="5.79035">
        <ele>281.81</ele>
        <time>2021-04-02T13:41:05.000Z</time>
      </trkpt>
      <trkpt lat="45.22077" lon="5.79027">
        <ele>282.96</ele>
        <time>2021-04-02T13:41:10.000Z</time>
      </trkpt>
      <trkpt lat="45.2209" lon="5.7902">
        <ele>283.63</ele>
        <time>2021-04-02T13:41:15.000Z</time>
      </trkpt>
      <trkpt lat="45.22099" lon="5.79019">
        <ele>281.49</ele>
        <time>2021-04-02T13:41:28.000Z</time>
      </trkpt>
      <trkpt lat="45.22107" lon="5.79026">
        <ele>278.99</ele>
        <time>2021-04-02T13:41:38.000Z</time>
      </trkpt>
      <trkpt lat="45.22117" lon="5.79023">
        <ele>278.8</ele>
        <time>2021-04-02T13:41:49.000Z</time>
      </trkpt>
      <trkpt lat="45.2213" lon="5.7901">
        <ele>278.12</ele>
        <time>2021-04-02T13:41:54.000Z</time>
      </trkpt>
      <trkpt lat="45.22142" lon="5.78999">
        <ele>279.9</ele>
        <time>2021-04-02T13:41:59.000Z</time>
      </trkpt>
      <trkpt lat="45.22154" lon="5.78993">
        <ele>283.69</ele>
        <time>2021-04-02T13:42:04.000Z</time>
      </trkpt>
      <trkpt lat="45.22173" lon="5.78979">
        <ele>285.61</ele>
        <time>2021-04-02T13:42:09.000Z</time>
      </trkpt>
      <trkpt lat="45.22189" lon="5.78968">
        <ele>288.96</ele>
        <time>2021-04-02T13:42:14.000Z</time>
      </trkpt>
      <trkpt lat="45.22202" lon="5.78954">
        <ele>289.69</ele>
        <time>2021-04-02T13:42:19.000Z</time>
      </trkpt>
      <trkpt lat="45.22211" lon="5.7894">
        <ele>291.97</ele>
        <time>2021-04-02T13:42:24.000Z</time>
      </trkpt>
      <trkpt lat="45.2221" lon="5.78919">
        <ele>299.29</ele>
        <time>2021-04-02T13:42:29.000Z</time>
      </trkpt>
      <trkpt lat="45.22204" lon="5.78904">
        <ele>299.22</ele>
        <time>2021-04-02T13:42:34.000Z</time>
      </trkpt>
      <trkpt lat="45.22193" lon="5.78882">
        <ele>296.2</ele>
        <time>2021-04-02T13:42:39.000Z</time>
      </trkpt>
      <trkpt lat="45.22183" lon="5.78854">
        <ele>295.77</ele>
        <time>2021-04-02T13:42:44.000Z</time>
      </trkpt>
      <trkpt lat="45.22172" lon="5.78819">
        <ele>295.31</ele>
        <time>2021-04-02T13:42:49.000Z</time>
      </trkpt>
      <trkpt lat="45.22163" lon="5.7879">
        <ele>297.87</ele>
        <time>2021-04-02T13:42:54.000Z</time>
      </trkpt>
      <trkpt lat="45.22172" lon="5.7878">
        <ele>301.85</ele>
        <time>2021-04-02T13:42:59.000Z</time>
      </trkpt>
      <trkpt lat="45.22184" lon="5.78771">
        <ele>303.17</ele>
        <time>2021-04-02T13:43:04.000Z</time>
      </trkpt>
      <trkpt lat="45.22199" lon="5.78764">
        <ele>301.07</ele>
        <time>2021-04-02T13:43:09.000Z</time>
      </trkpt>
      <trkpt lat="45.22214" lon="5.78757">
        <ele>302.23</ele>
        <time>2021-04-02T13:43:14.000Z</time>
      </trkpt>
      <trkpt lat="45.22227" lon="5.78752">
        <ele>306.29</ele>
        <time>2021-04-02T13:43:19.000Z</time>
      </trkpt>
      <trkpt lat="45.22239" lon="5.78742">
        <ele>306.46</ele>
        <time>2021-04-02T13:43:24.000Z</time>
      </trkpt>
      <trkpt lat="45.22248" lon="5.78737">
        <ele>305.85</ele>
        <time>2021-04-02T13:43:29.000Z</time>
      </trkpt>
      <trkpt lat="45.22262" lon="5.78726">
        <ele>305.77</ele>
        <time>2021-04-02T13:43:34.000Z</time>
      </trkpt>
      <trkpt lat="45.22277" lon="5.78715">
        <ele>306.28</ele>
        <time>2021-04-02T13:43:39.000Z</time>
      </trkpt>
      <trkpt lat="45.22286" lon="5.787">
        <ele>305.16</ele>
        <time>2021-04-02T13:43:44.000Z</time>
      </trkpt>
      <trkpt lat="45.22302" lon="5.78686">
        <ele>304.52</ele>
        <time>2021-04-02T13:43:49.000Z</time>
      </trkpt>
      <trkpt lat="45.22322" lon="5.7867">
        <ele>307.13</ele>
        <time>2021-04-02T13:43:54.000Z</time>
      </trkpt>
      <trkpt lat="45.22331" lon="5.78659">
        <ele>308.54</ele>
        <time>2021-04-02T13:43:59.000Z</time>
      </trkpt>
      <trkpt lat="45.2234" lon="5.78649">
        <ele>310.48</ele>
        <time>2021-04-02T13:44:04.000Z</time>
      </trkpt>
      <trkpt lat="45.22352" lon="5.78636">
        <ele>311.45</ele>
        <time>2021-04-02T13:44:09.000Z</time>
      </trkpt>
      <trkpt lat="45.22368" lon="5.78619">
        <ele>313.21</ele>
        <time>2021-04-02T13:44:14.000Z</time>
      </trkpt>
      <trkpt lat="45.22384" lon="5.78608">
        <ele>313.89</ele>
        <time>2021-04-02T13:44:19.000Z</time>
      </trkpt>
      <trkpt lat="45.224" lon="5.78596">
        <ele>318.19</ele>
        <time>2021-04-02T13:44:24.000Z</time>
      </trkpt>
      <trkpt lat="45.22416" lon="5.78585">
        <ele>320.6</ele>
        <time>2021-04-02T13:44:29.000Z</time>
      </trkpt>
      <trkpt lat="45.2243" lon="5.78586">
        <ele>322.34</ele>
        <time>2021-04-02T13:44:34.000Z</time>
      </trkpt>
      <trkpt lat="45.22448" lon="5.78592">
        <ele>326.1</ele>
        <time>2021-04-02T13:44:39.000Z</time>
      </trkpt>
      <trkpt lat="45.22463" lon="5.78596">
        <ele>326.2</ele>
        <time>2021-04-02T13:44:44.000Z</time>
      </trkpt>
      <trkpt lat="45.22476" lon="5.78602">
        <ele>326.31</ele>
        <time>2021-04-02T13:44:49.000Z</time>
      </trkpt>
      <trkpt lat="45.2249" lon="5.78611">
        <ele>327.24</ele>
        <time>2021-04-02T13:44:54.000Z</time>
      </trkpt>
      <trkpt lat="45.2251" lon="5.7862">
        <ele>331.16</ele>
        <time>2021-04-02T13:44:59.000Z</time>
      </trkpt>
      <trkpt lat="45.22529" lon="5.78633">
        <ele>333.8</ele>
        <time>2021-04-02T13:45:04.000Z</time>
      </trkpt>
      <trkpt lat="45.22542" lon="5.7865">
        <ele>337.63</ele>
        <time>2021-04-02T13:45:09.000Z</time>
      </trkpt>
      <trkpt lat="45.22554" lon="5.78665">
        <ele>336.28</ele>
        <time>2021-04-02T13:45:14.000Z</time>
      </trkpt>
      <trkpt lat="45.22569" lon="5.78665">
        <ele>338.55</ele>
        <time>2021-04-02T13:45:19.000Z</time>
      </trkpt>
      <trkpt lat="45.22574" lon="5.78639">
        <ele>340.19</ele>
        <time>2021-04-02T13:45:24.000Z</time>
      </trkpt>
      <trkpt lat="45.22571" lon="5.78616">
        <ele>341.42</ele>
        <time>2021-04-02T13:45:29.000Z</time>
      </trkpt>
      <trkpt lat="45.22573" lon="5.78597">
        <ele>341.43</ele>
        <time>2021-04-02T13:45:34.000Z</time>
      </trkpt>
      <trkpt lat="45.22575" lon="5.78578">
        <ele>340.62</ele>
        <time>2021-04-02T13:45:39.000Z</time>
      </trkpt>
      <trkpt lat="45.22582" lon="5.78558">
        <ele>344.44</ele>
        <time>2021-04-02T13:45:44.000Z</time>
      </trkpt>
      <trkpt lat="45.2259" lon="5.78532">
        <ele>344.25</ele>
        <time>2021-04-02T13:45:49.000Z</time>
      </trkpt>
      <trkpt lat="45.22589" lon="5.78511">
        <ele>349.01</ele>
        <time>2021-04-02T13:45:54.000Z</time>
      </trkpt>
      <trkpt lat="45.22589" lon="5.78495">
        <ele>349.74</ele>
        <time>2021-04-02T13:45:59.000Z</time>
      </trkpt>
      <trkpt lat="45.22593" lon="5.78479">
        <ele>357.4</ele>
        <time>2021-04-02T13:46:04.000Z</time>
      </trkpt>
      <trkpt lat="45.22597" lon="5.78464">
        <ele>355.23</ele>
        <time>2021-04-02T13:46:09.000Z</time>
      </trkpt>
      <trkpt lat="45.22605" lon="5.78449">
        <ele>355.49</ele>
        <time>2021-04-02T13:46:14.000Z</time>
      </trkpt>
      <trkpt lat="45.22615" lon="5.78426">
        <ele>356.59</ele>
        <time>2021-04-02T13:46:19.000Z</time>
      </trkpt>
      <trkpt lat="45.22624" lon="5.78409">
        <ele>356.38</ele>
        <time>2021-04-02T13:46:24.000Z</time>
      </trkpt>
      <trkpt lat="45.22637" lon="5.78391">
        <ele>353.99</ele>
        <time>2021-04-02T13:46:29.000Z</time>
      </trkpt>
      <trkpt lat="45.22653" lon="5.78372">
        <ele>355.03</ele>
        <time>2021-04-02T13:46:34.000Z</time>
      </trkpt>
      <trkpt lat="45.22665" lon="5.78349">
        <ele>357.13</ele>
        <time>2021-04-02T13:46:39.000Z</time>
      </trkpt>
      <trkpt lat="45.22673" lon="5.78329">
        <ele>358.03</ele>
        <time>2021-04-02T13:46:44.000Z</time>
      </trkpt>
      <trkpt lat="45.22664" lon="5.78304">
        <ele>358.05</ele>
        <time>2021-04-02T13:46:49.000Z</time>
      </trkpt>
      <trkpt lat="45.22649" lon="5.78281">
        <ele>361.74</ele>
        <time>2021-04-02T13:46:54.000Z</time>
      </trkpt>
      <trkpt lat="45.22631" lon="5.78259">
        <ele>367.94</ele>
        <time>2021-04-02T13:46:59.000Z</time>
      </trkpt>
      <trkpt lat="45.22617" lon="5.78246">
        <ele>369.34</ele>
        <time>2021-04-02T13:47:04.000Z</time>
      </trkpt>
      <trkpt lat="45.22606" lon="5.78233">
        <ele>371.04</ele>
        <time>2021-04-02T13:47:09.000Z</time>
      </trkpt>
      <trkpt lat="45.22599" lon="5.78211">
        <ele>371.53</ele>
        <time>2021-04-02T13:47:14.000Z</time>
      </trkpt>
      <trkpt lat="45.22612" lon="5.7819">
        <ele>372.25</ele>
        <time>2021-04-02T13:47:19.000Z</time>
      </trkpt>
      <trkpt lat="45.22626" lon="5.78195">
        <ele>371.45</ele>
        <time>2021-04-02T13:47:24.000Z</time>
      </trkpt>
      <trkpt lat="45.2264" lon="5.78204">
        <ele>371.05</ele>
        <time>2021-04-02T13:47:29.000Z</time>
      </trkpt>
      <trkpt lat="45.22654" lon="5.78212">
        <ele>368.67</ele>
        <time>2021-04-02T13:47:34.000Z</time>
      </trkpt>
      <trkpt lat="45.22668" lon="5.78228">
        <ele>372.21</ele>
        <time>2021-04-02T13:47:39.000Z</time>
      </trkpt>
      <trkpt lat="45.22682" lon="5.78243">
        <ele>372.42</ele>
        <time>2021-04-02T13:47:44.000Z</time>
      </trkpt>
      <trkpt lat="45.22694" lon="5.78257">
        <ele>372.23</ele>
        <time>2021-04-02T13:47:49.000Z</time>
      </trkpt>
      <trkpt lat="45.22712" lon="5.78271">
        <ele>374.39</ele>
        <time>2021-04-02T13:47:54.000Z</time>
      </trkpt>
      <trkpt lat="45.22725" lon="5.78287">
        <ele>379.91</ele>
        <time>2021-04-02T13:47:59.000Z</time>
      </trkpt>
      <trkpt lat="45.22739" lon="5.78299">
        <ele>381.54</ele>
        <time>2021-04-02T13:48:04.000Z</time>
      </trkpt>
      <trkpt lat="45.22752" lon="5.78312">
        <ele>379.6</ele>
        <time>2021-04-02T13:48:09.000Z</time>
      </trkpt>
      <trkpt lat="45.22766" lon="5.78324">
        <ele>384.31</ele>
        <time>2021-04-02T13:48:14.000Z</time>
      </trkpt>
      <trkpt lat="45.2278" lon="5.78342">
        <ele>389.16</ele>
        <time>2021-04-02T13:48:19.000Z</time>
      </trkpt>
      <trkpt lat="45.22788" lon="5.78363">
        <ele>391.79</ele>
        <time>2021-04-02T13:48:24.000Z</time>
      </trkpt>
      <trkpt lat="45.22801" lon="5.78379">
        <ele>393.89</ele>
        <time>2021-04-02T13:48:29.000Z</time>
      </trkpt>
      <trkpt lat="45.22807" lon="5.78396">
        <ele>390.51</ele>
        <time>2021-04-02T13:48:34.000Z</time>
      </trkpt>
      <trkpt lat="45.22812" lon="5.78417">
        <ele>389.35</ele>
        <time>2021-04-02T13:48:39.000Z</time>
      </trkpt>
      <trkpt lat="45.22825" lon="5.78424">
        <ele>388.98</ele>
        <time>2021-04-02T13:48:44.000Z</time>
      </trkpt>
      <trkpt lat="45.22833" lon="5.78403">
        <ele>388.02</ele>
        <time>2021-04-02T13:48:49.000Z</time>
      </trkpt>
      <trkpt lat="45.22827" lon="5.78382">
        <ele>387.08</ele>
        <time>2021-04-02T13:48:54.000Z</time>
      </trkpt>
      <trkpt lat="45.22821" lon="5.78366">
        <ele>388.23</ele>
        <time>2021-04-02T13:48:59.000Z</time>
      </trkpt>
      <trkpt lat="45.22811" lon="5.78346">
        <ele>386.47</ele>
        <time>2021-04-02T13:49:04.000Z</time>
      </trkpt>
      <trkpt lat="45.22802" lon="5.78329">
        <ele>389.16</ele>
        <time>2021-04-02T13:49:09.000Z</time>
      </trkpt>
      <trkpt lat="45.22789" lon="5.78311">
        <ele>390.34</ele>
        <time>2021-04-02T13:49:14.000Z</time>
      </trkpt>
      <trkpt lat="45.22773" lon="5.78295">
        <ele>391.36</ele>
        <time>2021-04-02T13:49:19.000Z</time>
      </trkpt>
      <trkpt lat="45.22761" lon="5.78278">
        <ele>386.97</ele>
        <time>2021-04-02T13:49:24.000Z</time>
      </trkpt>
      <trkpt lat="45.22753" lon="5.78259">
        <ele>389.15</ele>
        <time>2021-04-02T13:49:29.000Z</time>
      </trkpt>
      <trkpt lat="45.22743" lon="5.7824">
        <ele>391.66</ele>
        <time>2021-04-02T13:49:34.000Z</time>
      </trkpt>
      <trkpt lat="45.22737" lon="5.78218">
        <ele>392.47</ele>
        <time>2021-04-02T13:49:39.000Z</time>
      </trkpt>
      <trkpt lat="45.22739" lon="5.78192">
        <ele>392.23</ele>
        <time>2021-04-02T13:49:44.000Z</time>
      </trkpt>
      <trkpt lat="45.22742" lon="5.78166">
        <ele>390.06</ele>
        <time>2021-04-02T13:49:49.000Z</time>
      </trkpt>
      <trkpt lat="45.22752" lon="5.78144">
        <ele>389.1</ele>
        <time>2021-04-02T13:49:54.000Z</time>
      </trkpt>
      <trkpt lat="45.22759" lon="5.78131">
        <ele>390.31</ele>
        <time>2021-04-02T13:49:59.000Z</time>
      </trkpt>
      <trkpt lat="45.22766" lon="5.78116">
        <ele>389.65</ele>
        <time>2021-04-02T13:50:04.000Z</time>
      </trkpt>
      <trkpt lat="45.2277" lon="5.78097">
        <ele>390.81</ele>
        <time>2021-04-02T13:50:09.000Z</time>
      </trkpt>
      <trkpt lat="45.22769" lon="5.78078">
        <ele>391.38</ele>
        <time>2021-04-02T13:50:14.000Z</time>
      </trkpt>
      <trkpt lat="45.22768" lon="5.78057">
        <ele>391.55</ele>
        <time>2021-04-02T13:50:19.000Z</time>
      </trkpt>
      <trkpt lat="45.22773" lon="5.78028">
        <ele>391.65</ele>
        <time>2021-04-02T13:50:24.000Z</time>
      </trkpt>
      <trkpt lat="45.22775" lon="5.78004">
        <ele>393.27</ele>
        <time>2021-04-02T13:50:29.000Z</time>
      </trkpt>
      <trkpt lat="45.22778" lon="5.77974">
        <ele>396.93</ele>
        <time>2021-04-02T13:50:34.000Z</time>
      </trkpt>
      <trkpt lat="45.22778" lon="5.77949">
        <ele>400.5</ele>
        <time>2021-04-02T13:50:39.000Z</time>
      </trkpt>
      <trkpt lat="45.22777" lon="5.77931">
        <ele>396.81</ele>
        <time>2021-04-02T13:50:44.000Z</time>
      </trkpt>
      <trkpt lat="45.22776" lon="5.77915">
        <ele>397.01</ele>
        <time>2021-04-02T13:50:49.000Z</time>
      </trkpt>
      <trkpt lat="45.22773" lon="5.77893">
        <ele>399.84</ele>
        <time>2021-04-02T13:50:54.000Z</time>
      </trkpt>
      <trkpt lat="45.22775" lon="5.77867">
        <ele>406.3</ele>
        <time>2021-04-02T13:50:59.000Z</time>
      </trkpt>
      <trkpt lat="45.22772" lon="5.77844">
        <ele>409.55</ele>
        <time>2021-04-02T13:51:04.000Z</time>
      </trkpt>
      <trkpt lat="45.22771" lon="5.77826">
        <ele>413.01</ele>
        <time>2021-04-02T13:51:09.000Z</time>
      </trkpt>
      <trkpt lat="45.22771" lon="5.77813">
        <ele>418.11</ele>
        <time>2021-04-02T13:51:15.000Z</time>
      </trkpt>
      <trkpt lat="45.2277" lon="5.77788">
        <ele>415.42</ele>
        <time>2021-04-02T13:51:20.000Z</time>
      </trkpt>
      <trkpt lat="45.22773" lon="5.77758">
        <ele>412.35</ele>
        <time>2021-04-02T13:51:25.000Z</time>
      </trkpt>
      <trkpt lat="45.2277" lon="5.77729">
        <ele>409</ele>
        <time>2021-04-02T13:51:30.000Z</time>
      </trkpt>
      <trkpt lat="45.22762" lon="5.77703">
        <ele>406.8</ele>
        <time>2021-04-02T13:51:35.000Z</time>
      </trkpt>
      <trkpt lat="45.22756" lon="5.77673">
        <ele>409.84</ele>
        <time>2021-04-02T13:51:40.000Z</time>
      </trkpt>
      <trkpt lat="45.22753" lon="5.7765">
        <ele>412.13</ele>
        <time>2021-04-02T13:51:45.000Z</time>
      </trkpt>
      <trkpt lat="45.22746" lon="5.77631">
        <ele>416.58</ele>
        <time>2021-04-02T13:51:50.000Z</time>
      </trkpt>
      <trkpt lat="45.22735" lon="5.77611">
        <ele>422.42</ele>
        <time>2021-04-02T13:51:55.000Z</time>
      </trkpt>
      <trkpt lat="45.22733" lon="5.77589">
        <ele>422.73</ele>
        <time>2021-04-02T13:52:00.000Z</time>
      </trkpt>
      <trkpt lat="45.22729" lon="5.77565">
        <ele>422.44</ele>
        <time>2021-04-02T13:52:05.000Z</time>
      </trkpt>
      <trkpt lat="45.22723" lon="5.77539">
        <ele>423.52</ele>
        <time>2021-04-02T13:52:10.000Z</time>
      </trkpt>
      <trkpt lat="45.22714" lon="5.77513">
        <ele>427.54</ele>
        <time>2021-04-02T13:52:15.000Z</time>
      </trkpt>
      <trkpt lat="45.22707" lon="5.77487">
        <ele>432.25</ele>
        <time>2021-04-02T13:52:20.000Z</time>
      </trkpt>
      <trkpt lat="45.22702" lon="5.77465">
        <ele>438.96</ele>
        <time>2021-04-02T13:52:25.000Z</time>
      </trkpt>
      <trkpt lat="45.22697" lon="5.77446">
        <ele>440.19</ele>
        <time>2021-04-02T13:52:30.000Z</time>
      </trkpt>
      <trkpt lat="45.22692" lon="5.77426">
        <ele>442.48</ele>
        <time>2021-04-02T13:52:35.000Z</time>
      </trkpt>
      <trkpt lat="45.22687" lon="5.77402">
        <ele>446.97</ele>
        <time>2021-04-02T13:52:40.000Z</time>
      </trkpt>
      <trkpt lat="45.22682" lon="5.77382">
        <ele>453.46</ele>
        <time>2021-04-02T13:52:45.000Z</time>
      </trkpt>
      <trkpt lat="45.22682" lon="5.77357">
        <ele>454.41</ele>
        <time>2021-04-02T13:52:50.000Z</time>
      </trkpt>
      <trkpt lat="45.22675" lon="5.77334">
        <ele>452.73</ele>
        <time>2021-04-02T13:52:55.000Z</time>
      </trkpt>
      <trkpt lat="45.22667" lon="5.77315">
        <ele>453.06</ele>
        <time>2021-04-02T13:53:00.000Z</time>
      </trkpt>
      <trkpt lat="45.22661" lon="5.773">
        <ele>455.06</ele>
        <time>2021-04-02T13:53:05.000Z</time>
      </trkpt>
      <trkpt lat="45.22651" lon="5.77284">
        <ele>461.75</ele>
        <time>2021-04-02T13:53:10.000Z</time>
      </trkpt>
      <trkpt lat="45.22643" lon="5.77267">
        <ele>464.87</ele>
        <time>2021-04-02T13:53:15.000Z</time>
      </trkpt>
      <trkpt lat="45.22631" lon="5.77253">
        <ele>468.01</ele>
        <time>2021-04-02T13:53:20.000Z</time>
      </trkpt>
      <trkpt lat="45.22616" lon="5.77244">
        <ele>471.12</ele>
        <time>2021-04-02T13:53:25.000Z</time>
      </trkpt>
      <trkpt lat="45.22604" lon="5.77239">
        <ele>471.65</ele>
        <time>2021-04-02T13:53:30.000Z</time>
      </trkpt>
      <trkpt lat="45.22591" lon="5.77235">
        <ele>468.69</ele>
        <time>2021-04-02T13:53:35.000Z</time>
      </trkpt>
      <trkpt lat="45.2257" lon="5.77237">
        <ele>473.99</ele>
        <time>2021-04-02T13:53:40.000Z</time>
      </trkpt>
      <trkpt lat="45.22551" lon="5.77241">
        <ele>479.12</ele>
        <time>2021-04-02T13:53:45.000Z</time>
      </trkpt>
      <trkpt lat="45.22531" lon="5.77244">
        <ele>484.61</ele>
        <time>2021-04-02T13:53:50.000Z</time>
      </trkpt>
      <trkpt lat="45.2251" lon="5.77249">
        <ele>484.23</ele>
        <time>2021-04-02T13:53:55.000Z</time>
      </trkpt>
      <trkpt lat="45.22499" lon="5.77234">
        <ele>484.26</ele>
        <time>2021-04-02T13:54:00.000Z</time>
      </trkpt>
      <trkpt lat="45.22494" lon="5.77209">
        <ele>486.03</ele>
        <time>2021-04-02T13:54:05.000Z</time>
      </trkpt>
      <trkpt lat="45.2249" lon="5.7718">
        <ele>485.85</ele>
        <time>2021-04-02T13:54:10.000Z</time>
      </trkpt>
      <trkpt lat="45.22501" lon="5.7716">
        <ele>486.24</ele>
        <time>2021-04-02T13:54:15.000Z</time>
      </trkpt>
      <trkpt lat="45.22512" lon="5.7714">
        <ele>482.17</ele>
        <time>2021-04-02T13:54:20.000Z</time>
      </trkpt>
      <trkpt lat="45.22522" lon="5.77125">
        <ele>481.47</ele>
        <time>2021-04-02T13:54:25.000Z</time>
      </trkpt>
      <trkpt lat="45.22531" lon="5.77111">
        <ele>484.98</ele>
        <time>2021-04-02T13:54:30.000Z</time>
      </trkpt>
      <trkpt lat="45.22541" lon="5.77089">
        <ele>482.61</ele>
        <time>2021-04-02T13:54:35.000Z</time>
      </trkpt>
      <trkpt lat="45.22544" lon="5.77067">
        <ele>480.97</ele>
        <time>2021-04-02T13:54:40.000Z</time>
      </trkpt>
      <trkpt lat="45.2255" lon="5.77044">
        <ele>482.78</ele>
        <time>2021-04-02T13:54:45.000Z</time>
      </trkpt>
      <trkpt lat="45.22554" lon="5.77019">
        <ele>488.5</ele>
        <time>2021-04-02T13:54:50.000Z</time>
      </trkpt>
      <trkpt lat="45.22546" lon="5.77">
        <ele>489.26</ele>
        <time>2021-04-02T13:54:55.000Z</time>
      </trkpt>
      <trkpt lat="45.22528" lon="5.7699">
        <ele>487.01</ele>
        <time>2021-04-02T13:55:00.000Z</time>
      </trkpt>
      <trkpt lat="45.22501" lon="5.76972">
        <ele>484.19</ele>
        <time>2021-04-02T13:55:05.000Z</time>
      </trkpt>
      <trkpt lat="45.22473" lon="5.76929">
        <ele>487.48</ele>
        <time>2021-04-02T13:55:10.000Z</time>
      </trkpt>
      <trkpt lat="45.22455" lon="5.76898">
        <ele>489.73</ele>
        <time>2021-04-02T13:55:15.000Z</time>
      </trkpt>
      <trkpt lat="45.22448" lon="5.76874">
        <ele>488.57</ele>
        <time>2021-04-02T13:55:20.000Z</time>
      </trkpt>
      <trkpt lat="45.22441" lon="5.76852">
        <ele>489.58</ele>
        <time>2021-04-02T13:55:25.000Z</time>
      </trkpt>
      <trkpt lat="45.22431" lon="5.76836">
        <ele>491.56</ele>
        <time>2021-04-02T13:55:30.000Z</time>
      </trkpt>
      <trkpt lat="45.22412" lon="5.76826">
        <ele>492.68</ele>
        <time>2021-04-02T13:55:35.000Z</time>
      </trkpt>
      <trkpt lat="45.22397" lon="5.76818">
        <ele>492.84</ele>
        <time>2021-04-02T13:55:40.000Z</time>
      </trkpt>
      <trkpt lat="45.22384" lon="5.76811">
        <ele>489.93</ele>
        <time>2021-04-02T13:55:45.000Z</time>
      </trkpt>
      <trkpt lat="45.22366" lon="5.76804">
        <ele>490.57</ele>
        <time>2021-04-02T13:55:50.000Z</time>
      </trkpt>
      <trkpt lat="45.22357" lon="5.76793">
        <ele>494.43</ele>
        <time>2021-04-02T13:55:55.000Z</time>
      </trkpt>
      <trkpt lat="45.2237" lon="5.76786">
        <ele>496.05</ele>
        <time>2021-04-02T13:56:00.000Z</time>
      </trkpt>
      <trkpt lat="45.22385" lon="5.76791">
        <ele>499</ele>
        <time>2021-04-02T13:56:05.000Z</time>
      </trkpt>
      <trkpt lat="45.224" lon="5.76795">
        <ele>499.5</ele>
        <time>2021-04-02T13:56:10.000Z</time>
      </trkpt>
      <trkpt lat="45.22417" lon="5.76798">
        <ele>501.71</ele>
        <time>2021-04-02T13:56:15.000Z</time>
      </trkpt>
      <trkpt lat="45.22432" lon="5.76796">
        <ele>502.68</ele>
        <time>2021-04-02T13:56:20.000Z</time>
      </trkpt>
      <trkpt lat="45.22448" lon="5.76794">
        <ele>506.96</ele>
        <time>2021-04-02T13:56:25.000Z</time>
      </trkpt>
      <trkpt lat="45.2246" lon="5.76799">
        <ele>508.57</ele>
        <time>2021-04-02T13:56:30.000Z</time>
      </trkpt>
      <trkpt lat="45.22479" lon="5.76813">
        <ele>511.18</ele>
        <time>2021-04-02T13:56:35.000Z</time>
      </trkpt>
      <trkpt lat="45.22494" lon="5.76824">
        <ele>512.07</ele>
        <time>2021-04-02T13:56:40.000Z</time>
      </trkpt>
      <trkpt lat="45.22509" lon="5.76828">
        <ele>518.48</ele>
        <time>2021-04-02T13:56:45.000Z</time>
      </trkpt>
      <trkpt lat="45.22521" lon="5.76833">
        <ele>526.34</ele>
        <time>2021-04-02T13:56:50.000Z</time>
      </trkpt>
      <trkpt lat="45.22535" lon="5.7684">
        <ele>531.21</ele>
        <time>2021-04-02T13:56:55.000Z</time>
      </trkpt>
      <trkpt lat="45.22548" lon="5.76843">
        <ele>533.22</ele>
        <time>2021-04-02T13:57:00.000Z</time>
      </trkpt>
      <trkpt lat="45.22562" lon="5.76848">
        <ele>529.83</ele>
        <time>2021-04-02T13:57:05.000Z</time>
      </trkpt>
      <trkpt lat="45.22578" lon="5.76851">
        <ele>532.28</ele>
        <time>2021-04-02T13:57:10.000Z</time>
      </trkpt>
      <trkpt lat="45.22596" lon="5.76853">
        <ele>532.63</ele>
        <time>2021-04-02T13:57:15.000Z</time>
      </trkpt>
      <trkpt lat="45.22612" lon="5.76856">
        <ele>538.12</ele>
        <time>2021-04-02T13:57:20.000Z</time>
      </trkpt>
      <trkpt lat="45.2263" lon="5.76858">
        <ele>537.42</ele>
        <time>2021-04-02T13:57:25.000Z</time>
      </trkpt>
      <trkpt lat="45.22646" lon="5.76854">
        <ele>538.84</ele>
        <time>2021-04-02T13:57:30.000Z</time>
      </trkpt>
      <trkpt lat="45.22664" lon="5.76845">
        <ele>536.22</ele>
        <time>2021-04-02T13:57:35.000Z</time>
      </trkpt>
      <trkpt lat="45.22679" lon="5.76844">
        <ele>536.24</ele>
        <time>2021-04-02T13:57:40.000Z</time>
      </trkpt>
      <trkpt lat="45.22698" lon="5.76846">
        <ele>537.95</ele>
        <time>2021-04-02T13:57:45.000Z</time>
      </trkpt>
      <trkpt lat="45.22711" lon="5.76852">
        <ele>537.94</ele>
        <time>2021-04-02T13:57:50.000Z</time>
      </trkpt>
      <trkpt lat="45.22722" lon="5.76869">
        <ele>538.01</ele>
        <time>2021-04-02T13:57:55.000Z</time>
      </trkpt>
      <trkpt lat="45.22733" lon="5.76892">
        <ele>545.8</ele>
        <time>2021-04-02T13:58:01.000Z</time>
      </trkpt>
      <trkpt lat="45.22741" lon="5.76902">
        <ele>546.94</ele>
        <time>2021-04-02T13:58:07.000Z</time>
      </trkpt>
      <trkpt lat="45.22755" lon="5.76906">
        <ele>548.61</ele>
        <time>2021-04-02T13:58:12.000Z</time>
      </trkpt>
      <trkpt lat="45.22773" lon="5.76913">
        <ele>547.9</ele>
        <time>2021-04-02T13:58:17.000Z</time>
      </trkpt>
      <trkpt lat="45.22788" lon="5.76917">
        <ele>547.42</ele>
        <time>2021-04-02T13:58:22.000Z</time>
      </trkpt>
      <trkpt lat="45.22815" lon="5.76899">
        <ele>544.4</ele>
        <time>2021-04-02T13:58:32.000Z</time>
      </trkpt>
      <trkpt lat="45.22824" lon="5.76878">
        <ele>541.61</ele>
        <time>2021-04-02T13:58:37.000Z</time>
      </trkpt>
      <trkpt lat="45.22827" lon="5.76854">
        <ele>543.95</ele>
        <time>2021-04-02T13:58:42.000Z</time>
      </trkpt>
      <trkpt lat="45.22822" lon="5.76833">
        <ele>545.18</ele>
        <time>2021-04-02T13:58:47.000Z</time>
      </trkpt>
      <trkpt lat="45.22813" lon="5.76813">
        <ele>543.79</ele>
        <time>2021-04-02T13:58:52.000Z</time>
      </trkpt>
      <trkpt lat="45.22801" lon="5.76792">
        <ele>555.43</ele>
        <time>2021-04-02T13:58:57.000Z</time>
      </trkpt>
      <trkpt lat="45.2279" lon="5.76775">
        <ele>551.84</ele>
        <time>2021-04-02T13:59:02.000Z</time>
      </trkpt>
      <trkpt lat="45.22781" lon="5.76754">
        <ele>551.17</ele>
        <time>2021-04-02T13:59:07.000Z</time>
      </trkpt>
      <trkpt lat="45.22774" lon="5.76737">
        <ele>555.02</ele>
        <time>2021-04-02T13:59:12.000Z</time>
      </trkpt>
      <trkpt lat="45.22767" lon="5.76718">
        <ele>556.1</ele>
        <time>2021-04-02T13:59:17.000Z</time>
      </trkpt>
      <trkpt lat="45.22762" lon="5.76694">
        <ele>559</ele>
        <time>2021-04-02T13:59:22.000Z</time>
      </trkpt>
      <trkpt lat="45.22756" lon="5.7667">
        <ele>562.15</ele>
        <time>2021-04-02T13:59:27.000Z</time>
      </trkpt>
      <trkpt lat="45.22752" lon="5.76649">
        <ele>565</ele>
        <time>2021-04-02T13:59:32.000Z</time>
      </trkpt>
      <trkpt lat="45.22747" lon="5.76627">
        <ele>564.62</ele>
        <time>2021-04-02T13:59:37.000Z</time>
      </trkpt>
      <trkpt lat="45.22743" lon="5.76609">
        <ele>569.82</ele>
        <time>2021-04-02T13:59:42.000Z</time>
      </trkpt>
      <trkpt lat="45.22736" lon="5.76591">
        <ele>573.6</ele>
        <time>2021-04-02T13:59:47.000Z</time>
      </trkpt>
      <trkpt lat="45.2273" lon="5.76569">
        <ele>576.67</ele>
        <time>2021-04-02T13:59:52.000Z</time>
      </trkpt>
      <trkpt lat="45.22718" lon="5.76554">
        <ele>578.32</ele>
        <time>2021-04-02T13:59:57.000Z</time>
      </trkpt>
      <trkpt lat="45.22705" lon="5.76545">
        <ele>583.39</ele>
        <time>2021-04-02T14:00:02.000Z</time>
      </trkpt>
      <trkpt lat="45.2269" lon="5.76541">
        <ele>582.6</ele>
        <time>2021-04-02T14:00:07.000Z</time>
      </trkpt>
      <trkpt lat="45.22673" lon="5.76536">
        <ele>581.3</ele>
        <time>2021-04-02T14:00:12.000Z</time>
      </trkpt>
      <trkpt lat="45.22657" lon="5.76526">
        <ele>579.61</ele>
        <time>2021-04-02T14:00:17.000Z</time>
      </trkpt>
      <trkpt lat="45.22642" lon="5.7652">
        <ele>579.92</ele>
        <time>2021-04-02T14:00:22.000Z</time>
      </trkpt>
      <trkpt lat="45.22627" lon="5.76514">
        <ele>582.6</ele>
        <time>2021-04-02T14:00:27.000Z</time>
      </trkpt>
      <trkpt lat="45.22611" lon="5.76512">
        <ele>586.69</ele>
        <time>2021-04-02T14:00:32.000Z</time>
      </trkpt>
      <trkpt lat="45.22594" lon="5.76507">
        <ele>588.21</ele>
        <time>2021-04-02T14:00:37.000Z</time>
      </trkpt>
      <trkpt lat="45.22579" lon="5.765">
        <ele>590.12</ele>
        <time>2021-04-02T14:00:42.000Z</time>
      </trkpt>
      <trkpt lat="45.22564" lon="5.76494">
        <ele>594.96</ele>
        <time>2021-04-02T14:00:47.000Z</time>
      </trkpt>
      <trkpt lat="45.2255" lon="5.76484">
        <ele>600.29</ele>
        <time>2021-04-02T14:00:52.000Z</time>
      </trkpt>
      <trkpt lat="45.22537" lon="5.76471">
        <ele>602.37</ele>
        <time>2021-04-02T14:00:57.000Z</time>
      </trkpt>
      <trkpt lat="45.22528" lon="5.76452">
        <ele>605.05</ele>
        <time>2021-04-02T14:01:02.000Z</time>
      </trkpt>
      <trkpt lat="45.22522" lon="5.76433">
        <ele>604.67</ele>
        <time>2021-04-02T14:01:07.000Z</time>
      </trkpt>
      <trkpt lat="45.22517" lon="5.76408">
        <ele>603.07</ele>
        <time>2021-04-02T14:01:12.000Z</time>
      </trkpt>
      <trkpt lat="45.22515" lon="5.76387">
        <ele>604.47</ele>
        <time>2021-04-02T14:01:17.000Z</time>
      </trkpt>
      <trkpt lat="45.22509" lon="5.76364">
        <ele>605.07</ele>
        <time>2021-04-02T14:01:22.000Z</time>
      </trkpt>
      <trkpt lat="45.22501" lon="5.76345">
        <ele>608.55</ele>
        <time>2021-04-02T14:01:27.000Z</time>
      </trkpt>
      <trkpt lat="45.22497" lon="5.76324">
        <ele>612.38</ele>
        <time>2021-04-02T14:01:32.000Z</time>
      </trkpt>
      <trkpt lat="45.22496" lon="5.76301">
        <ele>613.17</ele>
        <time>2021-04-02T14:01:37.000Z</time>
      </trkpt>
      <trkpt lat="45.22497" lon="5.76278">
        <ele>613.67</ele>
        <time>2021-04-02T14:01:42.000Z</time>
      </trkpt>
      <trkpt lat="45.22497" lon="5.76256">
        <ele>614.69</ele>
        <time>2021-04-02T14:01:47.000Z</time>
      </trkpt>
      <trkpt lat="45.225" lon="5.76235">
        <ele>612.9</ele>
        <time>2021-04-02T14:01:52.000Z</time>
      </trkpt>
      <trkpt lat="45.22505" lon="5.76216">
        <ele>611.05</ele>
        <time>2021-04-02T14:01:57.000Z</time>
      </trkpt>
      <trkpt lat="45.22507" lon="5.76194">
        <ele>612.87</ele>
        <time>2021-04-02T14:02:02.000Z</time>
      </trkpt>
      <trkpt lat="45.22512" lon="5.76173">
        <ele>614.76</ele>
        <time>2021-04-02T14:02:07.000Z</time>
      </trkpt>
      <trkpt lat="45.22522" lon="5.76153">
        <ele>615.92</ele>
        <time>2021-04-02T14:02:12.000Z</time>
      </trkpt>
      <trkpt lat="45.22533" lon="5.76132">
        <ele>615.43</ele>
        <time>2021-04-02T14:02:17.000Z</time>
      </trkpt>
      <trkpt lat="45.22547" lon="5.76119">
        <ele>618.49</ele>
        <time>2021-04-02T14:02:22.000Z</time>
      </trkpt>
      <trkpt lat="45.22559" lon="5.76108">
        <ele>620.87</ele>
        <time>2021-04-02T14:02:27.000Z</time>
      </trkpt>
      <trkpt lat="45.22572" lon="5.76092">
        <ele>620.39</ele>
        <time>2021-04-02T14:02:32.000Z</time>
      </trkpt>
      <trkpt lat="45.2258" lon="5.76075">
        <ele>623.37</ele>
        <time>2021-04-02T14:02:37.000Z</time>
      </trkpt>
      <trkpt lat="45.22592" lon="5.76067">
        <ele>625.31</ele>
        <time>2021-04-02T14:02:42.000Z</time>
      </trkpt>
      <trkpt lat="45.22608" lon="5.76058">
        <ele>628.2</ele>
        <time>2021-04-02T14:02:47.000Z</time>
      </trkpt>
      <trkpt lat="45.2262" lon="5.76037">
        <ele>631.87</ele>
        <time>2021-04-02T14:02:52.000Z</time>
      </trkpt>
      <trkpt lat="45.22625" lon="5.76014">
        <ele>631.06</ele>
        <time>2021-04-02T14:02:57.000Z</time>
      </trkpt>
      <trkpt lat="45.22628" lon="5.7599">
        <ele>633.48</ele>
        <time>2021-04-02T14:03:02.000Z</time>
      </trkpt>
      <trkpt lat="45.22629" lon="5.75968">
        <ele>634.08</ele>
        <time>2021-04-02T14:03:07.000Z</time>
      </trkpt>
      <trkpt lat="45.22629" lon="5.75943">
        <ele>638.73</ele>
        <time>2021-04-02T14:03:12.000Z</time>
      </trkpt>
      <trkpt lat="45.22633" lon="5.75923">
        <ele>640.99</ele>
        <time>2021-04-02T14:03:17.000Z</time>
      </trkpt>
      <trkpt lat="45.22645" lon="5.75907">
        <ele>643.2</ele>
        <time>2021-04-02T14:03:22.000Z</time>
      </trkpt>
      <trkpt lat="45.22661" lon="5.75897">
        <ele>643.41</ele>
        <time>2021-04-02T14:03:27.000Z</time>
      </trkpt>
      <trkpt lat="45.22676" lon="5.75892">
        <ele>644.34</ele>
        <time>2021-04-02T14:03:32.000Z</time>
      </trkpt>
      <trkpt lat="45.22692" lon="5.7589">
        <ele>648.09</ele>
        <time>2021-04-02T14:03:37.000Z</time>
      </trkpt>
      <trkpt lat="45.22705" lon="5.75887">
        <ele>650.5</ele>
        <time>2021-04-02T14:03:42.000Z</time>
      </trkpt>
      <trkpt lat="45.22719" lon="5.75889">
        <ele>656.65</ele>
        <time>2021-04-02T14:03:47.000Z</time>
      </trkpt>
      <trkpt lat="45.22736" lon="5.7589">
        <ele>657.21</ele>
        <time>2021-04-02T14:03:52.000Z</time>
      </trkpt>
      <trkpt lat="45.22754" lon="5.75886">
        <ele>659.98</ele>
        <time>2021-04-02T14:03:57.000Z</time>
      </trkpt>
      <trkpt lat="45.22769" lon="5.75876">
        <ele>659.4</ele>
        <time>2021-04-02T14:04:02.000Z</time>
      </trkpt>
      <trkpt lat="45.22781" lon="5.75863">
        <ele>660.4</ele>
        <time>2021-04-02T14:04:07.000Z</time>
      </trkpt>
      <trkpt lat="45.22795" lon="5.75854">
        <ele>662.61</ele>
        <time>2021-04-02T14:04:12.000Z</time>
      </trkpt>
      <trkpt lat="45.22812" lon="5.75848">
        <ele>665.62</ele>
        <time>2021-04-02T14:04:17.000Z</time>
      </trkpt>
      <trkpt lat="45.22828" lon="5.75842">
        <ele>667.11</ele>
        <time>2021-04-02T14:04:22.000Z</time>
      </trkpt>
      <trkpt lat="45.22844" lon="5.75835">
        <ele>670.91</ele>
        <time>2021-04-02T14:04:27.000Z</time>
      </trkpt>
      <trkpt lat="45.22858" lon="5.75816">
        <ele>673.89</ele>
        <time>2021-04-02T14:04:32.000Z</time>
      </trkpt>
      <trkpt lat="45.22866" lon="5.75797">
        <ele>673.31</ele>
        <time>2021-04-02T14:04:37.000Z</time>
      </trkpt>
      <trkpt lat="45.22879" lon="5.75779">
        <ele>671.85</ele>
        <time>2021-04-02T14:04:42.000Z</time>
      </trkpt>
      <trkpt lat="45.2289" lon="5.75766">
        <ele>671.63</ele>
        <time>2021-04-02T14:04:47.000Z</time>
      </trkpt>
      <trkpt lat="45.22901" lon="5.7575">
        <ele>671.1</ele>
        <time>2021-04-02T14:04:52.000Z</time>
      </trkpt>
      <trkpt lat="45.22913" lon="5.75736">
        <ele>673.76</ele>
        <time>2021-04-02T14:04:57.000Z</time>
      </trkpt>
      <trkpt lat="45.22923" lon="5.75719">
        <ele>676.12</ele>
        <time>2021-04-02T14:05:02.000Z</time>
      </trkpt>
      <trkpt lat="45.22927" lon="5.75695">
        <ele>678.68</ele>
        <time>2021-04-02T14:05:07.000Z</time>
      </trkpt>
      <trkpt lat="45.22932" lon="5.75668">
        <ele>681.54</ele>
        <time>2021-04-02T14:05:12.000Z</time>
      </trkpt>
      <trkpt lat="45.22934" lon="5.75644">
        <ele>683.55</ele>
        <time>2021-04-02T14:05:17.000Z</time>
      </trkpt>
      <trkpt lat="45.22943" lon="5.75627">
        <ele>682.53</ele>
        <time>2021-04-02T14:05:22.000Z</time>
      </trkpt>
      <trkpt lat="45.22953" lon="5.7561">
        <ele>683.21</ele>
        <time>2021-04-02T14:05:27.000Z</time>
      </trkpt>
      <trkpt lat="45.22951" lon="5.75586">
        <ele>687.48</ele>
        <time>2021-04-02T14:05:32.000Z</time>
      </trkpt>
      <trkpt lat="45.22947" lon="5.75564">
        <ele>688.93</ele>
        <time>2021-04-02T14:05:37.000Z</time>
      </trkpt>
      <trkpt lat="45.22946" lon="5.7554">
        <ele>690.27</ele>
        <time>2021-04-02T14:05:42.000Z</time>
      </trkpt>
      <trkpt lat="45.22943" lon="5.75515">
        <ele>690.22</ele>
        <time>2021-04-02T14:05:47.000Z</time>
      </trkpt>
      <trkpt lat="45.22935" lon="5.75493">
        <ele>695.2</ele>
        <time>2021-04-02T14:05:52.000Z</time>
      </trkpt>
      <trkpt lat="45.2294" lon="5.75472">
        <ele>695.34</ele>
        <time>2021-04-02T14:05:57.000Z</time>
      </trkpt>
      <trkpt lat="45.22962" lon="5.75465">
        <ele>697.08</ele>
        <time>2021-04-02T14:06:02.000Z</time>
      </trkpt>
      <trkpt lat="45.2298" lon="5.75466">
        <ele>696.65</ele>
        <time>2021-04-02T14:06:07.000Z</time>
      </trkpt>
      <trkpt lat="45.22993" lon="5.75464">
        <ele>695.84</ele>
        <time>2021-04-02T14:06:12.000Z</time>
      </trkpt>
      <trkpt lat="45.23008" lon="5.75463">
        <ele>694.7</ele>
        <time>2021-04-02T14:06:17.000Z</time>
      </trkpt>
      <trkpt lat="45.23022" lon="5.75464">
        <ele>695.9</ele>
        <time>2021-04-02T14:06:22.000Z</time>
      </trkpt>
      <trkpt lat="45.23035" lon="5.75455">
        <ele>693.95</ele>
        <time>2021-04-02T14:06:27.000Z</time>
      </trkpt>
      <trkpt lat="45.23041" lon="5.75428">
        <ele>693.7</ele>
        <time>2021-04-02T14:06:32.000Z</time>
      </trkpt>
      <trkpt lat="45.23047" lon="5.75408">
        <ele>698.56</ele>
        <time>2021-04-02T14:06:37.000Z</time>
      </trkpt>
      <trkpt lat="45.23048" lon="5.75387">
        <ele>700.94</ele>
        <time>2021-04-02T14:06:42.000Z</time>
      </trkpt>
      <trkpt lat="45.2305" lon="5.75364">
        <ele>702.19</ele>
        <time>2021-04-02T14:06:47.000Z</time>
      </trkpt>
      <trkpt lat="45.23049" lon="5.75337">
        <ele>705.89</ele>
        <time>2021-04-02T14:06:52.000Z</time>
      </trkpt>
      <trkpt lat="45.2304" lon="5.75314">
        <ele>710.05</ele>
        <time>2021-04-02T14:06:57.000Z</time>
      </trkpt>
      <trkpt lat="45.23037" lon="5.75295">
        <ele>713.76</ele>
        <time>2021-04-02T14:07:02.000Z</time>
      </trkpt>
      <trkpt lat="45.23046" lon="5.75277">
        <ele>713.99</ele>
        <time>2021-04-02T14:07:07.000Z</time>
      </trkpt>
      <trkpt lat="45.23061" lon="5.75264">
        <ele>715.84</ele>
        <time>2021-04-02T14:07:12.000Z</time>
      </trkpt>
      <trkpt lat="45.23072" lon="5.75248">
        <ele>717.74</ele>
        <time>2021-04-02T14:07:17.000Z</time>
      </trkpt>
      <trkpt lat="45.23081" lon="5.7523">
        <ele>721.9</ele>
        <time>2021-04-02T14:07:22.000Z</time>
      </trkpt>
      <trkpt lat="45.23091" lon="5.75207">
        <ele>722.56</ele>
        <time>2021-04-02T14:07:27.000Z</time>
      </trkpt>
      <trkpt lat="45.23106" lon="5.75195">
        <ele>722.01</ele>
        <time>2021-04-02T14:07:32.000Z</time>
      </trkpt>
      <trkpt lat="45.23118" lon="5.75184">
        <ele>725.84</ele>
        <time>2021-04-02T14:07:37.000Z</time>
      </trkpt>
      <trkpt lat="45.23128" lon="5.75171">
        <ele>725.36</ele>
        <time>2021-04-02T14:07:42.000Z</time>
      </trkpt>
      <trkpt lat="45.2314" lon="5.75155">
        <ele>727.2</ele>
        <time>2021-04-02T14:07:47.000Z</time>
      </trkpt>
      <trkpt lat="45.23154" lon="5.75142">
        <ele>729.03</ele>
        <time>2021-04-02T14:07:52.000Z</time>
      </trkpt>
      <trkpt lat="45.23171" lon="5.7513">
        <ele>727.36</ele>
        <time>2021-04-02T14:07:57.000Z</time>
      </trkpt>
      <trkpt lat="45.23188" lon="5.75123">
        <ele>729.24</ele>
        <time>2021-04-02T14:08:02.000Z</time>
      </trkpt>
      <trkpt lat="45.23202" lon="5.75121">
        <ele>731.71</ele>
        <time>2021-04-02T14:08:07.000Z</time>
      </trkpt>
      <trkpt lat="45.23218" lon="5.75124">
        <ele>726.65</ele>
        <time>2021-04-02T14:08:12.000Z</time>
      </trkpt>
      <trkpt lat="45.23232" lon="5.75124">
        <ele>727.75</ele>
        <time>2021-04-02T14:08:17.000Z</time>
      </trkpt>
      <trkpt lat="45.2325" lon="5.75122">
        <ele>729.22</ele>
        <time>2021-04-02T14:08:22.000Z</time>
      </trkpt>
      <trkpt lat="45.23269" lon="5.75121">
        <ele>732.76</ele>
        <time>2021-04-02T14:08:27.000Z</time>
      </trkpt>
      <trkpt lat="45.23286" lon="5.75124">
        <ele>736.5</ele>
        <time>2021-04-02T14:08:32.000Z</time>
      </trkpt>
      <trkpt lat="45.23304" lon="5.75126">
        <ele>740.38</ele>
        <time>2021-04-02T14:08:37.000Z</time>
      </trkpt>
      <trkpt lat="45.23322" lon="5.75133">
        <ele>739.82</ele>
        <time>2021-04-02T14:08:42.000Z</time>
      </trkpt>
      <trkpt lat="45.23337" lon="5.75134">
        <ele>739.87</ele>
        <time>2021-04-02T14:08:47.000Z</time>
      </trkpt>
      <trkpt lat="45.23353" lon="5.75133">
        <ele>739.18</ele>
        <time>2021-04-02T14:08:52.000Z</time>
      </trkpt>
      <trkpt lat="45.2337" lon="5.75138">
        <ele>737.37</ele>
        <time>2021-04-02T14:08:57.000Z</time>
      </trkpt>
      <trkpt lat="45.23387" lon="5.75145">
        <ele>740.07</ele>
        <time>2021-04-02T14:09:02.000Z</time>
      </trkpt>
      <trkpt lat="45.23404" lon="5.75146">
        <ele>742.08</ele>
        <time>2021-04-02T14:09:07.000Z</time>
      </trkpt>
      <trkpt lat="45.2342" lon="5.75148">
        <ele>746.61</ele>
        <time>2021-04-02T14:09:12.000Z</time>
      </trkpt>
      <trkpt lat="45.23437" lon="5.7515">
        <ele>749.11</ele>
        <time>2021-04-02T14:09:17.000Z</time>
      </trkpt>
      <trkpt lat="45.23452" lon="5.75143">
        <ele>753.38</ele>
        <time>2021-04-02T14:09:22.000Z</time>
      </trkpt>
      <trkpt lat="45.23469" lon="5.75135">
        <ele>756.5</ele>
        <time>2021-04-02T14:09:27.000Z</time>
      </trkpt>
      <trkpt lat="45.23481" lon="5.75117">
        <ele>760.28</ele>
        <time>2021-04-02T14:09:32.000Z</time>
      </trkpt>
      <trkpt lat="45.23497" lon="5.75107">
        <ele>762.59</ele>
        <time>2021-04-02T14:09:37.000Z</time>
      </trkpt>
      <trkpt lat="45.23515" lon="5.75104">
        <ele>764.46</ele>
        <time>2021-04-02T14:09:42.000Z</time>
      </trkpt>
      <trkpt lat="45.23536" lon="5.75101">
        <ele>765.87</ele>
        <time>2021-04-02T14:09:47.000Z</time>
      </trkpt>
      <trkpt lat="45.23553" lon="5.75103">
        <ele>768.3</ele>
        <time>2021-04-02T14:09:52.000Z</time>
      </trkpt>
      <trkpt lat="45.23568" lon="5.7511">
        <ele>768.47</ele>
        <time>2021-04-02T14:09:57.000Z</time>
      </trkpt>
      <trkpt lat="45.23586" lon="5.75123">
        <ele>771.26</ele>
        <time>2021-04-02T14:10:02.000Z</time>
      </trkpt>
      <trkpt lat="45.2361" lon="5.75138">
        <ele>771.69</ele>
        <time>2021-04-02T14:10:07.000Z</time>
      </trkpt>
      <trkpt lat="45.23631" lon="5.75145">
        <ele>771.62</ele>
        <time>2021-04-02T14:10:12.000Z</time>
      </trkpt>
      <trkpt lat="45.23651" lon="5.75147">
        <ele>774.18</ele>
        <time>2021-04-02T14:10:17.000Z</time>
      </trkpt>
      <trkpt lat="45.23672" lon="5.75145">
        <ele>776.62</ele>
        <time>2021-04-02T14:10:22.000Z</time>
      </trkpt>
      <trkpt lat="45.23691" lon="5.75144">
        <ele>778.89</ele>
        <time>2021-04-02T14:10:27.000Z</time>
      </trkpt>
      <trkpt lat="45.23713" lon="5.75145">
        <ele>780.31</ele>
        <time>2021-04-02T14:10:32.000Z</time>
      </trkpt>
      <trkpt lat="45.23735" lon="5.75148">
        <ele>782.3</ele>
        <time>2021-04-02T14:10:37.000Z</time>
      </trkpt>
      <trkpt lat="45.23755" lon="5.75156">
        <ele>784.8</ele>
        <time>2021-04-02T14:10:42.000Z</time>
      </trkpt>
      <trkpt lat="45.23776" lon="5.75162">
        <ele>785.99</ele>
        <time>2021-04-02T14:10:47.000Z</time>
      </trkpt>
      <trkpt lat="45.23802" lon="5.75165">
        <ele>790.4</ele>
        <time>2021-04-02T14:10:52.000Z</time>
      </trkpt>
      <trkpt lat="45.23824" lon="5.75177">
        <ele>789.71</ele>
        <time>2021-04-02T14:10:57.000Z</time>
      </trkpt>
      <trkpt lat="45.23847" lon="5.75175">
        <ele>790.5</ele>
        <time>2021-04-02T14:11:02.000Z</time>
      </trkpt>
      <trkpt lat="45.23874" lon="5.75192">
        <ele>794.16</ele>
        <time>2021-04-02T14:11:07.000Z</time>
      </trkpt>
      <trkpt lat="45.239" lon="5.75207">
        <ele>799.84</ele>
        <time>2021-04-02T14:11:12.000Z</time>
      </trkpt>
      <trkpt lat="45.23925" lon="5.75216">
        <ele>801.71</ele>
        <time>2021-04-02T14:11:17.000Z</time>
      </trkpt>
      <trkpt lat="45.2395" lon="5.75237">
        <ele>804.97</ele>
        <time>2021-04-02T14:11:22.000Z</time>
      </trkpt>
      <trkpt lat="45.23974" lon="5.7526">
        <ele>801.75</ele>
        <time>2021-04-02T14:11:27.000Z</time>
      </trkpt>
      <trkpt lat="45.23998" lon="5.75281">
        <ele>800.78</ele>
        <time>2021-04-02T14:11:32.000Z</time>
      </trkpt>
      <trkpt lat="45.24014" lon="5.75292">
        <ele>798.86</ele>
        <time>2021-04-02T14:11:37.000Z</time>
      </trkpt>
      <trkpt lat="45.24038" lon="5.75316">
        <ele>800.2</ele>
        <time>2021-04-02T14:11:42.000Z</time>
      </trkpt>
      <trkpt lat="45.2406" lon="5.75325">
        <ele>800.17</ele>
        <time>2021-04-02T14:11:47.000Z</time>
      </trkpt>
      <trkpt lat="45.24082" lon="5.75332">
        <ele>801.42</ele>
        <time>2021-04-02T14:11:52.000Z</time>
      </trkpt>
      <trkpt lat="45.24102" lon="5.75339">
        <ele>801.76</ele>
        <time>2021-04-02T14:11:57.000Z</time>
      </trkpt>
      <trkpt lat="45.24116" lon="5.7535">
        <ele>802.65</ele>
        <time>2021-04-02T14:12:02.000Z</time>
      </trkpt>
      <trkpt lat="45.24128" lon="5.75362">
        <ele>803.12</ele>
        <time>2021-04-02T14:12:07.000Z</time>
      </trkpt>
      <trkpt lat="45.2414" lon="5.75372">
        <ele>805.05</ele>
        <time>2021-04-02T14:12:12.000Z</time>
      </trkpt>
      <trkpt lat="45.24149" lon="5.75387">
        <ele>804.22</ele>
        <time>2021-04-02T14:12:17.000Z</time>
      </trkpt>
      <trkpt lat="45.24158" lon="5.75402">
        <ele>805.05</ele>
        <time>2021-04-02T14:12:22.000Z</time>
      </trkpt>
      <trkpt lat="45.24164" lon="5.75413">
        <ele>805.06</ele>
        <time>2021-04-02T14:12:27.000Z</time>
      </trkpt>
      <trkpt lat="45.24172" lon="5.7543">
        <ele>806.66</ele>
        <time>2021-04-02T14:12:32.000Z</time>
      </trkpt>
      <trkpt lat="45.24178" lon="5.75448">
        <ele>810.96</ele>
        <time>2021-04-02T14:12:37.000Z</time>
      </trkpt>
      <trkpt lat="45.24185" lon="5.75473">
        <ele>810.26</ele>
        <time>2021-04-02T14:12:42.000Z</time>
      </trkpt>
      <trkpt lat="45.24191" lon="5.75495">
        <ele>809.17</ele>
        <time>2021-04-02T14:12:47.000Z</time>
      </trkpt>
      <trkpt lat="45.24198" lon="5.75517">
        <ele>810.04</ele>
        <time>2021-04-02T14:12:52.000Z</time>
      </trkpt>
      <trkpt lat="45.24208" lon="5.75538">
        <ele>811.24</ele>
        <time>2021-04-02T14:12:57.000Z</time>
      </trkpt>
      <trkpt lat="45.24213" lon="5.75559">
        <ele>813.56</ele>
        <time>2021-04-02T14:13:02.000Z</time>
      </trkpt>
      <trkpt lat="45.24217" lon="5.7558">
        <ele>815.67</ele>
        <time>2021-04-02T14:13:07.000Z</time>
      </trkpt>
      <trkpt lat="45.24218" lon="5.75603">
        <ele>816.96</ele>
        <time>2021-04-02T14:13:12.000Z</time>
      </trkpt>
      <trkpt lat="45.24221" lon="5.75622">
        <ele>818.75</ele>
        <time>2021-04-02T14:13:17.000Z</time>
      </trkpt>
      <trkpt lat="45.24231" lon="5.75634">
        <ele>822.45</ele>
        <time>2021-04-02T14:13:22.000Z</time>
      </trkpt>
      <trkpt lat="45.24243" lon="5.75654">
        <ele>821.73</ele>
        <time>2021-04-02T14:13:27.000Z</time>
      </trkpt>
      <trkpt lat="45.24256" lon="5.75677">
        <ele>822.34</ele>
        <time>2021-04-02T14:13:32.000Z</time>
      </trkpt>
      <trkpt lat="45.24264" lon="5.75695">
        <ele>824.84</ele>
        <time>2021-04-02T14:13:37.000Z</time>
      </trkpt>
      <trkpt lat="45.24273" lon="5.75714">
        <ele>823.43</ele>
        <time>2021-04-02T14:13:42.000Z</time>
      </trkpt>
      <trkpt lat="45.24287" lon="5.75725">
        <ele>822.74</ele>
        <time>2021-04-02T14:13:47.000Z</time>
      </trkpt>
      <trkpt lat="45.24302" lon="5.75737">
        <ele>821.71</ele>
        <time>2021-04-02T14:13:52.000Z</time>
      </trkpt>
      <trkpt lat="45.24314" lon="5.75756">
        <ele>822.47</ele>
        <time>2021-04-02T14:13:57.000Z</time>
      </trkpt>
      <trkpt lat="45.24321" lon="5.75774">
        <ele>827.46</ele>
        <time>2021-04-02T14:14:02.000Z</time>
      </trkpt>
      <trkpt lat="45.24326" lon="5.75793">
        <ele>830.73</ele>
        <time>2021-04-02T14:14:07.000Z</time>
      </trkpt>
      <trkpt lat="45.24338" lon="5.7581">
        <ele>833.31</ele>
        <time>2021-04-02T14:14:12.000Z</time>
      </trkpt>
      <trkpt lat="45.2435" lon="5.75826">
        <ele>835.82</ele>
        <time>2021-04-02T14:14:17.000Z</time>
      </trkpt>
      <trkpt lat="45.2436" lon="5.75847">
        <ele>828.36</ele>
        <time>2021-04-02T14:14:22.000Z</time>
      </trkpt>
      <trkpt lat="45.24368" lon="5.75871">
        <ele>826.86</ele>
        <time>2021-04-02T14:14:27.000Z</time>
      </trkpt>
      <trkpt lat="45.24371" lon="5.75895">
        <ele>828.47</ele>
        <time>2021-04-02T14:14:32.000Z</time>
      </trkpt>
      <trkpt lat="45.24369" lon="5.75922">
        <ele>830.17</ele>
        <time>2021-04-02T14:14:37.000Z</time>
      </trkpt>
      <trkpt lat="45.24372" lon="5.75944">
        <ele>830.51</ele>
        <time>2021-04-02T14:14:42.000Z</time>
      </trkpt>
      <trkpt lat="45.2438" lon="5.75967">
        <ele>832.98</ele>
        <time>2021-04-02T14:14:47.000Z</time>
      </trkpt>
      <trkpt lat="45.24385" lon="5.7599">
        <ele>839.67</ele>
        <time>2021-04-02T14:14:52.000Z</time>
      </trkpt>
      <trkpt lat="45.24392" lon="5.76012">
        <ele>842.79</ele>
        <time>2021-04-02T14:14:57.000Z</time>
      </trkpt>
      <trkpt lat="45.24397" lon="5.76034">
        <ele>841.86</ele>
        <time>2021-04-02T14:15:02.000Z</time>
      </trkpt>
      <trkpt lat="45.24396" lon="5.76055">
        <ele>842.65</ele>
        <time>2021-04-02T14:15:07.000Z</time>
      </trkpt>
      <trkpt lat="45.24398" lon="5.76076">
        <ele>846.46</ele>
        <time>2021-04-02T14:15:12.000Z</time>
      </trkpt>
      <trkpt lat="45.24402" lon="5.76097">
        <ele>849.19</ele>
        <time>2021-04-02T14:15:17.000Z</time>
      </trkpt>
      <trkpt lat="45.24406" lon="5.76121">
        <ele>848.92</ele>
        <time>2021-04-02T14:15:22.000Z</time>
      </trkpt>
      <trkpt lat="45.24409" lon="5.76146">
        <ele>849.36</ele>
        <time>2021-04-02T14:15:27.000Z</time>
      </trkpt>
      <trkpt lat="45.24415" lon="5.76166">
        <ele>847.9</ele>
        <time>2021-04-02T14:15:32.000Z</time>
      </trkpt>
      <trkpt lat="45.24421" lon="5.76187">
        <ele>849.81</ele>
        <time>2021-04-02T14:15:37.000Z</time>
      </trkpt>
      <trkpt lat="45.24424" lon="5.7621">
        <ele>852</ele>
        <time>2021-04-02T14:15:42.000Z</time>
      </trkpt>
      <trkpt lat="45.24426" lon="5.76231">
        <ele>854.66</ele>
        <time>2021-04-02T14:15:47.000Z</time>
      </trkpt>
      <trkpt lat="45.24436" lon="5.76254">
        <ele>856.72</ele>
        <time>2021-04-02T14:15:52.000Z</time>
      </trkpt>
      <trkpt lat="45.24444" lon="5.76276">
        <ele>862.29</ele>
        <time>2021-04-02T14:15:57.000Z</time>
      </trkpt>
      <trkpt lat="45.24448" lon="5.76298">
        <ele>860.93</ele>
        <time>2021-04-02T14:16:02.000Z</time>
      </trkpt>
      <trkpt lat="45.24451" lon="5.76319">
        <ele>861.94</ele>
        <time>2021-04-02T14:16:07.000Z</time>
      </trkpt>
      <trkpt lat="45.24455" lon="5.76334">
        <ele>863.45</ele>
        <time>2021-04-02T14:16:12.000Z</time>
      </trkpt>
      <trkpt lat="45.24463" lon="5.76351">
        <ele>862.92</ele>
        <time>2021-04-02T14:16:17.000Z</time>
      </trkpt>
      <trkpt lat="45.24477" lon="5.76367">
        <ele>867.76</ele>
        <time>2021-04-02T14:16:22.000Z</time>
      </trkpt>
      <trkpt lat="45.24487" lon="5.76382">
        <ele>869.24</ele>
        <time>2021-04-02T14:16:27.000Z</time>
      </trkpt>
      <trkpt lat="45.24499" lon="5.76396">
        <ele>869.47</ele>
        <time>2021-04-02T14:16:32.000Z</time>
      </trkpt>
      <trkpt lat="45.24513" lon="5.76418">
        <ele>868.43</ele>
        <time>2021-04-02T14:16:37.000Z</time>
      </trkpt>
      <trkpt lat="45.24525" lon="5.76433">
        <ele>867.83</ele>
        <time>2021-04-02T14:16:42.000Z</time>
      </trkpt>
      <trkpt lat="45.24539" lon="5.76443">
        <ele>868.15</ele>
        <time>2021-04-02T14:16:47.000Z</time>
      </trkpt>
      <trkpt lat="45.24549" lon="5.76453">
        <ele>866.91</ele>
        <time>2021-04-02T14:16:52.000Z</time>
      </trkpt>
      <trkpt lat="45.24561" lon="5.76463">
        <ele>869.25</ele>
        <time>2021-04-02T14:16:57.000Z</time>
      </trkpt>
      <trkpt lat="45.24571" lon="5.76467">
        <ele>870.87</ele>
        <time>2021-04-02T14:17:02.000Z</time>
      </trkpt>
      <trkpt lat="45.24584" lon="5.76478">
        <ele>870.05</ele>
        <time>2021-04-02T14:17:07.000Z</time>
      </trkpt>
      <trkpt lat="45.24599" lon="5.76477">
        <ele>876.65</ele>
        <time>2021-04-02T14:17:12.000Z</time>
      </trkpt>
      <trkpt lat="45.24616" lon="5.76465">
        <ele>878.04</ele>
        <time>2021-04-02T14:17:17.000Z</time>
      </trkpt>
      <trkpt lat="45.24632" lon="5.76459">
        <ele>879.08</ele>
        <time>2021-04-02T14:17:22.000Z</time>
      </trkpt>
      <trkpt lat="45.24647" lon="5.76449">
        <ele>881.14</ele>
        <time>2021-04-02T14:17:27.000Z</time>
      </trkpt>
      <trkpt lat="45.24661" lon="5.76438">
        <ele>886.48</ele>
        <time>2021-04-02T14:17:32.000Z</time>
      </trkpt>
      <trkpt lat="45.24673" lon="5.76421">
        <ele>891.08</ele>
        <time>2021-04-02T14:17:37.000Z</time>
      </trkpt>
      <trkpt lat="45.24687" lon="5.76409">
        <ele>895.88</ele>
        <time>2021-04-02T14:17:42.000Z</time>
      </trkpt>
      <trkpt lat="45.24702" lon="5.76403">
        <ele>899.99</ele>
        <time>2021-04-02T14:17:47.000Z</time>
      </trkpt>
      <trkpt lat="45.24722" lon="5.76402">
        <ele>900.54</ele>
        <time>2021-04-02T14:17:52.000Z</time>
      </trkpt>
      <trkpt lat="45.24739" lon="5.76407">
        <ele>898.31</ele>
        <time>2021-04-02T14:17:57.000Z</time>
      </trkpt>
      <trkpt lat="45.24754" lon="5.76414">
        <ele>898.57</ele>
        <time>2021-04-02T14:18:02.000Z</time>
      </trkpt>
      <trkpt lat="45.24768" lon="5.7642">
        <ele>899.79</ele>
        <time>2021-04-02T14:18:07.000Z</time>
      </trkpt>
      <trkpt lat="45.24783" lon="5.76428">
        <ele>900.12</ele>
        <time>2021-04-02T14:18:12.000Z</time>
      </trkpt>
      <trkpt lat="45.24797" lon="5.76437">
        <ele>901.8</ele>
        <time>2021-04-02T14:18:17.000Z</time>
      </trkpt>
      <trkpt lat="45.24811" lon="5.76452">
        <ele>900.88</ele>
        <time>2021-04-02T14:18:22.000Z</time>
      </trkpt>
      <trkpt lat="45.24828" lon="5.76465">
        <ele>902.26</ele>
        <time>2021-04-02T14:18:27.000Z</time>
      </trkpt>
      <trkpt lat="45.24842" lon="5.7648">
        <ele>903.16</ele>
        <time>2021-04-02T14:18:32.000Z</time>
      </trkpt>
      <trkpt lat="45.24856" lon="5.76495">
        <ele>905.79</ele>
        <time>2021-04-02T14:18:37.000Z</time>
      </trkpt>
      <trkpt lat="45.2487" lon="5.76511">
        <ele>907.16</ele>
        <time>2021-04-02T14:18:42.000Z</time>
      </trkpt>
      <trkpt lat="45.24888" lon="5.76523">
        <ele>909.52</ele>
        <time>2021-04-02T14:18:47.000Z</time>
      </trkpt>
      <trkpt lat="45.24904" lon="5.76529">
        <ele>911.58</ele>
        <time>2021-04-02T14:18:52.000Z</time>
      </trkpt>
      <trkpt lat="45.24895" lon="5.76534">
        <ele>916.52</ele>
        <time>2021-04-02T14:18:59.000Z</time>
      </trkpt>
      <trkpt lat="45.24881" lon="5.76521">
        <ele>915.24</ele>
        <time>2021-04-02T14:19:04.000Z</time>
      </trkpt>
      <trkpt lat="45.24862" lon="5.76517">
        <ele>916.76</ele>
        <time>2021-04-02T14:19:09.000Z</time>
      </trkpt>
      <trkpt lat="45.24847" lon="5.76514">
        <ele>917.38</ele>
        <time>2021-04-02T14:19:14.000Z</time>
      </trkpt>
      <trkpt lat="45.24833" lon="5.7651">
        <ele>916.83</ele>
        <time>2021-04-02T14:19:19.000Z</time>
      </trkpt>
      <trkpt lat="45.2482" lon="5.76522">
        <ele>917.78</ele>
        <time>2021-04-02T14:19:24.000Z</time>
      </trkpt>
      <trkpt lat="45.24813" lon="5.76546">
        <ele>918.75</ele>
        <time>2021-04-02T14:19:29.000Z</time>
      </trkpt>
      <trkpt lat="45.24814" lon="5.76569">
        <ele>919.5</ele>
        <time>2021-04-02T14:19:34.000Z</time>
      </trkpt>
      <trkpt lat="45.24816" lon="5.76586">
        <ele>919.58</ele>
        <time>2021-04-02T14:19:39.000Z</time>
      </trkpt>
      <trkpt lat="45.24821" lon="5.76603">
        <ele>924.48</ele>
        <time>2021-04-02T14:19:44.000Z</time>
      </trkpt>
      <trkpt lat="45.24821" lon="5.76626">
        <ele>926.57</ele>
        <time>2021-04-02T14:19:49.000Z</time>
      </trkpt>
      <trkpt lat="45.24808" lon="5.7665">
        <ele>928.46</ele>
        <time>2021-04-02T14:19:54.000Z</time>
      </trkpt>
      <trkpt lat="45.24793" lon="5.76666">
        <ele>926.93</ele>
        <time>2021-04-02T14:19:59.000Z</time>
      </trkpt>
      <trkpt lat="45.2478" lon="5.76681">
        <ele>929.55</ele>
        <time>2021-04-02T14:20:04.000Z</time>
      </trkpt>
      <trkpt lat="45.24788" lon="5.76697">
        <ele>931.47</ele>
        <time>2021-04-02T14:20:09.000Z</time>
      </trkpt>
      <trkpt lat="45.24806" lon="5.76684">
        <ele>932.76</ele>
        <time>2021-04-02T14:20:14.000Z</time>
      </trkpt>
      <trkpt lat="45.2482" lon="5.76675">
        <ele>934.75</ele>
        <time>2021-04-02T14:20:19.000Z</time>
      </trkpt>
      <trkpt lat="45.24838" lon="5.76674">
        <ele>937.41</ele>
        <time>2021-04-02T14:20:24.000Z</time>
      </trkpt>
      <trkpt lat="45.24854" lon="5.76677">
        <ele>939.08</ele>
        <time>2021-04-02T14:20:29.000Z</time>
      </trkpt>
      <trkpt lat="45.24868" lon="5.76684">
        <ele>940.01</ele>
        <time>2021-04-02T14:20:34.000Z</time>
      </trkpt>
      <trkpt lat="45.24882" lon="5.76693">
        <ele>943.52</ele>
        <time>2021-04-02T14:20:39.000Z</time>
      </trkpt>
      <trkpt lat="45.24889" lon="5.76706">
        <ele>943.51</ele>
        <time>2021-04-02T14:20:44.000Z</time>
      </trkpt>
      <trkpt lat="45.24896" lon="5.76726">
        <ele>943.39</ele>
        <time>2021-04-02T14:20:49.000Z</time>
      </trkpt>
      <trkpt lat="45.24899" lon="5.76744">
        <ele>940.13</ele>
        <time>2021-04-02T14:20:54.000Z</time>
      </trkpt>
      <trkpt lat="45.24907" lon="5.76759">
        <ele>938.62</ele>
        <time>2021-04-02T14:20:59.000Z</time>
      </trkpt>
      <trkpt lat="45.24916" lon="5.76774">
        <ele>941.39</ele>
        <time>2021-04-02T14:21:04.000Z</time>
      </trkpt>
      <trkpt lat="45.2493" lon="5.76782">
        <ele>942.74</ele>
        <time>2021-04-02T14:21:09.000Z</time>
      </trkpt>
      <trkpt lat="45.24941" lon="5.76793">
        <ele>940.54</ele>
        <time>2021-04-02T14:21:14.000Z</time>
      </trkpt>
      <trkpt lat="45.24952" lon="5.76803">
        <ele>944.25</ele>
        <time>2021-04-02T14:21:19.000Z</time>
      </trkpt>
      <trkpt lat="45.24963" lon="5.7681">
        <ele>944.71</ele>
        <time>2021-04-02T14:21:24.000Z</time>
      </trkpt>
      <trkpt lat="45.24971" lon="5.76817">
        <ele>953.92</ele>
        <time>2021-04-02T14:21:36.000Z</time>
      </trkpt>
      <trkpt lat="45.24962" lon="5.76822">
        <ele>967.93</ele>
        <time>2021-04-02T14:25:24.000Z</time>
      </trkpt>
      <trkpt lat="45.24945" lon="5.7682">
        <ele>968.45</ele>
        <time>2021-04-02T14:25:29.000Z</time>
      </trkpt>
      <trkpt lat="45.2493" lon="5.7682">
        <ele>971.57</ele>
        <time>2021-04-02T14:25:34.000Z</time>
      </trkpt>
      <trkpt lat="45.24917" lon="5.76822">
        <ele>972.55</ele>
        <time>2021-04-02T14:25:39.000Z</time>
      </trkpt>
      <trkpt lat="45.24904" lon="5.76823">
        <ele>975.43</ele>
        <time>2021-04-02T14:25:44.000Z</time>
      </trkpt>
      <trkpt lat="45.24888" lon="5.76827">
        <ele>974.74</ele>
        <time>2021-04-02T14:25:49.000Z</time>
      </trkpt>
      <trkpt lat="45.24874" lon="5.76828">
        <ele>976.53</ele>
        <time>2021-04-02T14:25:54.000Z</time>
      </trkpt>
      <trkpt lat="45.24865" lon="5.76834">
        <ele>977.54</ele>
        <time>2021-04-02T14:25:59.000Z</time>
      </trkpt>
      <trkpt lat="45.24849" lon="5.76843">
        <ele>980.98</ele>
        <time>2021-04-02T14:26:04.000Z</time>
      </trkpt>
      <trkpt lat="45.24835" lon="5.76852">
        <ele>983.57</ele>
        <time>2021-04-02T14:26:09.000Z</time>
      </trkpt>
      <trkpt lat="45.24822" lon="5.76856">
        <ele>983.33</ele>
        <time>2021-04-02T14:26:14.000Z</time>
      </trkpt>
      <trkpt lat="45.24809" lon="5.76863">
        <ele>982.63</ele>
        <time>2021-04-02T14:26:19.000Z</time>
      </trkpt>
      <trkpt lat="45.24796" lon="5.76875">
        <ele>981.92</ele>
        <time>2021-04-02T14:26:24.000Z</time>
      </trkpt>
      <trkpt lat="45.24782" lon="5.7689">
        <ele>984.29</ele>
        <time>2021-04-02T14:26:29.000Z</time>
      </trkpt>
      <trkpt lat="45.24772" lon="5.76902">
        <ele>985.78</ele>
        <time>2021-04-02T14:26:34.000Z</time>
      </trkpt>
      <trkpt lat="45.24762" lon="5.76917">
        <ele>987.72</ele>
        <time>2021-04-02T14:26:39.000Z</time>
      </trkpt>
      <trkpt lat="45.24751" lon="5.76931">
        <ele>986.95</ele>
        <time>2021-04-02T14:26:44.000Z</time>
      </trkpt>
      <trkpt lat="45.24739" lon="5.7694">
        <ele>989.82</ele>
        <time>2021-04-02T14:26:49.000Z</time>
      </trkpt>
      <trkpt lat="45.24723" lon="5.76946">
        <ele>991.93</ele>
        <time>2021-04-02T14:26:54.000Z</time>
      </trkpt>
      <trkpt lat="45.24709" lon="5.76955">
        <ele>992</ele>
        <time>2021-04-02T14:26:59.000Z</time>
      </trkpt>
      <trkpt lat="45.24696" lon="5.76967">
        <ele>995.69</ele>
        <time>2021-04-02T14:27:04.000Z</time>
      </trkpt>
      <trkpt lat="45.24683" lon="5.76977">
        <ele>998.03</ele>
        <time>2021-04-02T14:27:09.000Z</time>
      </trkpt>
      <trkpt lat="45.24671" lon="5.76985">
        <ele>998.64</ele>
        <time>2021-04-02T14:27:14.000Z</time>
      </trkpt>
      <trkpt lat="45.24657" lon="5.7699">
        <ele>998.59</ele>
        <time>2021-04-02T14:27:19.000Z</time>
      </trkpt>
      <trkpt lat="45.24642" lon="5.76993">
        <ele>999.93</ele>
        <time>2021-04-02T14:27:24.000Z</time>
      </trkpt>
      <trkpt lat="45.2463" lon="5.76993">
        <ele>1001.78</ele>
        <time>2021-04-02T14:27:29.000Z</time>
      </trkpt>
      <trkpt lat="45.24615" lon="5.76993">
        <ele>1005.92</ele>
        <time>2021-04-02T14:27:34.000Z</time>
      </trkpt>
      <trkpt lat="45.24602" lon="5.76993">
        <ele>1005.05</ele>
        <time>2021-04-02T14:27:39.000Z</time>
      </trkpt>
      <trkpt lat="45.24588" lon="5.76994">
        <ele>1008.08</ele>
        <time>2021-04-02T14:27:44.000Z</time>
      </trkpt>
      <trkpt lat="45.24573" lon="5.76993">
        <ele>1007.95</ele>
        <time>2021-04-02T14:27:49.000Z</time>
      </trkpt>
      <trkpt lat="45.24558" lon="5.76985">
        <ele>1012.54</ele>
        <time>2021-04-02T14:27:54.000Z</time>
      </trkpt>
      <trkpt lat="45.24545" lon="5.76977">
        <ele>1014.34</ele>
        <time>2021-04-02T14:27:59.000Z</time>
      </trkpt>
      <trkpt lat="45.24531" lon="5.76969">
        <ele>1015.99</ele>
        <time>2021-04-02T14:28:04.000Z</time>
      </trkpt>
      <trkpt lat="45.24519" lon="5.76959">
        <ele>1018.37</ele>
        <time>2021-04-02T14:28:09.000Z</time>
      </trkpt>
      <trkpt lat="45.24507" lon="5.7695">
        <ele>1018.75</ele>
        <time>2021-04-02T14:28:14.000Z</time>
      </trkpt>
      <trkpt lat="45.24494" lon="5.76938">
        <ele>1017.39</ele>
        <time>2021-04-02T14:28:19.000Z</time>
      </trkpt>
      <trkpt lat="45.2448" lon="5.76924">
        <ele>1018.04</ele>
        <time>2021-04-02T14:28:24.000Z</time>
      </trkpt>
      <trkpt lat="45.24468" lon="5.76912">
        <ele>1017</ele>
        <time>2021-04-02T14:28:29.000Z</time>
      </trkpt>
      <trkpt lat="45.24457" lon="5.76895">
        <ele>1019.59</ele>
        <time>2021-04-02T14:28:34.000Z</time>
      </trkpt>
      <trkpt lat="45.24444" lon="5.76881">
        <ele>1020.35</ele>
        <time>2021-04-02T14:28:39.000Z</time>
      </trkpt>
      <trkpt lat="45.24434" lon="5.76876">
        <ele>1020.19</ele>
        <time>2021-04-02T14:28:44.000Z</time>
      </trkpt>
      <trkpt lat="45.24421" lon="5.76871">
        <ele>1021.26</ele>
        <time>2021-04-02T14:28:49.000Z</time>
      </trkpt>
      <trkpt lat="45.24411" lon="5.76862">
        <ele>1023.62</ele>
        <time>2021-04-02T14:28:54.000Z</time>
      </trkpt>
      <trkpt lat="45.24397" lon="5.76856">
        <ele>1028.53</ele>
        <time>2021-04-02T14:28:59.000Z</time>
      </trkpt>
      <trkpt lat="45.24384" lon="5.7685">
        <ele>1031.11</ele>
        <time>2021-04-02T14:29:04.000Z</time>
      </trkpt>
      <trkpt lat="45.24369" lon="5.76844">
        <ele>1031.19</ele>
        <time>2021-04-02T14:29:09.000Z</time>
      </trkpt>
      <trkpt lat="45.24358" lon="5.76837">
        <ele>1035.41</ele>
        <time>2021-04-02T14:29:14.000Z</time>
      </trkpt>
      <trkpt lat="45.2435" lon="5.76825">
        <ele>1040.22</ele>
        <time>2021-04-02T14:29:19.000Z</time>
      </trkpt>
      <trkpt lat="45.2434" lon="5.76809">
        <ele>1042.81</ele>
        <time>2021-04-02T14:29:24.000Z</time>
      </trkpt>
      <trkpt lat="45.2433" lon="5.7679">
        <ele>1045.96</ele>
        <time>2021-04-02T14:29:29.000Z</time>
      </trkpt>
      <trkpt lat="45.24318" lon="5.76786">
        <ele>1044.56</ele>
        <time>2021-04-02T14:29:34.000Z</time>
      </trkpt>
      <trkpt lat="45.24302" lon="5.76784">
        <ele>1047.41</ele>
        <time>2021-04-02T14:29:39.000Z</time>
      </trkpt>
      <trkpt lat="45.24292" lon="5.76774">
        <ele>1048.99</ele>
        <time>2021-04-02T14:29:44.000Z</time>
      </trkpt>
      <trkpt lat="45.2428" lon="5.76758">
        <ele>1047.21</ele>
        <time>2021-04-02T14:29:49.000Z</time>
      </trkpt>
      <trkpt lat="45.24268" lon="5.76746">
        <ele>1048.45</ele>
        <time>2021-04-02T14:29:54.000Z</time>
      </trkpt>
      <trkpt lat="45.24253" lon="5.76729">
        <ele>1044.34</ele>
        <time>2021-04-02T14:29:59.000Z</time>
      </trkpt>
      <trkpt lat="45.24239" lon="5.7672">
        <ele>1036.91</ele>
        <time>2021-04-02T14:30:04.000Z</time>
      </trkpt>
      <trkpt lat="45.24233" lon="5.76708">
        <ele>1036.93</ele>
        <time>2021-04-02T14:30:09.000Z</time>
      </trkpt>
      <trkpt lat="45.24223" lon="5.76696">
        <ele>1038.53</ele>
        <time>2021-04-02T14:30:14.000Z</time>
      </trkpt>
      <trkpt lat="45.24215" lon="5.76682">
        <ele>1045.66</ele>
        <time>2021-04-02T14:30:19.000Z</time>
      </trkpt>
      <trkpt lat="45.24204" lon="5.76662">
        <ele>1048.33</ele>
        <time>2021-04-02T14:30:24.000Z</time>
      </trkpt>
      <trkpt lat="45.24195" lon="5.76645">
        <ele>1049.85</ele>
        <time>2021-04-02T14:30:29.000Z</time>
      </trkpt>
      <trkpt lat="45.2419" lon="5.76631">
        <ele>1053.71</ele>
        <time>2021-04-02T14:30:34.000Z</time>
      </trkpt>
      <trkpt lat="45.24181" lon="5.76609">
        <ele>1055.72</ele>
        <time>2021-04-02T14:30:39.000Z</time>
      </trkpt>
      <trkpt lat="45.24185" lon="5.7659">
        <ele>1058.64</ele>
        <time>2021-04-02T14:30:44.000Z</time>
      </trkpt>
      <trkpt lat="45.24183" lon="5.76575">
        <ele>1062.78</ele>
        <time>2021-04-02T14:30:50.000Z</time>
      </trkpt>
      <trkpt lat="45.24173" lon="5.76562">
        <ele>1066.78</ele>
        <time>2021-04-02T14:30:55.000Z</time>
      </trkpt>
      <trkpt lat="45.24163" lon="5.76538">
        <ele>1070.04</ele>
        <time>2021-04-02T14:31:00.000Z</time>
      </trkpt>
      <trkpt lat="45.24155" lon="5.76523">
        <ele>1073.81</ele>
        <time>2021-04-02T14:31:05.000Z</time>
      </trkpt>
      <trkpt lat="45.24156" lon="5.76498">
        <ele>1083.07</ele>
        <time>2021-04-02T14:31:10.000Z</time>
      </trkpt>
      <trkpt lat="45.24143" lon="5.76474">
        <ele>1085.3</ele>
        <time>2021-04-02T14:31:15.000Z</time>
      </trkpt>
      <trkpt lat="45.24133" lon="5.76461">
        <ele>1085.5</ele>
        <time>2021-04-02T14:31:20.000Z</time>
      </trkpt>
      <trkpt lat="45.24128" lon="5.76408">
        <ele>1092.08</ele>
        <time>2021-04-02T14:31:25.000Z</time>
      </trkpt>
      <trkpt lat="45.24134" lon="5.76396">
        <ele>1091.28</ele>
        <time>2021-04-02T14:31:30.000Z</time>
      </trkpt>
      <trkpt lat="45.24144" lon="5.76383">
        <ele>1097.17</ele>
        <time>2021-04-02T14:31:35.000Z</time>
      </trkpt>
      <trkpt lat="45.2415" lon="5.76358">
        <ele>1104.67</ele>
        <time>2021-04-02T14:31:40.000Z</time>
      </trkpt>
      <trkpt lat="45.24152" lon="5.76341">
        <ele>1105.03</ele>
        <time>2021-04-02T14:31:45.000Z</time>
      </trkpt>
      <trkpt lat="45.24143" lon="5.76341">
        <ele>1109.49</ele>
        <time>2021-04-02T14:31:50.000Z</time>
      </trkpt>
      <trkpt lat="45.24132" lon="5.76362">
        <ele>1107.15</ele>
        <time>2021-04-02T14:31:55.000Z</time>
      </trkpt>
      <trkpt lat="45.24119" lon="5.76375">
        <ele>1107.44</ele>
        <time>2021-04-02T14:32:00.000Z</time>
      </trkpt>
      <trkpt lat="45.24112" lon="5.76384">
        <ele>1104.94</ele>
        <time>2021-04-02T14:32:10.000Z</time>
      </trkpt>
      <trkpt lat="45.24109" lon="5.76401">
        <ele>1104.61</ele>
        <time>2021-04-02T14:32:15.000Z</time>
      </trkpt>
      <trkpt lat="45.24104" lon="5.76427">
        <ele>1109.08</ele>
        <time>2021-04-02T14:32:20.000Z</time>
      </trkpt>
      <trkpt lat="45.24096" lon="5.7645">
        <ele>1108.01</ele>
        <time>2021-04-02T14:32:25.000Z</time>
      </trkpt>
      <trkpt lat="45.24084" lon="5.76477">
        <ele>1101.58</ele>
        <time>2021-04-02T14:32:30.000Z</time>
      </trkpt>
      <trkpt lat="45.24069" lon="5.76498">
        <ele>1105</ele>
        <time>2021-04-02T14:32:35.000Z</time>
      </trkpt>
      <trkpt lat="45.24063" lon="5.76512">
        <ele>1111.46</ele>
        <time>2021-04-02T14:32:40.000Z</time>
      </trkpt>
      <trkpt lat="45.24056" lon="5.76531">
        <ele>1113.8</ele>
        <time>2021-04-02T14:32:45.000Z</time>
      </trkpt>
      <trkpt lat="45.24053" lon="5.76549">
        <ele>1115.84</ele>
        <time>2021-04-02T14:32:50.000Z</time>
      </trkpt>
      <trkpt lat="45.2405" lon="5.76568">
        <ele>1117.69</ele>
        <time>2021-04-02T14:32:55.000Z</time>
      </trkpt>
      <trkpt lat="45.24053" lon="5.76585">
        <ele>1122.58</ele>
        <time>2021-04-02T14:33:00.000Z</time>
      </trkpt>
      <trkpt lat="45.24057" lon="5.76607">
        <ele>1128.78</ele>
        <time>2021-04-02T14:33:05.000Z</time>
      </trkpt>
      <trkpt lat="45.24056" lon="5.76629">
        <ele>1129.18</ele>
        <time>2021-04-02T14:33:10.000Z</time>
      </trkpt>
      <trkpt lat="45.2405" lon="5.76646">
        <ele>1134.27</ele>
        <time>2021-04-02T14:33:15.000Z</time>
      </trkpt>
      <trkpt lat="45.24043" lon="5.76662">
        <ele>1134.81</ele>
        <time>2021-04-02T14:33:20.000Z</time>
      </trkpt>
      <trkpt lat="45.24039" lon="5.76684">
        <ele>1136.18</ele>
        <time>2021-04-02T14:33:25.000Z</time>
      </trkpt>
      <trkpt lat="45.24039" lon="5.76704">
        <ele>1142.85</ele>
        <time>2021-04-02T14:33:30.000Z</time>
      </trkpt>
      <trkpt lat="45.2404" lon="5.7672">
        <ele>1144.64</ele>
        <time>2021-04-02T14:33:36.000Z</time>
      </trkpt>
      <trkpt lat="45.24046" lon="5.76736">
        <ele>1142.64</ele>
        <time>2021-04-02T14:33:41.000Z</time>
      </trkpt>
      <trkpt lat="45.24048" lon="5.76755">
        <ele>1144.29</ele>
        <time>2021-04-02T14:33:46.000Z</time>
      </trkpt>
      <trkpt lat="45.2405" lon="5.76772">
        <ele>1145.6</ele>
        <time>2021-04-02T14:33:51.000Z</time>
      </trkpt>
      <trkpt lat="45.2405" lon="5.76797">
        <ele>1148.23</ele>
        <time>2021-04-02T14:33:56.000Z</time>
      </trkpt>
      <trkpt lat="45.24047" lon="5.76816">
        <ele>1150.16</ele>
        <time>2021-04-02T14:34:01.000Z</time>
      </trkpt>
      <trkpt lat="45.24048" lon="5.7684">
        <ele>1152.82</ele>
        <time>2021-04-02T14:34:06.000Z</time>
      </trkpt>
      <trkpt lat="45.24053" lon="5.76866">
        <ele>1153.64</ele>
        <time>2021-04-02T14:34:11.000Z</time>
      </trkpt>
      <trkpt lat="45.24058" lon="5.76889">
        <ele>1155.27</ele>
        <time>2021-04-02T14:34:16.000Z</time>
      </trkpt>
      <trkpt lat="45.2406" lon="5.76908">
        <ele>1158.86</ele>
        <time>2021-04-02T14:34:21.000Z</time>
      </trkpt>
      <trkpt lat="45.24051" lon="5.76904">
        <ele>1153.27</ele>
        <time>2021-04-02T14:35:06.000Z</time>
      </trkpt>
      <trkpt lat="45.24032" lon="5.76885">
        <ele>1152.27</ele>
        <time>2021-04-02T14:35:11.000Z</time>
      </trkpt>
      <trkpt lat="45.24021" lon="5.76866">
        <ele>1156.33</ele>
        <time>2021-04-02T14:35:16.000Z</time>
      </trkpt>
      <trkpt lat="45.24011" lon="5.76854">
        <ele>1158.39</ele>
        <time>2021-04-02T14:35:21.000Z</time>
      </trkpt>
      <trkpt lat="45.23998" lon="5.76841">
        <ele>1160.02</ele>
        <time>2021-04-02T14:35:26.000Z</time>
      </trkpt>
      <trkpt lat="45.23985" lon="5.7683">
        <ele>1158.66</ele>
        <time>2021-04-02T14:35:31.000Z</time>
      </trkpt>
      <trkpt lat="45.23978" lon="5.76817">
        <ele>1164.87</ele>
        <time>2021-04-02T14:35:36.000Z</time>
      </trkpt>
      <trkpt lat="45.23973" lon="5.76798">
        <ele>1167.67</ele>
        <time>2021-04-02T14:35:41.000Z</time>
      </trkpt>
      <trkpt lat="45.23963" lon="5.76779">
        <ele>1152.3</ele>
        <time>2021-04-02T14:35:46.000Z</time>
      </trkpt>
      <trkpt lat="45.2395" lon="5.76757">
        <ele>1151.06</ele>
        <time>2021-04-02T14:35:51.000Z</time>
      </trkpt>
      <trkpt lat="45.23938" lon="5.76743">
        <ele>1157.79</ele>
        <time>2021-04-02T14:35:56.000Z</time>
      </trkpt>
      <trkpt lat="45.23927" lon="5.76727">
        <ele>1160</ele>
        <time>2021-04-02T14:36:01.000Z</time>
      </trkpt>
      <trkpt lat="45.23921" lon="5.76711">
        <ele>1159.16</ele>
        <time>2021-04-02T14:36:06.000Z</time>
      </trkpt>
      <trkpt lat="45.23916" lon="5.76696">
        <ele>1160.72</ele>
        <time>2021-04-02T14:36:11.000Z</time>
      </trkpt>
      <trkpt lat="45.23912" lon="5.76677">
        <ele>1165.97</ele>
        <time>2021-04-02T14:36:16.000Z</time>
      </trkpt>
      <trkpt lat="45.23906" lon="5.76665">
        <ele>1166.55</ele>
        <time>2021-04-02T14:36:21.000Z</time>
      </trkpt>
      <trkpt lat="45.23894" lon="5.76656">
        <ele>1166.76</ele>
        <time>2021-04-02T14:36:26.000Z</time>
      </trkpt>
      <trkpt lat="45.23885" lon="5.76644">
        <ele>1168.98</ele>
        <time>2021-04-02T14:36:31.000Z</time>
      </trkpt>
      <trkpt lat="45.23879" lon="5.76628">
        <ele>1171.19</ele>
        <time>2021-04-02T14:36:36.000Z</time>
      </trkpt>
      <trkpt lat="45.2387" lon="5.7661">
        <ele>1179.92</ele>
        <time>2021-04-02T14:36:41.000Z</time>
      </trkpt>
      <trkpt lat="45.23869" lon="5.76591">
        <ele>1184.56</ele>
        <time>2021-04-02T14:36:46.000Z</time>
      </trkpt>
      <trkpt lat="45.23858" lon="5.76574">
        <ele>1187.31</ele>
        <time>2021-04-02T14:36:51.000Z</time>
      </trkpt>
      <trkpt lat="45.23842" lon="5.76558">
        <ele>1192.1</ele>
        <time>2021-04-02T14:36:56.000Z</time>
      </trkpt>
      <trkpt lat="45.2383" lon="5.7654">
        <ele>1190.88</ele>
        <time>2021-04-02T14:37:01.000Z</time>
      </trkpt>
      <trkpt lat="45.23824" lon="5.76525">
        <ele>1195.03</ele>
        <time>2021-04-02T14:37:06.000Z</time>
      </trkpt>
      <trkpt lat="45.23822" lon="5.76506">
        <ele>1194.24</ele>
        <time>2021-04-02T14:37:11.000Z</time>
      </trkpt>
      <trkpt lat="45.2382" lon="5.76484">
        <ele>1199.13</ele>
        <time>2021-04-02T14:37:16.000Z</time>
      </trkpt>
      <trkpt lat="45.23818" lon="5.76465">
        <ele>1196.56</ele>
        <time>2021-04-02T14:37:21.000Z</time>
      </trkpt>
      <trkpt lat="45.23814" lon="5.76443">
        <ele>1200.44</ele>
        <time>2021-04-02T14:37:26.000Z</time>
      </trkpt>
      <trkpt lat="45.23806" lon="5.76423">
        <ele>1200.49</ele>
        <time>2021-04-02T14:37:31.000Z</time>
      </trkpt>
      <trkpt lat="45.23804" lon="5.76406">
        <ele>1203.07</ele>
        <time>2021-04-02T14:37:36.000Z</time>
      </trkpt>
      <trkpt lat="45.23803" lon="5.76388">
        <ele>1203.46</ele>
        <time>2021-04-02T14:37:41.000Z</time>
      </trkpt>
      <trkpt lat="45.23806" lon="5.76366">
        <ele>1203.95</ele>
        <time>2021-04-02T14:37:46.000Z</time>
      </trkpt>
      <trkpt lat="45.23811" lon="5.7635">
        <ele>1205.09</ele>
        <time>2021-04-02T14:37:51.000Z</time>
      </trkpt>
      <trkpt lat="45.23817" lon="5.7633">
        <ele>1205.51</ele>
        <time>2021-04-02T14:37:56.000Z</time>
      </trkpt>
      <trkpt lat="45.23818" lon="5.76303">
        <ele>1209.8</ele>
        <time>2021-04-02T14:38:01.000Z</time>
      </trkpt>
      <trkpt lat="45.23819" lon="5.76286">
        <ele>1213.27</ele>
        <time>2021-04-02T14:38:06.000Z</time>
      </trkpt>
      <trkpt lat="45.23818" lon="5.76262">
        <ele>1220.64</ele>
        <time>2021-04-02T14:38:11.000Z</time>
      </trkpt>
      <trkpt lat="45.23807" lon="5.76267">
        <ele>1223.61</ele>
        <time>2021-04-02T14:38:17.000Z</time>
      </trkpt>
      <trkpt lat="45.23793" lon="5.76282">
        <ele>1223.38</ele>
        <time>2021-04-02T14:38:22.000Z</time>
      </trkpt>
      <trkpt lat="45.23784" lon="5.76292">
        <ele>1222.93</ele>
        <time>2021-04-02T14:38:27.000Z</time>
      </trkpt>
      <trkpt lat="45.23774" lon="5.76302">
        <ele>1220.78</ele>
        <time>2021-04-02T14:38:32.000Z</time>
      </trkpt>
      <trkpt lat="45.23764" lon="5.76315">
        <ele>1220.88</ele>
        <time>2021-04-02T14:38:37.000Z</time>
      </trkpt>
      <trkpt lat="45.23755" lon="5.76323">
        <ele>1220.67</ele>
        <time>2021-04-02T14:38:42.000Z</time>
      </trkpt>
      <trkpt lat="45.23747" lon="5.76332">
        <ele>1225.2</ele>
        <time>2021-04-02T14:38:47.000Z</time>
      </trkpt>
      <trkpt lat="45.2374" lon="5.76347">
        <ele>1227.78</ele>
        <time>2021-04-02T14:38:52.000Z</time>
      </trkpt>
      <trkpt lat="45.23734" lon="5.76371">
        <ele>1231.52</ele>
        <time>2021-04-02T14:38:57.000Z</time>
      </trkpt>
      <trkpt lat="45.23731" lon="5.7639">
        <ele>1237.85</ele>
        <time>2021-04-02T14:39:02.000Z</time>
      </trkpt>
      <trkpt lat="45.23722" lon="5.76412">
        <ele>1235.65</ele>
        <time>2021-04-02T14:39:07.000Z</time>
      </trkpt>
      <trkpt lat="45.23715" lon="5.76433">
        <ele>1237.98</ele>
        <time>2021-04-02T14:39:12.000Z</time>
      </trkpt>
      <trkpt lat="45.23713" lon="5.76453">
        <ele>1238.44</ele>
        <time>2021-04-02T14:39:17.000Z</time>
      </trkpt>
      <trkpt lat="45.23707" lon="5.76476">
        <ele>1239.77</ele>
        <time>2021-04-02T14:39:22.000Z</time>
      </trkpt>
      <trkpt lat="45.23705" lon="5.765">
        <ele>1241.03</ele>
        <time>2021-04-02T14:39:27.000Z</time>
      </trkpt>
      <trkpt lat="45.23706" lon="5.76525">
        <ele>1243.62</ele>
        <time>2021-04-02T14:39:32.000Z</time>
      </trkpt>
      <trkpt lat="45.23697" lon="5.76529">
        <ele>1246.21</ele>
        <time>2021-04-02T14:39:38.000Z</time>
      </trkpt>
      <trkpt lat="45.2369" lon="5.76514">
        <ele>1247.7</ele>
        <time>2021-04-02T14:39:43.000Z</time>
      </trkpt>
      <trkpt lat="45.23687" lon="5.765">
        <ele>1246.31</ele>
        <time>2021-04-02T14:39:48.000Z</time>
      </trkpt>
      <trkpt lat="45.23678" lon="5.76481">
        <ele>1247.99</ele>
        <time>2021-04-02T14:39:53.000Z</time>
      </trkpt>
      <trkpt lat="45.2367" lon="5.7647">
        <ele>1253.61</ele>
        <time>2021-04-02T14:39:58.000Z</time>
      </trkpt>
      <trkpt lat="45.23666" lon="5.76453">
        <ele>1254.1</ele>
        <time>2021-04-02T14:40:03.000Z</time>
      </trkpt>
      <trkpt lat="45.23659" lon="5.76438">
        <ele>1258.24</ele>
        <time>2021-04-02T14:40:08.000Z</time>
      </trkpt>
      <trkpt lat="45.23654" lon="5.76424">
        <ele>1257.4</ele>
        <time>2021-04-02T14:40:13.000Z</time>
      </trkpt>
      <trkpt lat="45.23647" lon="5.76406">
        <ele>1256.19</ele>
        <time>2021-04-02T14:40:18.000Z</time>
      </trkpt>
      <trkpt lat="45.23641" lon="5.76387">
        <ele>1257.69</ele>
        <time>2021-04-02T14:40:23.000Z</time>
      </trkpt>
      <trkpt lat="45.2364" lon="5.76367">
        <ele>1260.94</ele>
        <time>2021-04-02T14:40:28.000Z</time>
      </trkpt>
      <trkpt lat="45.23638" lon="5.76341">
        <ele>1261.04</ele>
        <time>2021-04-02T14:40:33.000Z</time>
      </trkpt>
      <trkpt lat="45.2364" lon="5.76319">
        <ele>1259.55</ele>
        <time>2021-04-02T14:40:38.000Z</time>
      </trkpt>
      <trkpt lat="45.23643" lon="5.76292">
        <ele>1258.2</ele>
        <time>2021-04-02T14:40:43.000Z</time>
      </trkpt>
      <trkpt lat="45.23645" lon="5.76268">
        <ele>1260.59</ele>
        <time>2021-04-02T14:40:48.000Z</time>
      </trkpt>
      <trkpt lat="45.23635" lon="5.7627">
        <ele>1261</ele>
        <time>2021-04-02T14:40:53.000Z</time>
      </trkpt>
      <trkpt lat="45.23628" lon="5.76284">
        <ele>1266.7</ele>
        <time>2021-04-02T14:40:58.000Z</time>
      </trkpt>
      <trkpt lat="45.23619" lon="5.76297">
        <ele>1273.47</ele>
        <time>2021-04-02T14:41:03.000Z</time>
      </trkpt>
      <trkpt lat="45.23613" lon="5.76308">
        <ele>1281.62</ele>
        <time>2021-04-02T14:41:08.000Z</time>
      </trkpt>
      <trkpt lat="45.236" lon="5.76319">
        <ele>1280.85</ele>
        <time>2021-04-02T14:41:13.000Z</time>
      </trkpt>
      <trkpt lat="45.2359" lon="5.76331">
        <ele>1280.9</ele>
        <time>2021-04-02T14:41:18.000Z</time>
      </trkpt>
      <trkpt lat="45.2358" lon="5.76347">
        <ele>1279.73</ele>
        <time>2021-04-02T14:41:23.000Z</time>
      </trkpt>
      <trkpt lat="45.23575" lon="5.76365">
        <ele>1281.23</ele>
        <time>2021-04-02T14:41:28.000Z</time>
      </trkpt>
      <trkpt lat="45.23571" lon="5.76388">
        <ele>1283.35</ele>
        <time>2021-04-02T14:41:33.000Z</time>
      </trkpt>
      <trkpt lat="45.23563" lon="5.76411">
        <ele>1283.52</ele>
        <time>2021-04-02T14:41:38.000Z</time>
      </trkpt>
      <trkpt lat="45.23558" lon="5.76431">
        <ele>1287.48</ele>
        <time>2021-04-02T14:41:43.000Z</time>
      </trkpt>
      <trkpt lat="45.23556" lon="5.76449">
        <ele>1288.74</ele>
        <time>2021-04-02T14:41:48.000Z</time>
      </trkpt>
      <trkpt lat="45.23555" lon="5.7647">
        <ele>1289.72</ele>
        <time>2021-04-02T14:41:53.000Z</time>
      </trkpt>
      <trkpt lat="45.23551" lon="5.76489">
        <ele>1291.91</ele>
        <time>2021-04-02T14:41:58.000Z</time>
      </trkpt>
      <trkpt lat="45.23549" lon="5.7652">
        <ele>1298.97</ele>
        <time>2021-04-02T14:42:06.000Z</time>
      </trkpt>
      <trkpt lat="45.23539" lon="5.76536">
        <ele>1304.99</ele>
        <time>2021-04-02T14:42:11.000Z</time>
      </trkpt>
      <trkpt lat="45.23536" lon="5.7652">
        <ele>1306.31</ele>
        <time>2021-04-02T14:42:16.000Z</time>
      </trkpt>
      <trkpt lat="45.23537" lon="5.76505">
        <ele>1314.37</ele>
        <time>2021-04-02T14:42:22.000Z</time>
      </trkpt>
      <trkpt lat="45.23535" lon="5.76486">
        <ele>1315.54</ele>
        <time>2021-04-02T14:42:27.000Z</time>
      </trkpt>
      <trkpt lat="45.23527" lon="5.7647">
        <ele>1315.92</ele>
        <time>2021-04-02T14:42:32.000Z</time>
      </trkpt>
      <trkpt lat="45.23519" lon="5.76455">
        <ele>1319.05</ele>
        <time>2021-04-02T14:42:37.000Z</time>
      </trkpt>
      <trkpt lat="45.23511" lon="5.76434">
        <ele>1317.1</ele>
        <time>2021-04-02T14:42:42.000Z</time>
      </trkpt>
      <trkpt lat="45.23507" lon="5.76417">
        <ele>1319.27</ele>
        <time>2021-04-02T14:42:47.000Z</time>
      </trkpt>
      <trkpt lat="45.23501" lon="5.76401">
        <ele>1321.79</ele>
        <time>2021-04-02T14:42:52.000Z</time>
      </trkpt>
      <trkpt lat="45.23494" lon="5.76388">
        <ele>1321.34</ele>
        <time>2021-04-02T14:42:57.000Z</time>
      </trkpt>
      <trkpt lat="45.23492" lon="5.76375">
        <ele>1317.78</ele>
        <time>2021-04-02T14:43:08.000Z</time>
      </trkpt>
      <trkpt lat="45.23489" lon="5.76361">
        <ele>1326.54</ele>
        <time>2021-04-02T14:43:16.000Z</time>
      </trkpt>
      <trkpt lat="45.2349" lon="5.76374">
        <ele>1326.07</ele>
        <time>2021-04-02T14:46:45.000Z</time>
      </trkpt>
      <trkpt lat="45.23497" lon="5.76402">
        <ele>1326.16</ele>
        <time>2021-04-02T14:46:50.000Z</time>
      </trkpt>
      <trkpt lat="45.23504" lon="5.76438">
        <ele>1325.52</ele>
        <time>2021-04-02T14:46:55.000Z</time>
      </trkpt>
      <trkpt lat="45.23511" lon="5.76448">
        <ele>1324.64</ele>
        <time>2021-04-02T14:47:00.000Z</time>
      </trkpt>
      <trkpt lat="45.23522" lon="5.7645">
        <ele>1328.48</ele>
        <time>2021-04-02T14:47:05.000Z</time>
      </trkpt>
      <trkpt lat="45.23513" lon="5.76456">
        <ele>1327.16</ele>
        <time>2021-04-02T14:47:49.000Z</time>
      </trkpt>
      <trkpt lat="45.23505" lon="5.76467">
        <ele>1325.26</ele>
        <time>2021-04-02T14:47:54.000Z</time>
      </trkpt>
      <trkpt lat="45.23503" lon="5.76481">
        <ele>1330.92</ele>
        <time>2021-04-02T14:48:02.000Z</time>
      </trkpt>
      <trkpt lat="45.23535" lon="5.76614">
        <ele>1299.7</ele>
        <time>2021-04-02T14:49:36.000Z</time>
      </trkpt>
      <trkpt lat="45.23543" lon="5.76611">
        <ele>1309.01</ele>
        <time>2021-04-02T14:54:52.000Z</time>
      </trkpt>
      <trkpt lat="45.23545" lon="5.76597">
        <ele>1305.12</ele>
        <time>2021-04-02T14:56:12.000Z</time>
      </trkpt>
      <trkpt lat="45.23545" lon="5.76583">
        <ele>1304.79</ele>
        <time>2021-04-02T14:56:18.000Z</time>
      </trkpt>
      <trkpt lat="45.23543" lon="5.76565">
        <ele>1305.92</ele>
        <time>2021-04-02T14:56:23.000Z</time>
      </trkpt>
      <trkpt lat="45.23544" lon="5.76551">
        <ele>1310.56</ele>
        <time>2021-04-02T14:56:29.000Z</time>
      </trkpt>
      <trkpt lat="45.23547" lon="5.76539">
        <ele>1314.95</ele>
        <time>2021-04-02T14:56:36.000Z</time>
      </trkpt>
      <trkpt lat="45.23549" lon="5.76525">
        <ele>1313.32</ele>
        <time>2021-04-02T14:58:18.000Z</time>
      </trkpt>
      <trkpt lat="45.23551" lon="5.76481">
        <ele>1308.8</ele>
        <time>2021-04-02T14:58:23.000Z</time>
      </trkpt>
      <trkpt lat="45.2356" lon="5.76442">
        <ele>1306.97</ele>
        <time>2021-04-02T14:58:28.000Z</time>
      </trkpt>
      <trkpt lat="45.23565" lon="5.76383">
        <ele>1298.72</ele>
        <time>2021-04-02T14:58:33.000Z</time>
      </trkpt>
      <trkpt lat="45.23587" lon="5.76332">
        <ele>1292.24</ele>
        <time>2021-04-02T14:58:38.000Z</time>
      </trkpt>
      <trkpt lat="45.2362" lon="5.76285">
        <ele>1290.9</ele>
        <time>2021-04-02T14:58:43.000Z</time>
      </trkpt>
      <trkpt lat="45.23641" lon="5.7626">
        <ele>1291.64</ele>
        <time>2021-04-02T14:58:48.000Z</time>
      </trkpt>
      <trkpt lat="45.23644" lon="5.76278">
        <ele>1292.65</ele>
        <time>2021-04-02T14:58:53.000Z</time>
      </trkpt>
      <trkpt lat="45.23641" lon="5.76305">
        <ele>1291.74</ele>
        <time>2021-04-02T14:58:58.000Z</time>
      </trkpt>
      <trkpt lat="45.23648" lon="5.7634">
        <ele>1291.77</ele>
        <time>2021-04-02T14:59:03.000Z</time>
      </trkpt>
      <trkpt lat="45.23656" lon="5.76362">
        <ele>1289.35</ele>
        <time>2021-04-02T14:59:08.000Z</time>
      </trkpt>
      <trkpt lat="45.23665" lon="5.76412">
        <ele>1287.17</ele>
        <time>2021-04-02T14:59:13.000Z</time>
      </trkpt>
      <trkpt lat="45.2368" lon="5.76482">
        <ele>1285.19</ele>
        <time>2021-04-02T14:59:18.000Z</time>
      </trkpt>
      <trkpt lat="45.23697" lon="5.76532">
        <ele>1284.16</ele>
        <time>2021-04-02T14:59:23.000Z</time>
      </trkpt>
      <trkpt lat="45.23717" lon="5.76523">
        <ele>1285.12</ele>
        <time>2021-04-02T14:59:28.000Z</time>
      </trkpt>
      <trkpt lat="45.23715" lon="5.76466">
        <ele>1286.34</ele>
        <time>2021-04-02T14:59:33.000Z</time>
      </trkpt>
      <trkpt lat="45.23735" lon="5.76406">
        <ele>1285.96</ele>
        <time>2021-04-02T14:59:38.000Z</time>
      </trkpt>
      <trkpt lat="45.23762" lon="5.76351">
        <ele>1284.5</ele>
        <time>2021-04-02T14:59:43.000Z</time>
      </trkpt>
      <trkpt lat="45.23802" lon="5.76291">
        <ele>1284.11</ele>
        <time>2021-04-02T14:59:48.000Z</time>
      </trkpt>
      <trkpt lat="45.23838" lon="5.76257">
        <ele>1275.66</ele>
        <time>2021-04-02T14:59:53.000Z</time>
      </trkpt>
      <trkpt lat="45.2383" lon="5.76284">
        <ele>1260.54</ele>
        <time>2021-04-02T14:59:58.000Z</time>
      </trkpt>
      <trkpt lat="45.23819" lon="5.76331">
        <ele>1258.07</ele>
        <time>2021-04-02T15:00:03.000Z</time>
      </trkpt>
      <trkpt lat="45.23821" lon="5.76388">
        <ele>1258.59</ele>
        <time>2021-04-02T15:00:08.000Z</time>
      </trkpt>
      <trkpt lat="45.23827" lon="5.76448">
        <ele>1255.41</ele>
        <time>2021-04-02T15:00:13.000Z</time>
      </trkpt>
      <trkpt lat="45.23853" lon="5.7651">
        <ele>1249.81</ele>
        <time>2021-04-02T15:00:18.000Z</time>
      </trkpt>
      <trkpt lat="45.23875" lon="5.76573">
        <ele>1251.71</ele>
        <time>2021-04-02T15:00:23.000Z</time>
      </trkpt>
      <trkpt lat="45.23904" lon="5.76631">
        <ele>1244.89</ele>
        <time>2021-04-02T15:00:28.000Z</time>
      </trkpt>
      <trkpt lat="45.23927" lon="5.76698">
        <ele>1233.41</ele>
        <time>2021-04-02T15:00:33.000Z</time>
      </trkpt>
      <trkpt lat="45.23963" lon="5.76748">
        <ele>1221.62</ele>
        <time>2021-04-02T15:00:38.000Z</time>
      </trkpt>
      <trkpt lat="45.23993" lon="5.76816">
        <ele>1198.21</ele>
        <time>2021-04-02T15:00:43.000Z</time>
      </trkpt>
      <trkpt lat="45.24037" lon="5.76878">
        <ele>1182.3</ele>
        <time>2021-04-02T15:00:48.000Z</time>
      </trkpt>
      <trkpt lat="45.24056" lon="5.7692">
        <ele>1173.01</ele>
        <time>2021-04-02T15:00:53.000Z</time>
      </trkpt>
      <trkpt lat="45.2406" lon="5.76903">
        <ele>1170.19</ele>
        <time>2021-04-02T15:00:58.000Z</time>
      </trkpt>
      <trkpt lat="45.24055" lon="5.7689">
        <ele>1169.14</ele>
        <time>2021-04-02T15:01:03.000Z</time>
      </trkpt>
      <trkpt lat="45.24053" lon="5.76876">
        <ele>1166.49</ele>
        <time>2021-04-02T15:01:11.000Z</time>
      </trkpt>
      <trkpt lat="45.24059" lon="5.76825">
        <ele>1163.76</ele>
        <time>2021-04-02T15:01:16.000Z</time>
      </trkpt>
      <trkpt lat="45.24055" lon="5.76752">
        <ele>1154.42</ele>
        <time>2021-04-02T15:01:21.000Z</time>
      </trkpt>
      <trkpt lat="45.24047" lon="5.76693">
        <ele>1151.67</ele>
        <time>2021-04-02T15:01:26.000Z</time>
      </trkpt>
      <trkpt lat="45.24057" lon="5.76628">
        <ele>1148.73</ele>
        <time>2021-04-02T15:01:31.000Z</time>
      </trkpt>
      <trkpt lat="45.24055" lon="5.76556">
        <ele>1143.94</ele>
        <time>2021-04-02T15:01:36.000Z</time>
      </trkpt>
      <trkpt lat="45.24078" lon="5.76489">
        <ele>1143.05</ele>
        <time>2021-04-02T15:01:41.000Z</time>
      </trkpt>
      <trkpt lat="45.24092" lon="5.76426">
        <ele>1141.27</ele>
        <time>2021-04-02T15:01:46.000Z</time>
      </trkpt>
      <trkpt lat="45.24115" lon="5.76387">
        <ele>1138.9</ele>
        <time>2021-04-02T15:01:51.000Z</time>
      </trkpt>
      <trkpt lat="45.24142" lon="5.76345">
        <ele>1134.06</ele>
        <time>2021-04-02T15:01:56.000Z</time>
      </trkpt>
      <trkpt lat="45.24158" lon="5.76358">
        <ele>1128.65</ele>
        <time>2021-04-02T15:02:01.000Z</time>
      </trkpt>
      <trkpt lat="45.24154" lon="5.76397">
        <ele>1124.82</ele>
        <time>2021-04-02T15:02:06.000Z</time>
      </trkpt>
      <trkpt lat="45.24152" lon="5.76434">
        <ele>1118</ele>
        <time>2021-04-02T15:02:11.000Z</time>
      </trkpt>
      <trkpt lat="45.2416" lon="5.76493">
        <ele>1115.59</ele>
        <time>2021-04-02T15:02:16.000Z</time>
      </trkpt>
      <trkpt lat="45.24174" lon="5.76544">
        <ele>1109.78</ele>
        <time>2021-04-02T15:02:21.000Z</time>
      </trkpt>
      <trkpt lat="45.24192" lon="5.76604">
        <ele>1105.22</ele>
        <time>2021-04-02T15:02:26.000Z</time>
      </trkpt>
      <trkpt lat="45.24215" lon="5.76664">
        <ele>1101.15</ele>
        <time>2021-04-02T15:02:31.000Z</time>
      </trkpt>
      <trkpt lat="45.24247" lon="5.76714">
        <ele>1091.71</ele>
        <time>2021-04-02T15:02:36.000Z</time>
      </trkpt>
      <trkpt lat="45.24279" lon="5.76766">
        <ele>1077.38</ele>
        <time>2021-04-02T15:02:41.000Z</time>
      </trkpt>
      <trkpt lat="45.24328" lon="5.76809">
        <ele>1076.75</ele>
        <time>2021-04-02T15:02:46.000Z</time>
      </trkpt>
      <trkpt lat="45.24355" lon="5.76853">
        <ele>1067.51</ele>
        <time>2021-04-02T15:02:51.000Z</time>
      </trkpt>
      <trkpt lat="45.24403" lon="5.76881">
        <ele>1062.19</ele>
        <time>2021-04-02T15:02:56.000Z</time>
      </trkpt>
      <trkpt lat="45.24444" lon="5.76899">
        <ele>1055.53</ele>
        <time>2021-04-02T15:03:01.000Z</time>
      </trkpt>
      <trkpt lat="45.24476" lon="5.76923">
        <ele>1049.07</ele>
        <time>2021-04-02T15:03:06.000Z</time>
      </trkpt>
      <trkpt lat="45.24517" lon="5.76956">
        <ele>1045.63</ele>
        <time>2021-04-02T15:03:11.000Z</time>
      </trkpt>
      <trkpt lat="45.24563" lon="5.76986">
        <ele>1041.51</ele>
        <time>2021-04-02T15:03:16.000Z</time>
      </trkpt>
      <trkpt lat="45.2462" lon="5.76987">
        <ele>1038.4</ele>
        <time>2021-04-02T15:03:21.000Z</time>
      </trkpt>
      <trkpt lat="45.24678" lon="5.7697">
        <ele>1032.93</ele>
        <time>2021-04-02T15:03:26.000Z</time>
      </trkpt>
      <trkpt lat="45.24729" lon="5.76927">
        <ele>1028.68</ele>
        <time>2021-04-02T15:03:31.000Z</time>
      </trkpt>
      <trkpt lat="45.24776" lon="5.76882">
        <ele>1021.48</ele>
        <time>2021-04-02T15:03:36.000Z</time>
      </trkpt>
      <trkpt lat="45.24818" lon="5.76846">
        <ele>1017.25</ele>
        <time>2021-04-02T15:03:41.000Z</time>
      </trkpt>
      <trkpt lat="45.24867" lon="5.76817">
        <ele>1009.29</ele>
        <time>2021-04-02T15:03:46.000Z</time>
      </trkpt>
      <trkpt lat="45.24919" lon="5.76803">
        <ele>1007.45</ele>
        <time>2021-04-02T15:03:51.000Z</time>
      </trkpt>
      <trkpt lat="45.24953" lon="5.7681">
        <ele>1000.38</ele>
        <time>2021-04-02T15:03:56.000Z</time>
      </trkpt>
      <trkpt lat="45.24976" lon="5.76823">
        <ele>994.82</ele>
        <time>2021-04-02T15:04:01.000Z</time>
      </trkpt>
      <trkpt lat="45.24965" lon="5.76817">
        <ele>980.95</ele>
        <time>2021-04-02T15:04:44.000Z</time>
      </trkpt>
      <trkpt lat="45.24936" lon="5.76797">
        <ele>979.74</ele>
        <time>2021-04-02T15:04:49.000Z</time>
      </trkpt>
      <trkpt lat="45.24911" lon="5.76767">
        <ele>972.63</ele>
        <time>2021-04-02T15:04:54.000Z</time>
      </trkpt>
      <trkpt lat="45.24897" lon="5.76735">
        <ele>966.28</ele>
        <time>2021-04-02T15:04:59.000Z</time>
      </trkpt>
      <trkpt lat="45.24891" lon="5.76716">
        <ele>963.22</ele>
        <time>2021-04-02T15:05:04.000Z</time>
      </trkpt>
      <trkpt lat="45.24883" lon="5.76703">
        <ele>962.19</ele>
        <time>2021-04-02T15:05:09.000Z</time>
      </trkpt>
      <trkpt lat="45.24871" lon="5.76694">
        <ele>964.28</ele>
        <time>2021-04-02T15:05:14.000Z</time>
      </trkpt>
      <trkpt lat="45.2486" lon="5.76684">
        <ele>962.25</ele>
        <time>2021-04-02T15:05:19.000Z</time>
      </trkpt>
      <trkpt lat="45.24845" lon="5.76678">
        <ele>962.31</ele>
        <time>2021-04-02T15:05:24.000Z</time>
      </trkpt>
      <trkpt lat="45.24807" lon="5.76682">
        <ele>964.05</ele>
        <time>2021-04-02T15:05:29.000Z</time>
      </trkpt>
      <trkpt lat="45.24768" lon="5.76701">
        <ele>962.34</ele>
        <time>2021-04-02T15:05:34.000Z</time>
      </trkpt>
      <trkpt lat="45.24774" lon="5.76668">
        <ele>958.22</ele>
        <time>2021-04-02T15:05:39.000Z</time>
      </trkpt>
      <trkpt lat="45.24804" lon="5.76607">
        <ele>955.81</ele>
        <time>2021-04-02T15:05:44.000Z</time>
      </trkpt>
      <trkpt lat="45.24798" lon="5.76548">
        <ele>951.08</ele>
        <time>2021-04-02T15:05:49.000Z</time>
      </trkpt>
      <trkpt lat="45.24819" lon="5.76516">
        <ele>952.18</ele>
        <time>2021-04-02T15:05:54.000Z</time>
      </trkpt>
      <trkpt lat="45.2486" lon="5.76519">
        <ele>947.09</ele>
        <time>2021-04-02T15:05:59.000Z</time>
      </trkpt>
      <trkpt lat="45.24886" lon="5.7653">
        <ele>948.71</ele>
        <time>2021-04-02T15:06:04.000Z</time>
      </trkpt>
      <trkpt lat="45.24894" lon="5.76536">
        <ele>946.07</ele>
        <time>2021-04-02T15:06:13.000Z</time>
      </trkpt>
      <trkpt lat="45.24905" lon="5.76534">
        <ele>957.63</ele>
        <time>2021-04-02T15:06:19.000Z</time>
      </trkpt>
      <trkpt lat="45.24907" lon="5.76519">
        <ele>956.39</ele>
        <time>2021-04-02T15:06:24.000Z</time>
      </trkpt>
      <trkpt lat="45.24882" lon="5.76514">
        <ele>948.75</ele>
        <time>2021-04-02T15:06:29.000Z</time>
      </trkpt>
      <trkpt lat="45.24857" lon="5.76492">
        <ele>941.34</ele>
        <time>2021-04-02T15:06:34.000Z</time>
      </trkpt>
      <trkpt lat="45.24822" lon="5.76462">
        <ele>937.67</ele>
        <time>2021-04-02T15:06:39.000Z</time>
      </trkpt>
      <trkpt lat="45.24774" lon="5.76429">
        <ele>936.9</ele>
        <time>2021-04-02T15:06:44.000Z</time>
      </trkpt>
      <trkpt lat="45.24728" lon="5.76398">
        <ele>935.53</ele>
        <time>2021-04-02T15:06:49.000Z</time>
      </trkpt>
      <trkpt lat="45.24668" lon="5.76417">
        <ele>929.76</ele>
        <time>2021-04-02T15:06:54.000Z</time>
      </trkpt>
      <trkpt lat="45.2462" lon="5.76458">
        <ele>926.94</ele>
        <time>2021-04-02T15:06:59.000Z</time>
      </trkpt>
      <trkpt lat="45.24563" lon="5.76467">
        <ele>920.01</ele>
        <time>2021-04-02T15:07:04.000Z</time>
      </trkpt>
      <trkpt lat="45.24507" lon="5.76413">
        <ele>916.79</ele>
        <time>2021-04-02T15:07:09.000Z</time>
      </trkpt>
      <trkpt lat="45.24466" lon="5.76337">
        <ele>910.46</ele>
        <time>2021-04-02T15:07:14.000Z</time>
      </trkpt>
      <trkpt lat="45.24437" lon="5.76243">
        <ele>908.79</ele>
        <time>2021-04-02T15:07:19.000Z</time>
      </trkpt>
      <trkpt lat="45.24396" lon="5.76155">
        <ele>910.17</ele>
        <time>2021-04-02T15:07:24.000Z</time>
      </trkpt>
      <trkpt lat="45.24386" lon="5.7603">
        <ele>902.93</ele>
        <time>2021-04-02T15:07:29.000Z</time>
      </trkpt>
      <trkpt lat="45.24387" lon="5.75913">
        <ele>899.57</ele>
        <time>2021-04-02T15:07:34.000Z</time>
      </trkpt>
      <trkpt lat="45.24376" lon="5.75825">
        <ele>890.59</ele>
        <time>2021-04-02T15:07:39.000Z</time>
      </trkpt>
      <trkpt lat="45.24329" lon="5.7577">
        <ele>889.68</ele>
        <time>2021-04-02T15:07:44.000Z</time>
      </trkpt>
      <trkpt lat="45.24287" lon="5.75718">
        <ele>878.92</ele>
        <time>2021-04-02T15:07:49.000Z</time>
      </trkpt>
      <trkpt lat="45.24249" lon="5.75658">
        <ele>876.22</ele>
        <time>2021-04-02T15:07:54.000Z</time>
      </trkpt>
      <trkpt lat="45.24226" lon="5.75572">
        <ele>870.97</ele>
        <time>2021-04-02T15:07:59.000Z</time>
      </trkpt>
      <trkpt lat="45.24203" lon="5.75476">
        <ele>865.18</ele>
        <time>2021-04-02T15:08:04.000Z</time>
      </trkpt>
      <trkpt lat="45.24166" lon="5.75393">
        <ele>856.39</ele>
        <time>2021-04-02T15:08:09.000Z</time>
      </trkpt>
      <trkpt lat="45.24112" lon="5.75338">
        <ele>850.36</ele>
        <time>2021-04-02T15:08:14.000Z</time>
      </trkpt>
      <trkpt lat="45.24036" lon="5.75302">
        <ele>844.63</ele>
        <time>2021-04-02T15:08:19.000Z</time>
      </trkpt>
      <trkpt lat="45.23976" lon="5.75262">
        <ele>842.98</ele>
        <time>2021-04-02T15:08:24.000Z</time>
      </trkpt>
      <trkpt lat="45.23925" lon="5.75223">
        <ele>844.82</ele>
        <time>2021-04-02T15:08:29.000Z</time>
      </trkpt>
      <trkpt lat="45.23874" lon="5.75184">
        <ele>844.58</ele>
        <time>2021-04-02T15:08:34.000Z</time>
      </trkpt>
      <trkpt lat="45.23822" lon="5.75164">
        <ele>839.9</ele>
        <time>2021-04-02T15:08:39.000Z</time>
      </trkpt>
      <trkpt lat="45.23774" lon="5.75146">
        <ele>836.22</ele>
        <time>2021-04-02T15:08:44.000Z</time>
      </trkpt>
      <trkpt lat="45.23727" lon="5.75123">
        <ele>833.48</ele>
        <time>2021-04-02T15:08:49.000Z</time>
      </trkpt>
      <trkpt lat="45.23691" lon="5.75121">
        <ele>829.06</ele>
        <time>2021-04-02T15:08:54.000Z</time>
      </trkpt>
      <trkpt lat="45.23646" lon="5.75117">
        <ele>831.02</ele>
        <time>2021-04-02T15:08:59.000Z</time>
      </trkpt>
      <trkpt lat="45.23594" lon="5.75092">
        <ele>835.41</ele>
        <time>2021-04-02T15:09:04.000Z</time>
      </trkpt>
      <trkpt lat="45.23549" lon="5.75071">
        <ele>827.63</ele>
        <time>2021-04-02T15:09:09.000Z</time>
      </trkpt>
      <trkpt lat="45.23499" lon="5.75069">
        <ele>821.9</ele>
        <time>2021-04-02T15:09:14.000Z</time>
      </trkpt>
      <trkpt lat="45.23471" lon="5.75079">
        <ele>818.25</ele>
        <time>2021-04-02T15:09:19.000Z</time>
      </trkpt>
      <trkpt lat="45.23468" lon="5.75091">
        <ele>802.88</ele>
        <time>2021-04-02T15:09:52.000Z</time>
      </trkpt>
      <trkpt lat="45.2345" lon="5.75097">
        <ele>800.81</ele>
        <time>2021-04-02T15:09:57.000Z</time>
      </trkpt>
      <trkpt lat="45.23413" lon="5.75109">
        <ele>788.89</ele>
        <time>2021-04-02T15:10:02.000Z</time>
      </trkpt>
      <trkpt lat="45.23369" lon="5.75106">
        <ele>789.49</ele>
        <time>2021-04-02T15:10:07.000Z</time>
      </trkpt>
      <trkpt lat="45.23321" lon="5.75113">
        <ele>783.3</ele>
        <time>2021-04-02T15:10:12.000Z</time>
      </trkpt>
      <trkpt lat="45.23263" lon="5.75113">
        <ele>777.94</ele>
        <time>2021-04-02T15:10:17.000Z</time>
      </trkpt>
      <trkpt lat="45.232" lon="5.75107">
        <ele>770.18</ele>
        <time>2021-04-02T15:10:22.000Z</time>
      </trkpt>
      <trkpt lat="45.2314" lon="5.75138">
        <ele>760.75</ele>
        <time>2021-04-02T15:10:27.000Z</time>
      </trkpt>
      <trkpt lat="45.2309" lon="5.752">
        <ele>755.98</ele>
        <time>2021-04-02T15:10:32.000Z</time>
      </trkpt>
      <trkpt lat="45.23048" lon="5.7527">
        <ele>747.75</ele>
        <time>2021-04-02T15:10:37.000Z</time>
      </trkpt>
      <trkpt lat="45.23035" lon="5.7532">
        <ele>745.99</ele>
        <time>2021-04-02T15:10:42.000Z</time>
      </trkpt>
      <trkpt lat="45.23042" lon="5.75395">
        <ele>735.34</ele>
        <time>2021-04-02T15:10:47.000Z</time>
      </trkpt>
      <trkpt lat="45.2301" lon="5.75479">
        <ele>730.48</ele>
        <time>2021-04-02T15:10:52.000Z</time>
      </trkpt>
      <trkpt lat="45.22939" lon="5.75471">
        <ele>722.89</ele>
        <time>2021-04-02T15:10:57.000Z</time>
      </trkpt>
      <trkpt lat="45.22932" lon="5.7551">
        <ele>712.31</ele>
        <time>2021-04-02T15:11:02.000Z</time>
      </trkpt>
      <trkpt lat="45.22941" lon="5.75579">
        <ele>708.07</ele>
        <time>2021-04-02T15:11:07.000Z</time>
      </trkpt>
      <trkpt lat="45.22915" lon="5.75645">
        <ele>706.68</ele>
        <time>2021-04-02T15:11:12.000Z</time>
      </trkpt>
      <trkpt lat="45.22907" lon="5.75695">
        <ele>706.51</ele>
        <time>2021-04-02T15:11:17.000Z</time>
      </trkpt>
      <trkpt lat="45.22887" lon="5.75738">
        <ele>701.33</ele>
        <time>2021-04-02T15:11:22.000Z</time>
      </trkpt>
      <trkpt lat="45.2285" lon="5.75786">
        <ele>695.96</ele>
        <time>2021-04-02T15:11:27.000Z</time>
      </trkpt>
      <trkpt lat="45.22806" lon="5.75832">
        <ele>694.1</ele>
        <time>2021-04-02T15:11:32.000Z</time>
      </trkpt>
      <trkpt lat="45.22758" lon="5.75867">
        <ele>690.68</ele>
        <time>2021-04-02T15:11:37.000Z</time>
      </trkpt>
      <trkpt lat="45.22709" lon="5.7588">
        <ele>686.8</ele>
        <time>2021-04-02T15:11:42.000Z</time>
      </trkpt>
      <trkpt lat="45.22654" lon="5.75886">
        <ele>680.86</ele>
        <time>2021-04-02T15:11:47.000Z</time>
      </trkpt>
      <trkpt lat="45.22602" lon="5.75915">
        <ele>672.44</ele>
        <time>2021-04-02T15:11:52.000Z</time>
      </trkpt>
      <trkpt lat="45.22601" lon="5.75996">
        <ele>663.91</ele>
        <time>2021-04-02T15:11:57.000Z</time>
      </trkpt>
      <trkpt lat="45.22581" lon="5.7606">
        <ele>659.91</ele>
        <time>2021-04-02T15:12:02.000Z</time>
      </trkpt>
      <trkpt lat="45.2254" lon="5.76112">
        <ele>654.68</ele>
        <time>2021-04-02T15:12:07.000Z</time>
      </trkpt>
      <trkpt lat="45.22498" lon="5.76161">
        <ele>645.67</ele>
        <time>2021-04-02T15:12:12.000Z</time>
      </trkpt>
      <trkpt lat="45.22493" lon="5.76235">
        <ele>637.82</ele>
        <time>2021-04-02T15:12:17.000Z</time>
      </trkpt>
      <trkpt lat="45.2249" lon="5.7631">
        <ele>630</ele>
        <time>2021-04-02T15:12:22.000Z</time>
      </trkpt>
      <trkpt lat="45.22503" lon="5.76387">
        <ele>629.83</ele>
        <time>2021-04-02T15:12:27.000Z</time>
      </trkpt>
      <trkpt lat="45.22519" lon="5.76453">
        <ele>621.83</ele>
        <time>2021-04-02T15:12:32.000Z</time>
      </trkpt>
      <trkpt lat="45.22555" lon="5.765">
        <ele>615.87</ele>
        <time>2021-04-02T15:12:37.000Z</time>
      </trkpt>
      <trkpt lat="45.22605" lon="5.76527">
        <ele>611.87</ele>
        <time>2021-04-02T15:12:42.000Z</time>
      </trkpt>
      <trkpt lat="45.22658" lon="5.76539">
        <ele>603.45</ele>
        <time>2021-04-02T15:12:47.000Z</time>
      </trkpt>
      <trkpt lat="45.22712" lon="5.7656">
        <ele>595.52</ele>
        <time>2021-04-02T15:12:52.000Z</time>
      </trkpt>
      <trkpt lat="45.22743" lon="5.76622">
        <ele>597.11</ele>
        <time>2021-04-02T15:12:57.000Z</time>
      </trkpt>
      <trkpt lat="45.2276" lon="5.76707">
        <ele>590.05</ele>
        <time>2021-04-02T15:13:02.000Z</time>
      </trkpt>
      <trkpt lat="45.22784" lon="5.76775">
        <ele>585.64</ele>
        <time>2021-04-02T15:13:07.000Z</time>
      </trkpt>
      <trkpt lat="45.22812" lon="5.76827">
        <ele>581.96</ele>
        <time>2021-04-02T15:13:12.000Z</time>
      </trkpt>
      <trkpt lat="45.22827" lon="5.76874">
        <ele>575.88</ele>
        <time>2021-04-02T15:13:17.000Z</time>
      </trkpt>
      <trkpt lat="45.22806" lon="5.76927">
        <ele>572.25</ele>
        <time>2021-04-02T15:13:22.000Z</time>
      </trkpt>
      <trkpt lat="45.2276" lon="5.76913">
        <ele>564.87</ele>
        <time>2021-04-02T15:13:27.000Z</time>
      </trkpt>
      <trkpt lat="45.22724" lon="5.76879">
        <ele>562.04</ele>
        <time>2021-04-02T15:13:32.000Z</time>
      </trkpt>
      <trkpt lat="45.22692" lon="5.76843">
        <ele>555.28</ele>
        <time>2021-04-02T15:13:37.000Z</time>
      </trkpt>
      <trkpt lat="45.22648" lon="5.76851">
        <ele>550.48</ele>
        <time>2021-04-02T15:13:42.000Z</time>
      </trkpt>
      <trkpt lat="45.22605" lon="5.76857">
        <ele>546.9</ele>
        <time>2021-04-02T15:13:47.000Z</time>
      </trkpt>
      <trkpt lat="45.22555" lon="5.76839">
        <ele>541.01</ele>
        <time>2021-04-02T15:13:52.000Z</time>
      </trkpt>
      <trkpt lat="45.22513" lon="5.76832">
        <ele>535.24</ele>
        <time>2021-04-02T15:13:57.000Z</time>
      </trkpt>
      <trkpt lat="45.22472" lon="5.76814">
        <ele>530.79</ele>
        <time>2021-04-02T15:14:02.000Z</time>
      </trkpt>
      <trkpt lat="45.22436" lon="5.76793">
        <ele>524</ele>
        <time>2021-04-02T15:14:07.000Z</time>
      </trkpt>
      <trkpt lat="45.22408" lon="5.7679">
        <ele>519.46</ele>
        <time>2021-04-02T15:14:12.000Z</time>
      </trkpt>
      <trkpt lat="45.22387" lon="5.7678">
        <ele>515.1</ele>
        <time>2021-04-02T15:14:17.000Z</time>
      </trkpt>
      <trkpt lat="45.22364" lon="5.76774">
        <ele>511.9</ele>
        <time>2021-04-02T15:14:22.000Z</time>
      </trkpt>
      <trkpt lat="45.22352" lon="5.76781">
        <ele>509.46</ele>
        <time>2021-04-02T15:14:27.000Z</time>
      </trkpt>
      <trkpt lat="45.2236" lon="5.76795">
        <ele>509.09</ele>
        <time>2021-04-02T15:14:32.000Z</time>
      </trkpt>
      <trkpt lat="45.22376" lon="5.76805">
        <ele>508.11</ele>
        <time>2021-04-02T15:14:37.000Z</time>
      </trkpt>
      <trkpt lat="45.22401" lon="5.76819">
        <ele>507.79</ele>
        <time>2021-04-02T15:14:42.000Z</time>
      </trkpt>
      <trkpt lat="45.2243" lon="5.76838">
        <ele>507.52</ele>
        <time>2021-04-02T15:14:47.000Z</time>
      </trkpt>
      <trkpt lat="45.22455" lon="5.7688">
        <ele>505.49</ele>
        <time>2021-04-02T15:14:52.000Z</time>
      </trkpt>
      <trkpt lat="45.22472" lon="5.76923">
        <ele>500.14</ele>
        <time>2021-04-02T15:14:57.000Z</time>
      </trkpt>
      <trkpt lat="45.22495" lon="5.76949">
        <ele>502.26</ele>
        <time>2021-04-02T15:15:02.000Z</time>
      </trkpt>
      <trkpt lat="45.22509" lon="5.7697">
        <ele>503.51</ele>
        <time>2021-04-02T15:15:07.000Z</time>
      </trkpt>
      <trkpt lat="45.22519" lon="5.76979">
        <ele>501.16</ele>
        <time>2021-04-02T15:15:12.000Z</time>
      </trkpt>
      <trkpt lat="45.2253" lon="5.76987">
        <ele>502.97</ele>
        <time>2021-04-02T15:15:17.000Z</time>
      </trkpt>
      <trkpt lat="45.22539" lon="5.7701">
        <ele>501.04</ele>
        <time>2021-04-02T15:15:22.000Z</time>
      </trkpt>
      <trkpt lat="45.22551" lon="5.77065">
        <ele>503.64</ele>
        <time>2021-04-02T15:15:27.000Z</time>
      </trkpt>
      <trkpt lat="45.22518" lon="5.7711">
        <ele>505.31</ele>
        <time>2021-04-02T15:15:32.000Z</time>
      </trkpt>
      <trkpt lat="45.22492" lon="5.77151">
        <ele>500.04</ele>
        <time>2021-04-02T15:15:37.000Z</time>
      </trkpt>
      <trkpt lat="45.22483" lon="5.77188">
        <ele>500.73</ele>
        <time>2021-04-02T15:15:42.000Z</time>
      </trkpt>
      <trkpt lat="45.22488" lon="5.77199">
        <ele>493.05</ele>
        <time>2021-04-02T15:15:52.000Z</time>
      </trkpt>
      <trkpt lat="45.22492" lon="5.77219">
        <ele>492</ele>
        <time>2021-04-02T15:15:57.000Z</time>
      </trkpt>
      <trkpt lat="45.22501" lon="5.77237">
        <ele>494.35</ele>
        <time>2021-04-02T15:16:02.000Z</time>
      </trkpt>
      <trkpt lat="45.22513" lon="5.77242">
        <ele>494.54</ele>
        <time>2021-04-02T15:16:07.000Z</time>
      </trkpt>
      <trkpt lat="45.22526" lon="5.7724">
        <ele>497.24</ele>
        <time>2021-04-02T15:16:12.000Z</time>
      </trkpt>
      <trkpt lat="45.22538" lon="5.77238">
        <ele>500</ele>
        <time>2021-04-02T15:16:17.000Z</time>
      </trkpt>
      <trkpt lat="45.22548" lon="5.77237">
        <ele>499.83</ele>
        <time>2021-04-02T15:16:22.000Z</time>
      </trkpt>
      <trkpt lat="45.22577" lon="5.77239">
        <ele>495.88</ele>
        <time>2021-04-02T15:16:27.000Z</time>
      </trkpt>
      <trkpt lat="45.22613" lon="5.77257">
        <ele>490.47</ele>
        <time>2021-04-02T15:16:32.000Z</time>
      </trkpt>
      <trkpt lat="45.22648" lon="5.77292">
        <ele>482.87</ele>
        <time>2021-04-02T15:16:37.000Z</time>
      </trkpt>
      <trkpt lat="45.22669" lon="5.77349">
        <ele>475.69</ele>
        <time>2021-04-02T15:16:42.000Z</time>
      </trkpt>
      <trkpt lat="45.22685" lon="5.7742">
        <ele>466.95</ele>
        <time>2021-04-02T15:16:47.000Z</time>
      </trkpt>
      <trkpt lat="45.22701" lon="5.77492">
        <ele>460.58</ele>
        <time>2021-04-02T15:16:52.000Z</time>
      </trkpt>
      <trkpt lat="45.22718" lon="5.77564">
        <ele>457.42</ele>
        <time>2021-04-02T15:16:57.000Z</time>
      </trkpt>
      <trkpt lat="45.22732" lon="5.7763">
        <ele>456.05</ele>
        <time>2021-04-02T15:17:02.000Z</time>
      </trkpt>
      <trkpt lat="45.22745" lon="5.77692">
        <ele>455.9</ele>
        <time>2021-04-02T15:17:07.000Z</time>
      </trkpt>
      <trkpt lat="45.22754" lon="5.77742">
        <ele>452.31</ele>
        <time>2021-04-02T15:17:12.000Z</time>
      </trkpt>
      <trkpt lat="45.22754" lon="5.77796">
        <ele>453.71</ele>
        <time>2021-04-02T15:17:17.000Z</time>
      </trkpt>
      <trkpt lat="45.22756" lon="5.77863">
        <ele>448.52</ele>
        <time>2021-04-02T15:17:22.000Z</time>
      </trkpt>
      <trkpt lat="45.22757" lon="5.77923">
        <ele>445.08</ele>
        <time>2021-04-02T15:17:27.000Z</time>
      </trkpt>
      <trkpt lat="45.22757" lon="5.77966">
        <ele>440.03</ele>
        <time>2021-04-02T15:17:32.000Z</time>
      </trkpt>
      <trkpt lat="45.22758" lon="5.78021">
        <ele>435.47</ele>
        <time>2021-04-02T15:17:37.000Z</time>
      </trkpt>
      <trkpt lat="45.22755" lon="5.78078">
        <ele>432.05</ele>
        <time>2021-04-02T15:17:42.000Z</time>
      </trkpt>
      <trkpt lat="45.22742" lon="5.78137">
        <ele>429.3</ele>
        <time>2021-04-02T15:17:47.000Z</time>
      </trkpt>
      <trkpt lat="45.22724" lon="5.7819">
        <ele>426.33</ele>
        <time>2021-04-02T15:17:52.000Z</time>
      </trkpt>
      <trkpt lat="45.2273" lon="5.78244">
        <ele>424.5</ele>
        <time>2021-04-02T15:17:57.000Z</time>
      </trkpt>
      <trkpt lat="45.22763" lon="5.78293">
        <ele>419.73</ele>
        <time>2021-04-02T15:18:02.000Z</time>
      </trkpt>
      <trkpt lat="45.22796" lon="5.78345">
        <ele>417.45</ele>
        <time>2021-04-02T15:18:07.000Z</time>
      </trkpt>
      <trkpt lat="45.22818" lon="5.784">
        <ele>410.99</ele>
        <time>2021-04-02T15:18:12.000Z</time>
      </trkpt>
      <trkpt lat="45.2283" lon="5.78436">
        <ele>405.3</ele>
        <time>2021-04-02T15:18:17.000Z</time>
      </trkpt>
      <trkpt lat="45.2281" lon="5.78418">
        <ele>402.97</ele>
        <time>2021-04-02T15:18:22.000Z</time>
      </trkpt>
      <trkpt lat="45.22796" lon="5.78379">
        <ele>401.25</ele>
        <time>2021-04-02T15:18:27.000Z</time>
      </trkpt>
      <trkpt lat="45.22766" lon="5.78346">
        <ele>400.77</ele>
        <time>2021-04-02T15:18:32.000Z</time>
      </trkpt>
      <trkpt lat="45.22723" lon="5.78309">
        <ele>397.36</ele>
        <time>2021-04-02T15:18:37.000Z</time>
      </trkpt>
      <trkpt lat="45.22683" lon="5.78259">
        <ele>389.07</ele>
        <time>2021-04-02T15:18:42.000Z</time>
      </trkpt>
      <trkpt lat="45.22634" lon="5.78212">
        <ele>389.18</ele>
        <time>2021-04-02T15:18:47.000Z</time>
      </trkpt>
      <trkpt lat="45.22598" lon="5.78194">
        <ele>388.07</ele>
        <time>2021-04-02T15:18:52.000Z</time>
      </trkpt>
      <trkpt lat="45.22607" lon="5.78234">
        <ele>385.79</ele>
        <time>2021-04-02T15:18:57.000Z</time>
      </trkpt>
      <trkpt lat="45.2264" lon="5.78268">
        <ele>378.93</ele>
        <time>2021-04-02T15:19:02.000Z</time>
      </trkpt>
      <trkpt lat="45.22663" lon="5.78311">
        <ele>375.17</ele>
        <time>2021-04-02T15:19:07.000Z</time>
      </trkpt>
      <trkpt lat="45.2264" lon="5.78358">
        <ele>374.75</ele>
        <time>2021-04-02T15:19:12.000Z</time>
      </trkpt>
      <trkpt lat="45.22612" lon="5.784">
        <ele>375.73</ele>
        <time>2021-04-02T15:19:17.000Z</time>
      </trkpt>
      <trkpt lat="45.22584" lon="5.78442">
        <ele>375.05</ele>
        <time>2021-04-02T15:19:22.000Z</time>
      </trkpt>
      <trkpt lat="45.22575" lon="5.7848">
        <ele>371.98</ele>
        <time>2021-04-02T15:19:27.000Z</time>
      </trkpt>
      <trkpt lat="45.22574" lon="5.78525">
        <ele>367.42</ele>
        <time>2021-04-02T15:19:32.000Z</time>
      </trkpt>
      <trkpt lat="45.22567" lon="5.7858">
        <ele>365.46</ele>
        <time>2021-04-02T15:19:37.000Z</time>
      </trkpt>
      <trkpt lat="45.22566" lon="5.7863">
        <ele>363.21</ele>
        <time>2021-04-02T15:19:42.000Z</time>
      </trkpt>
      <trkpt lat="45.22548" lon="5.78641">
        <ele>357.08</ele>
        <time>2021-04-02T15:19:47.000Z</time>
      </trkpt>
      <trkpt lat="45.22518" lon="5.78614">
        <ele>356.43</ele>
        <time>2021-04-02T15:19:52.000Z</time>
      </trkpt>
      <trkpt lat="45.22481" lon="5.78597">
        <ele>351.1</ele>
        <time>2021-04-02T15:19:57.000Z</time>
      </trkpt>
      <trkpt lat="45.22438" lon="5.78585">
        <ele>347.83</ele>
        <time>2021-04-02T15:20:02.000Z</time>
      </trkpt>
      <trkpt lat="45.22404" lon="5.78602">
        <ele>344.46</ele>
        <time>2021-04-02T15:20:07.000Z</time>
      </trkpt>
      <trkpt lat="45.22365" lon="5.78636">
        <ele>339.16</ele>
        <time>2021-04-02T15:20:12.000Z</time>
      </trkpt>
      <trkpt lat="45.22338" lon="5.78671">
        <ele>331.12</ele>
        <time>2021-04-02T15:20:17.000Z</time>
      </trkpt>
      <trkpt lat="45.22306" lon="5.78699">
        <ele>325.36</ele>
        <time>2021-04-02T15:20:22.000Z</time>
      </trkpt>
      <trkpt lat="45.22264" lon="5.7873">
        <ele>318.28</ele>
        <time>2021-04-02T15:20:27.000Z</time>
      </trkpt>
      <trkpt lat="45.22227" lon="5.78752">
        <ele>315.41</ele>
        <time>2021-04-02T15:20:32.000Z</time>
      </trkpt>
      <trkpt lat="45.22189" lon="5.78755">
        <ele>310.15</ele>
        <time>2021-04-02T15:20:37.000Z</time>
      </trkpt>
      <trkpt lat="45.22157" lon="5.7877">
        <ele>309.3</ele>
        <time>2021-04-02T15:20:42.000Z</time>
      </trkpt>
      <trkpt lat="45.22157" lon="5.7882">
        <ele>307.39</ele>
        <time>2021-04-02T15:20:47.000Z</time>
      </trkpt>
      <trkpt lat="45.22175" lon="5.78857">
        <ele>305.25</ele>
        <time>2021-04-02T15:20:52.000Z</time>
      </trkpt>
      <trkpt lat="45.22195" lon="5.78892">
        <ele>302.59</ele>
        <time>2021-04-02T15:20:57.000Z</time>
      </trkpt>
      <trkpt lat="45.22213" lon="5.78922">
        <ele>302.43</ele>
        <time>2021-04-02T15:21:02.000Z</time>
      </trkpt>
      <trkpt lat="45.22204" lon="5.78957">
        <ele>301.81</ele>
        <time>2021-04-02T15:21:07.000Z</time>
      </trkpt>
      <trkpt lat="45.22173" lon="5.78983">
        <ele>302.15</ele>
        <time>2021-04-02T15:21:12.000Z</time>
      </trkpt>
      <trkpt lat="45.22146" lon="5.79006">
        <ele>297.43</ele>
        <time>2021-04-02T15:21:17.000Z</time>
      </trkpt>
      <trkpt lat="45.22132" lon="5.79012">
        <ele>298.67</ele>
        <time>2021-04-02T15:21:22.000Z</time>
      </trkpt>
      <trkpt lat="45.22128" lon="5.78997">
        <ele>291.67</ele>
        <time>2021-04-02T15:21:34.000Z</time>
      </trkpt>
      <trkpt lat="45.22132" lon="5.79009">
        <ele>287.55</ele>
        <time>2021-04-02T15:21:43.000Z</time>
      </trkpt>
      <trkpt lat="45.22125" lon="5.79021">
        <ele>287.8</ele>
        <time>2021-04-02T15:22:03.000Z</time>
      </trkpt>
      <trkpt lat="45.22105" lon="5.79021">
        <ele>288.2</ele>
        <time>2021-04-02T15:22:08.000Z</time>
      </trkpt>
      <trkpt lat="45.22091" lon="5.79023">
        <ele>287.51</ele>
        <time>2021-04-02T15:22:13.000Z</time>
      </trkpt>
      <trkpt lat="45.22068" lon="5.79038">
        <ele>284.48</ele>
        <time>2021-04-02T15:22:18.000Z</time>
      </trkpt>
      <trkpt lat="45.22037" lon="5.79056">
        <ele>281.73</ele>
        <time>2021-04-02T15:22:23.000Z</time>
      </trkpt>
      <trkpt lat="45.22012" lon="5.79069">
        <ele>282.15</ele>
        <time>2021-04-02T15:22:28.000Z</time>
      </trkpt>
      <trkpt lat="45.2198" lon="5.7908">
        <ele>278.53</ele>
        <time>2021-04-02T15:22:33.000Z</time>
      </trkpt>
      <trkpt lat="45.21948" lon="5.79111">
        <ele>277.77</ele>
        <time>2021-04-02T15:22:38.000Z</time>
      </trkpt>
      <trkpt lat="45.21907" lon="5.79132">
        <ele>277.26</ele>
        <time>2021-04-02T15:22:43.000Z</time>
      </trkpt>
      <trkpt lat="45.2188" lon="5.79155">
        <ele>276.88</ele>
        <time>2021-04-02T15:22:48.000Z</time>
      </trkpt>
      <trkpt lat="45.21851" lon="5.79162">
        <ele>272.01</ele>
        <time>2021-04-02T15:22:53.000Z</time>
      </trkpt>
      <trkpt lat="45.21812" lon="5.79188">
        <ele>266.45</ele>
        <time>2021-04-02T15:22:58.000Z</time>
      </trkpt>
      <trkpt lat="45.21776" lon="5.79219">
        <ele>265.18</ele>
        <time>2021-04-02T15:23:03.000Z</time>
      </trkpt>
      <trkpt lat="45.2176" lon="5.79238">
        <ele>262.15</ele>
        <time>2021-04-02T15:23:08.000Z</time>
      </trkpt>
      <trkpt lat="45.21766" lon="5.79251">
        <ele>259.19</ele>
        <time>2021-04-02T15:23:13.000Z</time>
      </trkpt>
      <trkpt lat="45.21767" lon="5.79277">
        <ele>255.37</ele>
        <time>2021-04-02T15:23:18.000Z</time>
      </trkpt>
      <trkpt lat="45.21772" lon="5.79306">
        <ele>254.95</ele>
        <time>2021-04-02T15:23:23.000Z</time>
      </trkpt>
      <trkpt lat="45.21779" lon="5.79333">
        <ele>257.76</ele>
        <time>2021-04-02T15:23:28.000Z</time>
      </trkpt>
      <trkpt lat="45.21789" lon="5.79356">
        <ele>256.76</ele>
        <time>2021-04-02T15:23:33.000Z</time>
      </trkpt>
      <trkpt lat="45.21795" lon="5.79377">
        <ele>257.24</ele>
        <time>2021-04-02T15:23:38.000Z</time>
      </trkpt>
      <trkpt lat="45.21801" lon="5.79399">
        <ele>255.84</ele>
        <time>2021-04-02T15:23:43.000Z</time>
      </trkpt>
      <trkpt lat="45.2181" lon="5.79419">
        <ele>255.3</ele>
        <time>2021-04-02T15:23:48.000Z</time>
      </trkpt>
      <trkpt lat="45.21814" lon="5.79435">
        <ele>256.51</ele>
        <time>2021-04-02T15:23:53.000Z</time>
      </trkpt>
      <trkpt lat="45.21806" lon="5.7944">
        <ele>257.9</ele>
        <time>2021-04-02T15:23:58.000Z</time>
      </trkpt>
      <trkpt lat="45.21799" lon="5.79449">
        <ele>257.43</ele>
        <time>2021-04-02T15:24:04.000Z</time>
      </trkpt>
      <trkpt lat="45.218" lon="5.79462">
        <ele>255.88</ele>
        <time>2021-04-02T15:24:09.000Z</time>
      </trkpt>
      <trkpt lat="45.21803" lon="5.79485">
        <ele>253.95</ele>
        <time>2021-04-02T15:24:14.000Z</time>
      </trkpt>
      <trkpt lat="45.21795" lon="5.79507">
        <ele>249.75</ele>
        <time>2021-04-02T15:24:19.000Z</time>
      </trkpt>
      <trkpt lat="45.21783" lon="5.79529">
        <ele>250.32</ele>
        <time>2021-04-02T15:24:24.000Z</time>
      </trkpt>
      <trkpt lat="45.21769" lon="5.79549">
        <ele>250.31</ele>
        <time>2021-04-02T15:24:29.000Z</time>
      </trkpt>
      <trkpt lat="45.21757" lon="5.7957">
        <ele>250.07</ele>
        <time>2021-04-02T15:24:34.000Z</time>
      </trkpt>
      <trkpt lat="45.2174" lon="5.79583">
        <ele>250.51</ele>
        <time>2021-04-02T15:24:39.000Z</time>
      </trkpt>
      <trkpt lat="45.2173" lon="5.796">
        <ele>244.49</ele>
        <time>2021-04-02T15:24:44.000Z</time>
      </trkpt>
      <trkpt lat="45.21719" lon="5.79609">
        <ele>246.76</ele>
        <time>2021-04-02T15:25:08.000Z</time>
      </trkpt>
      <trkpt lat="45.21686" lon="5.79616">
        <ele>247.52</ele>
        <time>2021-04-02T15:25:13.000Z</time>
      </trkpt>
      <trkpt lat="45.21656" lon="5.79627">
        <ele>244.46</ele>
        <time>2021-04-02T15:25:18.000Z</time>
      </trkpt>
      <trkpt lat="45.2163" lon="5.79636">
        <ele>243.01</ele>
        <time>2021-04-02T15:25:23.000Z</time>
      </trkpt>
      <trkpt lat="45.21606" lon="5.79648">
        <ele>240.85</ele>
        <time>2021-04-02T15:25:28.000Z</time>
      </trkpt>
      <trkpt lat="45.21578" lon="5.79654">
        <ele>235.45</ele>
        <time>2021-04-02T15:25:33.000Z</time>
      </trkpt>
      <trkpt lat="45.21553" lon="5.79669">
        <ele>233.93</ele>
        <time>2021-04-02T15:25:38.000Z</time>
      </trkpt>
      <trkpt lat="45.21531" lon="5.79685">
        <ele>236.03</ele>
        <time>2021-04-02T15:25:43.000Z</time>
      </trkpt>
      <trkpt lat="45.21508" lon="5.79701">
        <ele>236.96</ele>
        <time>2021-04-02T15:25:48.000Z</time>
      </trkpt>
      <trkpt lat="45.21488" lon="5.79714">
        <ele>235.56</ele>
        <time>2021-04-02T15:25:53.000Z</time>
      </trkpt>
      <trkpt lat="45.2148" lon="5.79724">
        <ele>235.98</ele>
        <time>2021-04-02T15:25:59.000Z</time>
      </trkpt>
      <trkpt lat="45.21469" lon="5.79735">
        <ele>237.78</ele>
        <time>2021-04-02T15:26:04.000Z</time>
      </trkpt>
      <trkpt lat="45.21455" lon="5.79747">
        <ele>236.93</ele>
        <time>2021-04-02T15:26:09.000Z</time>
      </trkpt>
      <trkpt lat="45.21449" lon="5.79759">
        <ele>240.09</ele>
        <time>2021-04-02T15:26:14.000Z</time>
      </trkpt>
      <trkpt lat="45.21437" lon="5.7977">
        <ele>238.07</ele>
        <time>2021-04-02T15:26:19.000Z</time>
      </trkpt>
      <trkpt lat="45.21413" lon="5.79789">
        <ele>239.55</ele>
        <time>2021-04-02T15:26:24.000Z</time>
      </trkpt>
      <trkpt lat="45.21391" lon="5.79806">
        <ele>238.14</ele>
        <time>2021-04-02T15:26:29.000Z</time>
      </trkpt>
      <trkpt lat="45.21364" lon="5.79817">
        <ele>237.44</ele>
        <time>2021-04-02T15:26:34.000Z</time>
      </trkpt>
      <trkpt lat="45.21331" lon="5.79821">
        <ele>233.47</ele>
        <time>2021-04-02T15:26:39.000Z</time>
      </trkpt>
      <trkpt lat="45.213" lon="5.79834">
        <ele>230.77</ele>
        <time>2021-04-02T15:26:44.000Z</time>
      </trkpt>
      <trkpt lat="45.2129" lon="5.79841">
        <ele>230.92</ele>
        <time>2021-04-02T15:26:49.000Z</time>
      </trkpt>
      <trkpt lat="45.21275" lon="5.79847">
        <ele>230.99</ele>
        <time>2021-04-02T15:26:54.000Z</time>
      </trkpt>
      <trkpt lat="45.2126" lon="5.79855">
        <ele>230.36</ele>
        <time>2021-04-02T15:26:59.000Z</time>
      </trkpt>
      <trkpt lat="45.21251" lon="5.79869">
        <ele>228.4</ele>
        <time>2021-04-02T15:27:04.000Z</time>
      </trkpt>
      <trkpt lat="45.2124" lon="5.79869">
        <ele>232.79</ele>
        <time>2021-04-02T15:27:12.000Z</time>
      </trkpt>
      <trkpt lat="45.21227" lon="5.79873">
        <ele>229.78</ele>
        <time>2021-04-02T15:27:17.000Z</time>
      </trkpt>
      <trkpt lat="45.21209" lon="5.79882">
        <ele>229.82</ele>
        <time>2021-04-02T15:27:22.000Z</time>
      </trkpt>
      <trkpt lat="45.21186" lon="5.79905">
        <ele>225.48</ele>
        <time>2021-04-02T15:27:27.000Z</time>
      </trkpt>
      <trkpt lat="45.21165" lon="5.79925">
        <ele>226.22</ele>
        <time>2021-04-02T15:27:32.000Z</time>
      </trkpt>
      <trkpt lat="45.21148" lon="5.79921">
        <ele>226.54</ele>
        <time>2021-04-02T15:27:37.000Z</time>
      </trkpt>
      <trkpt lat="45.2114" lon="5.7994">
        <ele>225.13</ele>
        <time>2021-04-02T15:27:42.000Z</time>
      </trkpt>
      <trkpt lat="45.21124" lon="5.79958">
        <ele>225.91</ele>
        <time>2021-04-02T15:27:47.000Z</time>
      </trkpt>
      <trkpt lat="45.21111" lon="5.79972">
        <ele>223.17</ele>
        <time>2021-04-02T15:27:52.000Z</time>
      </trkpt>
      <trkpt lat="45.21105" lon="5.79985">
        <ele>222.48</ele>
        <time>2021-04-02T15:27:57.000Z</time>
      </trkpt>
      <trkpt lat="45.21098" lon="5.79999">
        <ele>218.96</ele>
        <time>2021-04-02T15:28:02.000Z</time>
      </trkpt>
      <trkpt lat="45.21076" lon="5.80013">
        <ele>215.99</ele>
        <time>2021-04-02T15:28:07.000Z</time>
      </trkpt>
      <trkpt lat="45.21052" lon="5.80022">
        <ele>214.99</ele>
        <time>2021-04-02T15:28:12.000Z</time>
      </trkpt>
      <trkpt lat="45.2104" lon="5.80043">
        <ele>214.24</ele>
        <time>2021-04-02T15:28:17.000Z</time>
      </trkpt>
      <trkpt lat="45.21052" lon="5.8007">
        <ele>214.89</ele>
        <time>2021-04-02T15:28:22.000Z</time>
      </trkpt>
      <trkpt lat="45.21063" lon="5.80096">
        <ele>213.59</ele>
        <time>2021-04-02T15:28:27.000Z</time>
      </trkpt>
      <trkpt lat="45.21072" lon="5.80115">
        <ele>213.83</ele>
        <time>2021-04-02T15:28:32.000Z</time>
      </trkpt>
      <trkpt lat="45.2108" lon="5.80133">
        <ele>212.57</ele>
        <time>2021-04-02T15:28:37.000Z</time>
      </trkpt>
      <trkpt lat="45.21087" lon="5.80156">
        <ele>212.14</ele>
        <time>2021-04-02T15:28:42.000Z</time>
      </trkpt>
      <trkpt lat="45.21091" lon="5.80184">
        <ele>212.62</ele>
        <time>2021-04-02T15:28:47.000Z</time>
      </trkpt>
      <trkpt lat="45.21097" lon="5.80212">
        <ele>209.88</ele>
        <time>2021-04-02T15:28:52.000Z</time>
      </trkpt>
      <trkpt lat="45.21098" lon="5.80242">
        <ele>212.66</ele>
        <time>2021-04-02T15:28:57.000Z</time>
      </trkpt>
      <trkpt lat="45.21096" lon="5.80273">
        <ele>213.6</ele>
        <time>2021-04-02T15:29:02.000Z</time>
      </trkpt>
      <trkpt lat="45.21093" lon="5.80301">
        <ele>214.73</ele>
        <time>2021-04-02T15:29:07.000Z</time>
      </trkpt>
      <trkpt lat="45.21091" lon="5.80328">
        <ele>214.09</ele>
        <time>2021-04-02T15:29:12.000Z</time>
      </trkpt>
      <trkpt lat="45.21089" lon="5.80351">
        <ele>216.38</ele>
        <time>2021-04-02T15:29:17.000Z</time>
      </trkpt>
      <trkpt lat="45.21085" lon="5.80363">
        <ele>219.46</ele>
        <time>2021-04-02T15:29:27.000Z</time>
      </trkpt>
      <trkpt lat="45.21086" lon="5.80377">
        <ele>220.17</ele>
        <time>2021-04-02T15:30:27.000Z</time>
      </trkpt>
      <trkpt lat="45.21084" lon="5.80396">
        <ele>218.73</ele>
        <time>2021-04-02T15:30:32.000Z</time>
      </trkpt>
      <trkpt lat="45.21083" lon="5.80416">
        <ele>216.37</ele>
        <time>2021-04-02T15:30:37.000Z</time>
      </trkpt>
      <trkpt lat="45.21086" lon="5.80438">
        <ele>216.3</ele>
        <time>2021-04-02T15:30:42.000Z</time>
      </trkpt>
      <trkpt lat="45.21093" lon="5.80458">
        <ele>214.24</ele>
        <time>2021-04-02T15:30:47.000Z</time>
      </trkpt>
      <trkpt lat="45.21103" lon="5.80478">
        <ele>212.85</ele>
        <time>2021-04-02T15:30:52.000Z</time>
      </trkpt>
      <trkpt lat="45.21113" lon="5.805">
        <ele>211.08</ele>
        <time>2021-04-02T15:30:57.000Z</time>
      </trkpt>
      <trkpt lat="45.21123" lon="5.80523">
        <ele>210.72</ele>
        <time>2021-04-02T15:31:02.000Z</time>
      </trkpt>
      <trkpt lat="45.21132" lon="5.80543">
        <ele>210.6</ele>
        <time>2021-04-02T15:31:07.000Z</time>
      </trkpt>
      <trkpt lat="45.2114" lon="5.8056">
        <ele>209.01</ele>
        <time>2021-04-02T15:31:12.000Z</time>
      </trkpt>
      <trkpt lat="45.21147" lon="5.80572">
        <ele>210.7</ele>
        <time>2021-04-02T15:31:17.000Z</time>
      </trkpt>
      <trkpt lat="45.21151" lon="5.80585">
        <ele>210.55</ele>
        <time>2021-04-02T15:31:22.000Z</time>
      </trkpt>
      <trkpt lat="45.21149" lon="5.80598">
        <ele>211.04</ele>
        <time>2021-04-02T15:31:29.000Z</time>
      </trkpt>
      <trkpt lat="45.2116" lon="5.80594">
        <ele>210.83</ele>
        <time>2021-04-02T15:31:34.000Z</time>
      </trkpt>
      <trkpt lat="45.21176" lon="5.80604">
        <ele>212.84</ele>
        <time>2021-04-02T15:31:39.000Z</time>
      </trkpt>
      <trkpt lat="45.21188" lon="5.80628">
        <ele>212.58</ele>
        <time>2021-04-02T15:31:44.000Z</time>
      </trkpt>
      <trkpt lat="45.21197" lon="5.80648">
        <ele>214.15</ele>
        <time>2021-04-02T15:31:49.000Z</time>
      </trkpt>
      <trkpt lat="45.21213" lon="5.80668">
        <ele>217.34</ele>
        <time>2021-04-02T15:31:54.000Z</time>
      </trkpt>
      <trkpt lat="45.2123" lon="5.80684">
        <ele>215.25</ele>
        <time>2021-04-02T15:31:59.000Z</time>
      </trkpt>
      <trkpt lat="45.21231" lon="5.80716">
        <ele>215.41</ele>
        <time>2021-04-02T15:32:04.000Z</time>
      </trkpt>
      <trkpt lat="45.2123" lon="5.80744">
        <ele>215.65</ele>
        <time>2021-04-02T15:32:09.000Z</time>
      </trkpt>
      <trkpt lat="45.21231" lon="5.80768">
        <ele>216.32</ele>
        <time>2021-04-02T15:32:14.000Z</time>
      </trkpt>
      <trkpt lat="45.21235" lon="5.80793">
        <ele>216.6</ele>
        <time>2021-04-02T15:32:19.000Z</time>
      </trkpt>
      <trkpt lat="45.21235" lon="5.80814">
        <ele>218.1</ele>
        <time>2021-04-02T15:32:24.000Z</time>
      </trkpt>
      <trkpt lat="45.21243" lon="5.80821">
        <ele>220.93</ele>
        <time>2021-04-02T15:32:29.000Z</time>
      </trkpt>
      <trkpt lat="45.2125" lon="5.80832">
        <ele>220.16</ele>
        <time>2021-04-02T15:32:35.000Z</time>
      </trkpt>
      <trkpt lat="45.21253" lon="5.80854">
        <ele>219.94</ele>
        <time>2021-04-02T15:32:40.000Z</time>
      </trkpt>
      <trkpt lat="45.21258" lon="5.80878">
        <ele>221.15</ele>
        <time>2021-04-02T15:32:45.000Z</time>
      </trkpt>
      <trkpt lat="45.21262" lon="5.80902">
        <ele>222.32</ele>
        <time>2021-04-02T15:32:50.000Z</time>
      </trkpt>
      <trkpt lat="45.21271" lon="5.80926">
        <ele>220.2</ele>
        <time>2021-04-02T15:32:55.000Z</time>
      </trkpt>
      <trkpt lat="45.21285" lon="5.80948">
        <ele>218.07</ele>
        <time>2021-04-02T15:33:00.000Z</time>
      </trkpt>
      <trkpt lat="45.21298" lon="5.80965">
        <ele>217.23</ele>
        <time>2021-04-02T15:33:05.000Z</time>
      </trkpt>
      <trkpt lat="45.21312" lon="5.80981">
        <ele>218.39</ele>
        <time>2021-04-02T15:33:10.000Z</time>
      </trkpt>
      <trkpt lat="45.21328" lon="5.80994">
        <ele>218.37</ele>
        <time>2021-04-02T15:33:15.000Z</time>
      </trkpt>
      <trkpt lat="45.21347" lon="5.81009">
        <ele>220.72</ele>
        <time>2021-04-02T15:33:20.000Z</time>
      </trkpt>
      <trkpt lat="45.21367" lon="5.81025">
        <ele>218.5</ele>
        <time>2021-04-02T15:33:25.000Z</time>
      </trkpt>
      <trkpt lat="45.21384" lon="5.8105">
        <ele>217.56</ele>
        <time>2021-04-02T15:33:30.000Z</time>
      </trkpt>
      <trkpt lat="45.21399" lon="5.81071">
        <ele>217.98</ele>
        <time>2021-04-02T15:33:35.000Z</time>
      </trkpt>
      <trkpt lat="45.21418" lon="5.81091">
        <ele>216.6</ele>
        <time>2021-04-02T15:33:40.000Z</time>
      </trkpt>
      <trkpt lat="45.21438" lon="5.81108">
        <ele>216.83</ele>
        <time>2021-04-02T15:33:45.000Z</time>
      </trkpt>
      <trkpt lat="45.21456" lon="5.81128">
        <ele>214.74</ele>
        <time>2021-04-02T15:33:50.000Z</time>
      </trkpt>
      <trkpt lat="45.21473" lon="5.81147">
        <ele>214.66</ele>
        <time>2021-04-02T15:33:55.000Z</time>
      </trkpt>
      <trkpt lat="45.21495" lon="5.81167">
        <ele>214.88</ele>
        <time>2021-04-02T15:34:00.000Z</time>
      </trkpt>
      <trkpt lat="45.21515" lon="5.81177">
        <ele>214.06</ele>
        <time>2021-04-02T15:34:05.000Z</time>
      </trkpt>
      <trkpt lat="45.21537" lon="5.81197">
        <ele>213.17</ele>
        <time>2021-04-02T15:34:10.000Z</time>
      </trkpt>
      <trkpt lat="45.21556" lon="5.81232">
        <ele>211.36</ele>
        <time>2021-04-02T15:34:15.000Z</time>
      </trkpt>
      <trkpt lat="45.21569" lon="5.81273">
        <ele>210.65</ele>
        <time>2021-04-02T15:34:20.000Z</time>
      </trkpt>
      <trkpt lat="45.21575" lon="5.81311">
        <ele>209.81</ele>
        <time>2021-04-02T15:34:25.000Z</time>
      </trkpt>
      <trkpt lat="45.21578" lon="5.81352">
        <ele>212.02</ele>
        <time>2021-04-02T15:34:30.000Z</time>
      </trkpt>
      <trkpt lat="45.21583" lon="5.81382">
        <ele>214.14</ele>
        <time>2021-04-02T15:34:35.000Z</time>
      </trkpt>
      <trkpt lat="45.21589" lon="5.8141">
        <ele>215.28</ele>
        <time>2021-04-02T15:34:40.000Z</time>
      </trkpt>
      <trkpt lat="45.21606" lon="5.81431">
        <ele>215.42</ele>
        <time>2021-04-02T15:34:45.000Z</time>
      </trkpt>
      <trkpt lat="45.21624" lon="5.81456">
        <ele>215.82</ele>
        <time>2021-04-02T15:34:50.000Z</time>
      </trkpt>
      <trkpt lat="45.21646" lon="5.8148">
        <ele>220.69</ele>
        <time>2021-04-02T15:34:55.000Z</time>
      </trkpt>
      <trkpt lat="45.21663" lon="5.81505">
        <ele>217.9</ele>
        <time>2021-04-02T15:35:00.000Z</time>
      </trkpt>
      <trkpt lat="45.21679" lon="5.81532">
        <ele>214.88</ele>
        <time>2021-04-02T15:35:05.000Z</time>
      </trkpt>
      <trkpt lat="45.21696" lon="5.81554">
        <ele>214.94</ele>
        <time>2021-04-02T15:35:10.000Z</time>
      </trkpt>
      <trkpt lat="45.21708" lon="5.81566">
        <ele>217.08</ele>
        <time>2021-04-02T15:35:15.000Z</time>
      </trkpt>
      <trkpt lat="45.21711" lon="5.81581">
        <ele>216.76</ele>
        <time>2021-04-02T15:35:23.000Z</time>
      </trkpt>
      <trkpt lat="45.21676" lon="5.81622">
        <ele>218.01</ele>
        <time>2021-04-02T15:35:36.000Z</time>
      </trkpt>
      <trkpt lat="45.21659" lon="5.81614">
        <ele>216.26</ele>
        <time>2021-04-02T15:35:41.000Z</time>
      </trkpt>
      <trkpt lat="45.21641" lon="5.81607">
        <ele>214.6</ele>
        <time>2021-04-02T15:35:46.000Z</time>
      </trkpt>
      <trkpt lat="45.21631" lon="5.81617">
        <ele>215.81</ele>
        <time>2021-04-02T15:36:11.000Z</time>
      </trkpt>
      <trkpt lat="45.21613" lon="5.81633">
        <ele>214.8</ele>
        <time>2021-04-02T15:36:16.000Z</time>
      </trkpt>
      <trkpt lat="45.21594" lon="5.81647">
        <ele>214.31</ele>
        <time>2021-04-02T15:36:21.000Z</time>
      </trkpt>
      <trkpt lat="45.21575" lon="5.81663">
        <ele>219.17</ele>
        <time>2021-04-02T15:36:26.000Z</time>
      </trkpt>
      <trkpt lat="45.21556" lon="5.8168">
        <ele>218.06</ele>
        <time>2021-04-02T15:36:31.000Z</time>
      </trkpt>
      <trkpt lat="45.21538" lon="5.81699">
        <ele>217.89</ele>
        <time>2021-04-02T15:36:36.000Z</time>
      </trkpt>
      <trkpt lat="45.2152" lon="5.8172">
        <ele>217.47</ele>
        <time>2021-04-02T15:36:41.000Z</time>
      </trkpt>
      <trkpt lat="45.21502" lon="5.81743">
        <ele>215.9</ele>
        <time>2021-04-02T15:36:46.000Z</time>
      </trkpt>
      <trkpt lat="45.21485" lon="5.81764">
        <ele>215.58</ele>
        <time>2021-04-02T15:36:51.000Z</time>
      </trkpt>
      <trkpt lat="45.21468" lon="5.81786">
        <ele>211.61</ele>
        <time>2021-04-02T15:36:56.000Z</time>
      </trkpt>
      <trkpt lat="45.21451" lon="5.81807">
        <ele>213.04</ele>
        <time>2021-04-02T15:37:01.000Z</time>
      </trkpt>
      <trkpt lat="45.21431" lon="5.81829">
        <ele>211.9</ele>
        <time>2021-04-02T15:37:06.000Z</time>
      </trkpt>
      <trkpt lat="45.21412" lon="5.81851">
        <ele>212.47</ele>
        <time>2021-04-02T15:37:11.000Z</time>
      </trkpt>
      <trkpt lat="45.21393" lon="5.81873">
        <ele>212.75</ele>
        <time>2021-04-02T15:37:16.000Z</time>
      </trkpt>
      <trkpt lat="45.21375" lon="5.81897">
        <ele>210.89</ele>
        <time>2021-04-02T15:37:21.000Z</time>
      </trkpt>
      <trkpt lat="45.21355" lon="5.81918">
        <ele>212.34</ele>
        <time>2021-04-02T15:37:26.000Z</time>
      </trkpt>
      <trkpt lat="45.21336" lon="5.8194">
        <ele>214.91</ele>
        <time>2021-04-02T15:37:31.000Z</time>
      </trkpt>
      <trkpt lat="45.21316" lon="5.81961">
        <ele>215.38</ele>
        <time>2021-04-02T15:37:36.000Z</time>
      </trkpt>
      <trkpt lat="45.21295" lon="5.81981">
        <ele>216.26</ele>
        <time>2021-04-02T15:37:41.000Z</time>
      </trkpt>
      <trkpt lat="45.21275" lon="5.82003">
        <ele>215.05</ele>
        <time>2021-04-02T15:37:46.000Z</time>
      </trkpt>
      <trkpt lat="45.2126" lon="5.82034">
        <ele>215.67</ele>
        <time>2021-04-02T15:37:51.000Z</time>
      </trkpt>
      <trkpt lat="45.21255" lon="5.82067">
        <ele>216.3</ele>
        <time>2021-04-02T15:37:56.000Z</time>
      </trkpt>
      <trkpt lat="45.2124" lon="5.82097">
        <ele>215.44</ele>
        <time>2021-04-02T15:38:01.000Z</time>
      </trkpt>
      <trkpt lat="45.21223" lon="5.82119">
        <ele>217.12</ele>
        <time>2021-04-02T15:38:06.000Z</time>
      </trkpt>
      <trkpt lat="45.21203" lon="5.82141">
        <ele>217.67</ele>
        <time>2021-04-02T15:38:11.000Z</time>
      </trkpt>
      <trkpt lat="45.21185" lon="5.82159">
        <ele>214.64</ele>
        <time>2021-04-02T15:38:16.000Z</time>
      </trkpt>
      <trkpt lat="45.21169" lon="5.82176">
        <ele>216.37</ele>
        <time>2021-04-02T15:38:21.000Z</time>
      </trkpt>
      <trkpt lat="45.21151" lon="5.82198">
        <ele>216.34</ele>
        <time>2021-04-02T15:38:26.000Z</time>
      </trkpt>
      <trkpt lat="45.21144" lon="5.82227">
        <ele>215.82</ele>
        <time>2021-04-02T15:38:31.000Z</time>
      </trkpt>
      <trkpt lat="45.21157" lon="5.82253">
        <ele>217.46</ele>
        <time>2021-04-02T15:38:36.000Z</time>
      </trkpt>
      <trkpt lat="45.21173" lon="5.82278">
        <ele>214.4</ele>
        <time>2021-04-02T15:38:41.000Z</time>
      </trkpt>
      <trkpt lat="45.21189" lon="5.82303">
        <ele>214.01</ele>
        <time>2021-04-02T15:38:46.000Z</time>
      </trkpt>
      <trkpt lat="45.21201" lon="5.82324">
        <ele>215.39</ele>
        <time>2021-04-02T15:38:51.000Z</time>
      </trkpt>
      <trkpt lat="45.21208" lon="5.82335">
        <ele>214.96</ele>
        <time>2021-04-02T15:39:28.000Z</time>
      </trkpt>
      <trkpt lat="45.21218" lon="5.82349">
        <ele>215.24</ele>
        <time>2021-04-02T15:39:33.000Z</time>
      </trkpt>
      <trkpt lat="45.21228" lon="5.82363">
        <ele>215.3</ele>
        <time>2021-04-02T15:39:38.000Z</time>
      </trkpt>
      <trkpt lat="45.21236" lon="5.82375">
        <ele>215.07</ele>
        <time>2021-04-02T15:39:43.000Z</time>
      </trkpt>
      <trkpt lat="45.21242" lon="5.82387">
        <ele>218.55</ele>
        <time>2021-04-02T15:39:48.000Z</time>
      </trkpt>
      <trkpt lat="45.2125" lon="5.82397">
        <ele>216.76</ele>
        <time>2021-04-02T15:39:53.000Z</time>
      </trkpt>
      <trkpt lat="45.21265" lon="5.82413">
        <ele>213.75</ele>
        <time>2021-04-02T15:39:58.000Z</time>
      </trkpt>
      <trkpt lat="45.21275" lon="5.82432">
        <ele>210.41</ele>
        <time>2021-04-02T15:40:03.000Z</time>
      </trkpt>
      <trkpt lat="45.21286" lon="5.82448">
        <ele>207.21</ele>
        <time>2021-04-02T15:40:08.000Z</time>
      </trkpt>
      <trkpt lat="45.21299" lon="5.82459">
        <ele>208.64</ele>
        <time>2021-04-02T15:40:13.000Z</time>
      </trkpt>
      <trkpt lat="45.21312" lon="5.82474">
        <ele>211.43</ele>
        <time>2021-04-02T15:40:18.000Z</time>
      </trkpt>
      <trkpt lat="45.21324" lon="5.82492">
        <ele>216.37</ele>
        <time>2021-04-02T15:40:23.000Z</time>
      </trkpt>
      <trkpt lat="45.21336" lon="5.82506">
        <ele>216.18</ele>
        <time>2021-04-02T15:40:28.000Z</time>
      </trkpt>
      <trkpt lat="45.21345" lon="5.82524">
        <ele>214.84</ele>
        <time>2021-04-02T15:40:33.000Z</time>
      </trkpt>
      <trkpt lat="45.21355" lon="5.82539">
        <ele>215.74</ele>
        <time>2021-04-02T15:40:38.000Z</time>
      </trkpt>
      <trkpt lat="45.21366" lon="5.82552">
        <ele>216.23</ele>
        <time>2021-04-02T15:40:43.000Z</time>
      </trkpt>
      <trkpt lat="45.21377" lon="5.82568">
        <ele>216.19</ele>
        <time>2021-04-02T15:40:48.000Z</time>
      </trkpt>
      <trkpt lat="45.21388" lon="5.8258">
        <ele>217.13</ele>
        <time>2021-04-02T15:40:53.000Z</time>
      </trkpt>
      <trkpt lat="45.21397" lon="5.82593">
        <ele>213.98</ele>
        <time>2021-04-02T15:40:58.000Z</time>
      </trkpt>
      <trkpt lat="45.21402" lon="5.82606">
        <ele>215.37</ele>
        <time>2021-04-02T15:41:03.000Z</time>
      </trkpt>
      <trkpt lat="45.21389" lon="5.82619">
        <ele>213.67</ele>
        <time>2021-04-02T15:41:08.000Z</time>
      </trkpt>
      <trkpt lat="45.21373" lon="5.82631">
        <ele>213.04</ele>
        <time>2021-04-02T15:41:13.000Z</time>
      </trkpt>
      <trkpt lat="45.21361" lon="5.82645">
        <ele>215.35</ele>
        <time>2021-04-02T15:41:18.000Z</time>
      </trkpt>
      <trkpt lat="45.21347" lon="5.82658">
        <ele>213.5</ele>
        <time>2021-04-02T15:41:23.000Z</time>
      </trkpt>
      <trkpt lat="45.21331" lon="5.82677">
        <ele>213.6</ele>
        <time>2021-04-02T15:41:28.000Z</time>
      </trkpt>
      <trkpt lat="45.21318" lon="5.827">
        <ele>215.68</ele>
        <time>2021-04-02T15:41:33.000Z</time>
      </trkpt>
      <trkpt lat="45.21306" lon="5.82724">
        <ele>218.47</ele>
        <time>2021-04-02T15:41:38.000Z</time>
      </trkpt>
      <trkpt lat="45.21294" lon="5.82748">
        <ele>218.31</ele>
        <time>2021-04-02T15:41:43.000Z</time>
      </trkpt>
      <trkpt lat="45.21279" lon="5.82772">
        <ele>213.33</ele>
        <time>2021-04-02T15:41:48.000Z</time>
      </trkpt>
      <trkpt lat="45.21267" lon="5.82795">
        <ele>217.82</ele>
        <time>2021-04-02T15:41:53.000Z</time>
      </trkpt>
      <trkpt lat="45.21257" lon="5.82818">
        <ele>219.27</ele>
        <time>2021-04-02T15:41:58.000Z</time>
      </trkpt>
      <trkpt lat="45.21247" lon="5.82841">
        <ele>220.93</ele>
        <time>2021-04-02T15:42:03.000Z</time>
      </trkpt>
      <trkpt lat="45.21238" lon="5.82865">
        <ele>223.51</ele>
        <time>2021-04-02T15:42:08.000Z</time>
      </trkpt>
      <trkpt lat="45.21226" lon="5.8289">
        <ele>222.25</ele>
        <time>2021-04-02T15:42:13.000Z</time>
      </trkpt>
      <trkpt lat="45.21214" lon="5.82916">
        <ele>223.2</ele>
        <time>2021-04-02T15:42:18.000Z</time>
      </trkpt>
      <trkpt lat="45.21204" lon="5.82938">
        <ele>223.24</ele>
        <time>2021-04-02T15:42:23.000Z</time>
      </trkpt>
      <trkpt lat="45.21189" lon="5.82966">
        <ele>224.75</ele>
        <time>2021-04-02T15:42:28.000Z</time>
      </trkpt>
      <trkpt lat="45.21176" lon="5.82992">
        <ele>223.65</ele>
        <time>2021-04-02T15:42:33.000Z</time>
      </trkpt>
      <trkpt lat="45.21163" lon="5.83016">
        <ele>222.24</ele>
        <time>2021-04-02T15:42:38.000Z</time>
      </trkpt>
      <trkpt lat="45.21151" lon="5.83044">
        <ele>224.29</ele>
        <time>2021-04-02T15:42:43.000Z</time>
      </trkpt>
      <trkpt lat="45.21136" lon="5.8307">
        <ele>223.29</ele>
        <time>2021-04-02T15:42:48.000Z</time>
      </trkpt>
      <trkpt lat="45.21122" lon="5.83092">
        <ele>223.87</ele>
        <time>2021-04-02T15:42:53.000Z</time>
      </trkpt>
      <trkpt lat="45.21108" lon="5.83116">
        <ele>223.07</ele>
        <time>2021-04-02T15:42:58.000Z</time>
      </trkpt>
      <trkpt lat="45.21092" lon="5.83136">
        <ele>223.98</ele>
        <time>2021-04-02T15:43:03.000Z</time>
      </trkpt>
      <trkpt lat="45.21078" lon="5.83157">
        <ele>226.89</ele>
        <time>2021-04-02T15:43:08.000Z</time>
      </trkpt>
      <trkpt lat="45.21071" lon="5.83166">
        <ele>224.44</ele>
        <time>2021-04-02T15:43:13.000Z</time>
      </trkpt>
      <trkpt lat="45.21062" lon="5.83175">
        <ele>228.5</ele>
        <time>2021-04-02T15:43:23.000Z</time>
      </trkpt>
      <trkpt lat="45.21046" lon="5.83173">
        <ele>227.14</ele>
        <time>2021-04-02T15:43:28.000Z</time>
      </trkpt>
      <trkpt lat="45.21022" lon="5.83174">
        <ele>225.03</ele>
        <time>2021-04-02T15:43:33.000Z</time>
      </trkpt>
      <trkpt lat="45.21004" lon="5.83201">
        <ele>220.97</ele>
        <time>2021-04-02T15:43:38.000Z</time>
      </trkpt>
      <trkpt lat="45.2098" lon="5.83214">
        <ele>220.98</ele>
        <time>2021-04-02T15:43:43.000Z</time>
      </trkpt>
      <trkpt lat="45.20958" lon="5.83218">
        <ele>222.39</ele>
        <time>2021-04-02T15:43:48.000Z</time>
      </trkpt>
      <trkpt lat="45.20932" lon="5.83233">
        <ele>218.75</ele>
        <time>2021-04-02T15:43:53.000Z</time>
      </trkpt>
      <trkpt lat="45.20909" lon="5.83247">
        <ele>217.39</ele>
        <time>2021-04-02T15:43:58.000Z</time>
      </trkpt>
      <trkpt lat="45.20888" lon="5.83264">
        <ele>218.84</ele>
        <time>2021-04-02T15:44:03.000Z</time>
      </trkpt>
      <trkpt lat="45.20864" lon="5.83284">
        <ele>221.92</ele>
        <time>2021-04-02T15:44:08.000Z</time>
      </trkpt>
      <trkpt lat="45.20843" lon="5.83302">
        <ele>222.9</ele>
        <time>2021-04-02T15:44:13.000Z</time>
      </trkpt>
      <trkpt lat="45.20821" lon="5.83318">
        <ele>229.24</ele>
        <time>2021-04-02T15:44:18.000Z</time>
      </trkpt>
      <trkpt lat="45.20798" lon="5.83333">
        <ele>228.52</ele>
        <time>2021-04-02T15:44:23.000Z</time>
      </trkpt>
      <trkpt lat="45.20776" lon="5.83351">
        <ele>229.43</ele>
        <time>2021-04-02T15:44:28.000Z</time>
      </trkpt>
      <trkpt lat="45.20754" lon="5.83368">
        <ele>229.74</ele>
        <time>2021-04-02T15:44:33.000Z</time>
      </trkpt>
      <trkpt lat="45.20731" lon="5.83384">
        <ele>232.93</ele>
        <time>2021-04-02T15:44:38.000Z</time>
      </trkpt>
      <trkpt lat="45.20709" lon="5.83398">
        <ele>231.88</ele>
        <time>2021-04-02T15:44:43.000Z</time>
      </trkpt>
      <trkpt lat="45.20691" lon="5.83419">
        <ele>232.21</ele>
        <time>2021-04-02T15:44:48.000Z</time>
      </trkpt>
      <trkpt lat="45.20673" lon="5.83437">
        <ele>232.71</ele>
        <time>2021-04-02T15:44:53.000Z</time>
      </trkpt>
      <trkpt lat="45.20653" lon="5.83448">
        <ele>233.49</ele>
        <time>2021-04-02T15:44:58.000Z</time>
      </trkpt>
      <trkpt lat="45.20631" lon="5.83465">
        <ele>231.62</ele>
        <time>2021-04-02T15:45:03.000Z</time>
      </trkpt>
      <trkpt lat="45.20609" lon="5.83481">
        <ele>230.44</ele>
        <time>2021-04-02T15:45:08.000Z</time>
      </trkpt>
      <trkpt lat="45.20588" lon="5.83499">
        <ele>231.02</ele>
        <time>2021-04-02T15:45:13.000Z</time>
      </trkpt>
      <trkpt lat="45.20567" lon="5.83514">
        <ele>237.96</ele>
        <time>2021-04-02T15:45:18.000Z</time>
      </trkpt>
      <trkpt lat="45.20547" lon="5.83531">
        <ele>236.93</ele>
        <time>2021-04-02T15:45:23.000Z</time>
      </trkpt>
      <trkpt lat="45.20533" lon="5.8354">
        <ele>235</ele>
        <time>2021-04-02T15:45:28.000Z</time>
      </trkpt>
      <trkpt lat="45.20524" lon="5.83547">
        <ele>235.43</ele>
        <time>2021-04-02T15:45:33.000Z</time>
      </trkpt>
      <trkpt lat="45.20515" lon="5.83551">
        <ele>232.13</ele>
        <time>2021-04-02T15:45:44.000Z</time>
      </trkpt>
      <trkpt lat="45.20495" lon="5.83564">
        <ele>231.51</ele>
        <time>2021-04-02T15:45:49.000Z</time>
      </trkpt>
      <trkpt lat="45.20475" lon="5.83581">
        <ele>232.71</ele>
        <time>2021-04-02T15:45:54.000Z</time>
      </trkpt>
      <trkpt lat="45.20457" lon="5.836">
        <ele>235.92</ele>
        <time>2021-04-02T15:45:59.000Z</time>
      </trkpt>
      <trkpt lat="45.2044" lon="5.83616">
        <ele>236.89</ele>
        <time>2021-04-02T15:46:04.000Z</time>
      </trkpt>
      <trkpt lat="45.20425" lon="5.83631">
        <ele>239.17</ele>
        <time>2021-04-02T15:46:09.000Z</time>
      </trkpt>
      <trkpt lat="45.20408" lon="5.83647">
        <ele>240.54</ele>
        <time>2021-04-02T15:46:14.000Z</time>
      </trkpt>
      <trkpt lat="45.20391" lon="5.83665">
        <ele>239.37</ele>
        <time>2021-04-02T15:46:19.000Z</time>
      </trkpt>
      <trkpt lat="45.20372" lon="5.83681">
        <ele>240.79</ele>
        <time>2021-04-02T15:46:24.000Z</time>
      </trkpt>
      <trkpt lat="45.20353" lon="5.83699">
        <ele>242.33</ele>
        <time>2021-04-02T15:46:29.000Z</time>
      </trkpt>
      <trkpt lat="45.20336" lon="5.83719">
        <ele>240.81</ele>
        <time>2021-04-02T15:46:34.000Z</time>
      </trkpt>
      <trkpt lat="45.20319" lon="5.8374">
        <ele>240.93</ele>
        <time>2021-04-02T15:46:39.000Z</time>
      </trkpt>
      <trkpt lat="45.20302" lon="5.8376">
        <ele>243.31</ele>
        <time>2021-04-02T15:46:44.000Z</time>
      </trkpt>
      <trkpt lat="45.20291" lon="5.83776">
        <ele>244.83</ele>
        <time>2021-04-02T15:46:49.000Z</time>
      </trkpt>
      <trkpt lat="45.2029" lon="5.83762">
        <ele>257.16</ele>
        <time>2021-04-02T15:50:47.000Z</time>
      </trkpt>
      <trkpt lat="45.20293" lon="5.83774">
        <ele>238.55</ele>
        <time>2021-04-02T15:52:05.000Z</time>
      </trkpt>
      <trkpt lat="45.20288" lon="5.83762">
        <ele>245.59</ele>
        <time>2021-04-02T15:56:11.000Z</time>
      </trkpt>
      <trkpt lat="45.20298" lon="5.83757">
        <ele>243.97</ele>
        <time>2021-04-02T15:58:06.000Z</time>
      </trkpt>
      <trkpt lat="45.20301" lon="5.83769">
        <ele>236.3</ele>
        <time>2021-04-02T15:58:45.000Z</time>
      </trkpt>
      <trkpt lat="45.20292" lon="5.83771">
        <ele>233.58</ele>
        <time>2021-04-02T15:59:02.000Z</time>
      </trkpt>
      <trkpt lat="45.20282" lon="5.83787">
        <ele>234.52</ele>
        <time>2021-04-02T15:59:07.000Z</time>
      </trkpt>
      <trkpt lat="45.20265" lon="5.838">
        <ele>232.95</ele>
        <time>2021-04-02T15:59:12.000Z</time>
      </trkpt>
      <trkpt lat="45.20246" lon="5.8381">
        <ele>234.6</ele>
        <time>2021-04-02T15:59:17.000Z</time>
      </trkpt>
      <trkpt lat="45.20228" lon="5.83817">
        <ele>235.98</ele>
        <time>2021-04-02T15:59:22.000Z</time>
      </trkpt>
      <trkpt lat="45.20204" lon="5.83824">
        <ele>240.6</ele>
        <time>2021-04-02T15:59:27.000Z</time>
      </trkpt>
      <trkpt lat="45.20185" lon="5.83833">
        <ele>242.79</ele>
        <time>2021-04-02T15:59:32.000Z</time>
      </trkpt>
      <trkpt lat="45.20167" lon="5.83842">
        <ele>245.54</ele>
        <time>2021-04-02T15:59:37.000Z</time>
      </trkpt>
      <trkpt lat="45.2015" lon="5.83852">
        <ele>243.53</ele>
        <time>2021-04-02T15:59:42.000Z</time>
      </trkpt>
      <trkpt lat="45.20148" lon="5.83881">
        <ele>239.75</ele>
        <time>2021-04-02T15:59:47.000Z</time>
      </trkpt>
      <trkpt lat="45.20152" lon="5.83911">
        <ele>237.91</ele>
        <time>2021-04-02T15:59:52.000Z</time>
      </trkpt>
      <trkpt lat="45.20152" lon="5.83938">
        <ele>237.4</ele>
        <time>2021-04-02T15:59:57.000Z</time>
      </trkpt>
      <trkpt lat="45.20159" lon="5.83966">
        <ele>243.85</ele>
        <time>2021-04-02T16:00:02.000Z</time>
      </trkpt>
      <trkpt lat="45.20151" lon="5.8399">
        <ele>243.71</ele>
        <time>2021-04-02T16:00:07.000Z</time>
      </trkpt>
      <trkpt lat="45.20133" lon="5.8401">
        <ele>243.12</ele>
        <time>2021-04-02T16:00:12.000Z</time>
      </trkpt>
      <trkpt lat="45.20119" lon="5.84036">
        <ele>241.96</ele>
        <time>2021-04-02T16:00:17.000Z</time>
      </trkpt>
      <trkpt lat="45.20101" lon="5.84058">
        <ele>238.73</ele>
        <time>2021-04-02T16:00:22.000Z</time>
      </trkpt>
      <trkpt lat="45.20093" lon="5.84079">
        <ele>240.31</ele>
        <time>2021-04-02T16:00:27.000Z</time>
      </trkpt>
      <trkpt lat="45.20092" lon="5.84094">
        <ele>242.35</ele>
        <time>2021-04-02T16:00:32.000Z</time>
      </trkpt>
      <trkpt lat="45.20088" lon="5.84109">
        <ele>243.55</ele>
        <time>2021-04-02T16:00:50.000Z</time>
      </trkpt>
      <trkpt lat="45.20077" lon="5.84133">
        <ele>246.6</ele>
        <time>2021-04-02T16:00:55.000Z</time>
      </trkpt>
      <trkpt lat="45.20064" lon="5.8416">
        <ele>246.07</ele>
        <time>2021-04-02T16:01:00.000Z</time>
      </trkpt>
      <trkpt lat="45.20047" lon="5.84177">
        <ele>246.58</ele>
        <time>2021-04-02T16:01:05.000Z</time>
      </trkpt>
      <trkpt lat="45.20028" lon="5.84188">
        <ele>245.47</ele>
        <time>2021-04-02T16:01:10.000Z</time>
      </trkpt>
      <trkpt lat="45.20013" lon="5.84203">
        <ele>245.66</ele>
        <time>2021-04-02T16:01:15.000Z</time>
      </trkpt>
      <trkpt lat="45.19997" lon="5.84218">
        <ele>244.06</ele>
        <time>2021-04-02T16:01:20.000Z</time>
      </trkpt>
      <trkpt lat="45.19986" lon="5.84241">
        <ele>244.94</ele>
        <time>2021-04-02T16:01:25.000Z</time>
      </trkpt>
      <trkpt lat="45.19998" lon="5.84261">
        <ele>242.11</ele>
        <time>2021-04-02T16:01:30.000Z</time>
      </trkpt>
      <trkpt lat="45.2002" lon="5.8426">
        <ele>241.78</ele>
        <time>2021-04-02T16:01:35.000Z</time>
      </trkpt>
      <trkpt lat="45.2004" lon="5.84258">
        <ele>239.73</ele>
        <time>2021-04-02T16:01:40.000Z</time>
      </trkpt>
      <trkpt lat="45.20059" lon="5.84255">
        <ele>240.19</ele>
        <time>2021-04-02T16:01:45.000Z</time>
      </trkpt>
      <trkpt lat="45.20083" lon="5.84253">
        <ele>242.97</ele>
        <time>2021-04-02T16:01:50.000Z</time>
      </trkpt>
      <trkpt lat="45.20102" lon="5.84245">
        <ele>246.01</ele>
        <time>2021-04-02T16:01:55.000Z</time>
      </trkpt>
      <trkpt lat="45.20119" lon="5.84234">
        <ele>251.31</ele>
        <time>2021-04-02T16:02:00.000Z</time>
      </trkpt>
      <trkpt lat="45.20139" lon="5.84227">
        <ele>254.35</ele>
        <time>2021-04-02T16:02:05.000Z</time>
      </trkpt>
      <trkpt lat="45.20159" lon="5.84232">
        <ele>259.31</ele>
        <time>2021-04-02T16:02:10.000Z</time>
      </trkpt>
      <trkpt lat="45.20171" lon="5.84249">
        <ele>263.24</ele>
        <time>2021-04-02T16:02:15.000Z</time>
      </trkpt>
      <trkpt lat="45.20173" lon="5.84275">
        <ele>263.21</ele>
        <time>2021-04-02T16:02:20.000Z</time>
      </trkpt>
      <trkpt lat="45.20178" lon="5.84301">
        <ele>265.33</ele>
        <time>2021-04-02T16:02:25.000Z</time>
      </trkpt>
      <trkpt lat="45.2019" lon="5.84325">
        <ele>266.54</ele>
        <time>2021-04-02T16:02:30.000Z</time>
      </trkpt>
      <trkpt lat="45.20203" lon="5.84347">
        <ele>268.1</ele>
        <time>2021-04-02T16:02:35.000Z</time>
      </trkpt>
      <trkpt lat="45.20213" lon="5.84368">
        <ele>269.46</ele>
        <time>2021-04-02T16:02:40.000Z</time>
      </trkpt>
      <trkpt lat="45.2022" lon="5.84394">
        <ele>272.8</ele>
        <time>2021-04-02T16:02:45.000Z</time>
      </trkpt>
      <trkpt lat="45.20227" lon="5.8442">
        <ele>277.55</ele>
        <time>2021-04-02T16:02:50.000Z</time>
      </trkpt>
      <trkpt lat="45.20232" lon="5.84444">
        <ele>280.21</ele>
        <time>2021-04-02T16:02:55.000Z</time>
      </trkpt>
      <trkpt lat="45.20237" lon="5.84465">
        <ele>280.36</ele>
        <time>2021-04-02T16:03:00.000Z</time>
      </trkpt>
      <trkpt lat="45.2024" lon="5.84496">
        <ele>280.8</ele>
        <time>2021-04-02T16:03:05.000Z</time>
      </trkpt>
      <trkpt lat="45.20245" lon="5.8452">
        <ele>284.12</ele>
        <time>2021-04-02T16:03:10.000Z</time>
      </trkpt>
      <trkpt lat="45.2025" lon="5.84546">
        <ele>286.11</ele>
        <time>2021-04-02T16:03:15.000Z</time>
      </trkpt>
      <trkpt lat="45.20258" lon="5.84571">
        <ele>289.93</ele>
        <time>2021-04-02T16:03:20.000Z</time>
      </trkpt>
      <trkpt lat="45.20264" lon="5.84594">
        <ele>290.41</ele>
        <time>2021-04-02T16:03:25.000Z</time>
      </trkpt>
      <trkpt lat="45.20269" lon="5.84621">
        <ele>291.43</ele>
        <time>2021-04-02T16:03:30.000Z</time>
      </trkpt>
      <trkpt lat="45.20279" lon="5.84645">
        <ele>292.32</ele>
        <time>2021-04-02T16:03:35.000Z</time>
      </trkpt>
      <trkpt lat="45.20291" lon="5.84665">
        <ele>293.43</ele>
        <time>2021-04-02T16:03:40.000Z</time>
      </trkpt>
      <trkpt lat="45.20296" lon="5.84689">
        <ele>295.56</ele>
        <time>2021-04-02T16:03:45.000Z</time>
      </trkpt>
      <trkpt lat="45.203" lon="5.84717">
        <ele>299.26</ele>
        <time>2021-04-02T16:03:50.000Z</time>
      </trkpt>
      <trkpt lat="45.20308" lon="5.84743">
        <ele>301.74</ele>
        <time>2021-04-02T16:03:55.000Z</time>
      </trkpt>
      <trkpt lat="45.20311" lon="5.84769">
        <ele>300.41</ele>
        <time>2021-04-02T16:04:00.000Z</time>
      </trkpt>
      <trkpt lat="45.20314" lon="5.84793">
        <ele>302.9</ele>
        <time>2021-04-02T16:04:05.000Z</time>
      </trkpt>
      <trkpt lat="45.20323" lon="5.84819">
        <ele>307.14</ele>
        <time>2021-04-02T16:04:10.000Z</time>
      </trkpt>
      <trkpt lat="45.20331" lon="5.84844">
        <ele>313.32</ele>
        <time>2021-04-02T16:04:15.000Z</time>
      </trkpt>
      <trkpt lat="45.20339" lon="5.84868">
        <ele>316.47</ele>
        <time>2021-04-02T16:04:20.000Z</time>
      </trkpt>
      <trkpt lat="45.2035" lon="5.84892">
        <ele>319.42</ele>
        <time>2021-04-02T16:04:25.000Z</time>
      </trkpt>
      <trkpt lat="45.20359" lon="5.84915">
        <ele>321.85</ele>
        <time>2021-04-02T16:04:30.000Z</time>
      </trkpt>
      <trkpt lat="45.20368" lon="5.84938">
        <ele>323.53</ele>
        <time>2021-04-02T16:04:35.000Z</time>
      </trkpt>
      <trkpt lat="45.20376" lon="5.84962">
        <ele>324.84</ele>
        <time>2021-04-02T16:04:40.000Z</time>
      </trkpt>
      <trkpt lat="45.20379" lon="5.84987">
        <ele>325.14</ele>
        <time>2021-04-02T16:04:45.000Z</time>
      </trkpt>
      <trkpt lat="45.20387" lon="5.85013">
        <ele>326.46</ele>
        <time>2021-04-02T16:04:50.000Z</time>
      </trkpt>
      <trkpt lat="45.20392" lon="5.85042">
        <ele>326.16</ele>
        <time>2021-04-02T16:04:55.000Z</time>
      </trkpt>
      <trkpt lat="45.20402" lon="5.85063">
        <ele>328.49</ele>
        <time>2021-04-02T16:05:00.000Z</time>
      </trkpt>
      <trkpt lat="45.20415" lon="5.85086">
        <ele>330.07</ele>
        <time>2021-04-02T16:05:05.000Z</time>
      </trkpt>
      <trkpt lat="45.20415" lon="5.85111">
        <ele>331.27</ele>
        <time>2021-04-02T16:05:10.000Z</time>
      </trkpt>
      <trkpt lat="45.204" lon="5.85105">
        <ele>334.45</ele>
        <time>2021-04-02T16:05:15.000Z</time>
      </trkpt>
      <trkpt lat="45.20395" lon="5.85075">
        <ele>336.88</ele>
        <time>2021-04-02T16:05:20.000Z</time>
      </trkpt>
      <trkpt lat="45.20385" lon="5.85054">
        <ele>340</ele>
        <time>2021-04-02T16:05:25.000Z</time>
      </trkpt>
      <trkpt lat="45.20372" lon="5.85034">
        <ele>340.08</ele>
        <time>2021-04-02T16:05:30.000Z</time>
      </trkpt>
      <trkpt lat="45.2036" lon="5.85012">
        <ele>341.69</ele>
        <time>2021-04-02T16:05:35.000Z</time>
      </trkpt>
      <trkpt lat="45.20352" lon="5.84986">
        <ele>345.43</ele>
        <time>2021-04-02T16:05:40.000Z</time>
      </trkpt>
      <trkpt lat="45.20343" lon="5.84964">
        <ele>345.95</ele>
        <time>2021-04-02T16:05:45.000Z</time>
      </trkpt>
      <trkpt lat="45.20331" lon="5.8494">
        <ele>350.29</ele>
        <time>2021-04-02T16:05:50.000Z</time>
      </trkpt>
      <trkpt lat="45.20315" lon="5.84923">
        <ele>351.03</ele>
        <time>2021-04-02T16:05:55.000Z</time>
      </trkpt>
      <trkpt lat="45.20302" lon="5.84903">
        <ele>351.56</ele>
        <time>2021-04-02T16:06:00.000Z</time>
      </trkpt>
      <trkpt lat="45.20288" lon="5.84881">
        <ele>351.43</ele>
        <time>2021-04-02T16:06:05.000Z</time>
      </trkpt>
      <trkpt lat="45.2028" lon="5.8486">
        <ele>352.76</ele>
        <time>2021-04-02T16:06:10.000Z</time>
      </trkpt>
      <trkpt lat="45.20277" lon="5.84837">
        <ele>353.48</ele>
        <time>2021-04-02T16:06:15.000Z</time>
      </trkpt>
      <trkpt lat="45.20271" lon="5.84815">
        <ele>358.56</ele>
        <time>2021-04-02T16:06:20.000Z</time>
      </trkpt>
      <trkpt lat="45.20266" lon="5.84791">
        <ele>359.19</ele>
        <time>2021-04-02T16:06:25.000Z</time>
      </trkpt>
      <trkpt lat="45.20262" lon="5.84769">
        <ele>363.02</ele>
        <time>2021-04-02T16:06:30.000Z</time>
      </trkpt>
      <trkpt lat="45.20252" lon="5.84749">
        <ele>364.38</ele>
        <time>2021-04-02T16:06:35.000Z</time>
      </trkpt>
      <trkpt lat="45.20232" lon="5.84724">
        <ele>365.08</ele>
        <time>2021-04-02T16:06:40.000Z</time>
      </trkpt>
      <trkpt lat="45.20212" lon="5.84712">
        <ele>362.7</ele>
        <time>2021-04-02T16:06:45.000Z</time>
      </trkpt>
      <trkpt lat="45.202" lon="5.84693">
        <ele>364.36</ele>
        <time>2021-04-02T16:06:50.000Z</time>
      </trkpt>
      <trkpt lat="45.2019" lon="5.84676">
        <ele>368.22</ele>
        <time>2021-04-02T16:06:55.000Z</time>
      </trkpt>
      <trkpt lat="45.20184" lon="5.84654">
        <ele>369.97</ele>
        <time>2021-04-02T16:07:00.000Z</time>
      </trkpt>
      <trkpt lat="45.20173" lon="5.84631">
        <ele>367.45</ele>
        <time>2021-04-02T16:07:05.000Z</time>
      </trkpt>
      <trkpt lat="45.2016" lon="5.84608">
        <ele>367.92</ele>
        <time>2021-04-02T16:07:10.000Z</time>
      </trkpt>
      <trkpt lat="45.20153" lon="5.84586">
        <ele>372.09</ele>
        <time>2021-04-02T16:07:15.000Z</time>
      </trkpt>
      <trkpt lat="45.20144" lon="5.84564">
        <ele>368.93</ele>
        <time>2021-04-02T16:07:20.000Z</time>
      </trkpt>
      <trkpt lat="45.20134" lon="5.84539">
        <ele>370.15</ele>
        <time>2021-04-02T16:07:25.000Z</time>
      </trkpt>
      <trkpt lat="45.20125" lon="5.84516">
        <ele>372.1</ele>
        <time>2021-04-02T16:07:30.000Z</time>
      </trkpt>
      <trkpt lat="45.20118" lon="5.84493">
        <ele>377.77</ele>
        <time>2021-04-02T16:07:35.000Z</time>
      </trkpt>
      <trkpt lat="45.20101" lon="5.84475">
        <ele>377.2</ele>
        <time>2021-04-02T16:07:40.000Z</time>
      </trkpt>
      <trkpt lat="45.20085" lon="5.84461">
        <ele>379.17</ele>
        <time>2021-04-02T16:07:45.000Z</time>
      </trkpt>
      <trkpt lat="45.20067" lon="5.84464">
        <ele>376.18</ele>
        <time>2021-04-02T16:07:50.000Z</time>
      </trkpt>
      <trkpt lat="45.20045" lon="5.84468">
        <ele>377.93</ele>
        <time>2021-04-02T16:07:55.000Z</time>
      </trkpt>
      <trkpt lat="45.20025" lon="5.84477">
        <ele>376.37</ele>
        <time>2021-04-02T16:08:00.000Z</time>
      </trkpt>
      <trkpt lat="45.20005" lon="5.84485">
        <ele>379.72</ele>
        <time>2021-04-02T16:08:05.000Z</time>
      </trkpt>
      <trkpt lat="45.19984" lon="5.84491">
        <ele>379.42</ele>
        <time>2021-04-02T16:08:10.000Z</time>
      </trkpt>
      <trkpt lat="45.19964" lon="5.84491">
        <ele>382.44</ele>
        <time>2021-04-02T16:08:15.000Z</time>
      </trkpt>
      <trkpt lat="45.19948" lon="5.84504">
        <ele>389.36</ele>
        <time>2021-04-02T16:08:20.000Z</time>
      </trkpt>
      <trkpt lat="45.19936" lon="5.8452">
        <ele>389.89</ele>
        <time>2021-04-02T16:08:25.000Z</time>
      </trkpt>
      <trkpt lat="45.19927" lon="5.84541">
        <ele>388</ele>
        <time>2021-04-02T16:08:30.000Z</time>
      </trkpt>
      <trkpt lat="45.19919" lon="5.84562">
        <ele>389.22</ele>
        <time>2021-04-02T16:08:35.000Z</time>
      </trkpt>
      <trkpt lat="45.19911" lon="5.84585">
        <ele>391.85</ele>
        <time>2021-04-02T16:08:40.000Z</time>
      </trkpt>
      <trkpt lat="45.19897" lon="5.84603">
        <ele>393.79</ele>
        <time>2021-04-02T16:08:45.000Z</time>
      </trkpt>
      <trkpt lat="45.19884" lon="5.84619">
        <ele>397.69</ele>
        <time>2021-04-02T16:08:50.000Z</time>
      </trkpt>
      <trkpt lat="45.19872" lon="5.8464">
        <ele>401.69</ele>
        <time>2021-04-02T16:08:55.000Z</time>
      </trkpt>
      <trkpt lat="45.19858" lon="5.84659">
        <ele>405.19</ele>
        <time>2021-04-02T16:09:00.000Z</time>
      </trkpt>
      <trkpt lat="45.19849" lon="5.84681">
        <ele>409.84</ele>
        <time>2021-04-02T16:09:05.000Z</time>
      </trkpt>
      <trkpt lat="45.19844" lon="5.84708">
        <ele>411.93</ele>
        <time>2021-04-02T16:09:10.000Z</time>
      </trkpt>
      <trkpt lat="45.1985" lon="5.84733">
        <ele>414.13</ele>
        <time>2021-04-02T16:09:15.000Z</time>
      </trkpt>
      <trkpt lat="45.19861" lon="5.84757">
        <ele>413.53</ele>
        <time>2021-04-02T16:09:20.000Z</time>
      </trkpt>
      <trkpt lat="45.1986" lon="5.84774">
        <ele>412.69</ele>
        <time>2021-04-02T16:09:25.000Z</time>
      </trkpt>
      <trkpt lat="45.19843" lon="5.84779">
        <ele>412.25</ele>
        <time>2021-04-02T16:09:30.000Z</time>
      </trkpt>
      <trkpt lat="45.19823" lon="5.84784">
        <ele>414.07</ele>
        <time>2021-04-02T16:09:35.000Z</time>
      </trkpt>
      <trkpt lat="45.19803" lon="5.84795">
        <ele>416.76</ele>
        <time>2021-04-02T16:09:40.000Z</time>
      </trkpt>
      <trkpt lat="45.19785" lon="5.84805">
        <ele>422.56</ele>
        <time>2021-04-02T16:09:45.000Z</time>
      </trkpt>
      <trkpt lat="45.19767" lon="5.84813">
        <ele>423.68</ele>
        <time>2021-04-02T16:09:50.000Z</time>
      </trkpt>
      <trkpt lat="45.19749" lon="5.84825">
        <ele>423.69</ele>
        <time>2021-04-02T16:09:55.000Z</time>
      </trkpt>
      <trkpt lat="45.19729" lon="5.84832">
        <ele>425.54</ele>
        <time>2021-04-02T16:10:00.000Z</time>
      </trkpt>
      <trkpt lat="45.19711" lon="5.84837">
        <ele>428.82</ele>
        <time>2021-04-02T16:10:05.000Z</time>
      </trkpt>
      <trkpt lat="45.19695" lon="5.84853">
        <ele>430.88</ele>
        <time>2021-04-02T16:10:10.000Z</time>
      </trkpt>
      <trkpt lat="45.1968" lon="5.84866">
        <ele>430.25</ele>
        <time>2021-04-02T16:10:15.000Z</time>
      </trkpt>
      <trkpt lat="45.19663" lon="5.8488">
        <ele>434.41</ele>
        <time>2021-04-02T16:10:20.000Z</time>
      </trkpt>
      <trkpt lat="45.19652" lon="5.84901">
        <ele>437.82</ele>
        <time>2021-04-02T16:10:25.000Z</time>
      </trkpt>
      <trkpt lat="45.19637" lon="5.84919">
        <ele>436.41</ele>
        <time>2021-04-02T16:10:30.000Z</time>
      </trkpt>
      <trkpt lat="45.19629" lon="5.84941">
        <ele>439.64</ele>
        <time>2021-04-02T16:10:35.000Z</time>
      </trkpt>
      <trkpt lat="45.19614" lon="5.84954">
        <ele>441.39</ele>
        <time>2021-04-02T16:10:40.000Z</time>
      </trkpt>
      <trkpt lat="45.19595" lon="5.84963">
        <ele>445.59</ele>
        <time>2021-04-02T16:10:45.000Z</time>
      </trkpt>
      <trkpt lat="45.19578" lon="5.84977">
        <ele>447.24</ele>
        <time>2021-04-02T16:10:50.000Z</time>
      </trkpt>
      <trkpt lat="45.19562" lon="5.84993">
        <ele>446.62</ele>
        <time>2021-04-02T16:10:55.000Z</time>
      </trkpt>
      <trkpt lat="45.19544" lon="5.85004">
        <ele>450.24</ele>
        <time>2021-04-02T16:11:00.000Z</time>
      </trkpt>
      <trkpt lat="45.19527" lon="5.85013">
        <ele>453.43</ele>
        <time>2021-04-02T16:11:05.000Z</time>
      </trkpt>
      <trkpt lat="45.1951" lon="5.85023">
        <ele>460.93</ele>
        <time>2021-04-02T16:11:10.000Z</time>
      </trkpt>
      <trkpt lat="45.19494" lon="5.85036">
        <ele>465.52</ele>
        <time>2021-04-02T16:11:15.000Z</time>
      </trkpt>
      <trkpt lat="45.19478" lon="5.85053">
        <ele>464.75</ele>
        <time>2021-04-02T16:11:20.000Z</time>
      </trkpt>
      <trkpt lat="45.19467" lon="5.85077">
        <ele>465.89</ele>
        <time>2021-04-02T16:11:25.000Z</time>
      </trkpt>
      <trkpt lat="45.19464" lon="5.85104">
        <ele>468.48</ele>
        <time>2021-04-02T16:11:30.000Z</time>
      </trkpt>
      <trkpt lat="45.19463" lon="5.85129">
        <ele>472.57</ele>
        <time>2021-04-02T16:11:35.000Z</time>
      </trkpt>
      <trkpt lat="45.19462" lon="5.85151">
        <ele>473.5</ele>
        <time>2021-04-02T16:11:40.000Z</time>
      </trkpt>
      <trkpt lat="45.19456" lon="5.85172">
        <ele>474.56</ele>
        <time>2021-04-02T16:11:45.000Z</time>
      </trkpt>
      <trkpt lat="45.19438" lon="5.85176">
        <ele>473.92</ele>
        <time>2021-04-02T16:11:50.000Z</time>
      </trkpt>
      <trkpt lat="45.19419" lon="5.8517">
        <ele>475.33</ele>
        <time>2021-04-02T16:11:55.000Z</time>
      </trkpt>
      <trkpt lat="45.19403" lon="5.85179">
        <ele>477.58</ele>
        <time>2021-04-02T16:12:00.000Z</time>
      </trkpt>
      <trkpt lat="45.19392" lon="5.85207">
        <ele>477.6</ele>
        <time>2021-04-02T16:12:05.000Z</time>
      </trkpt>
      <trkpt lat="45.19386" lon="5.85232">
        <ele>479.32</ele>
        <time>2021-04-02T16:12:10.000Z</time>
      </trkpt>
      <trkpt lat="45.19377" lon="5.85251">
        <ele>476.35</ele>
        <time>2021-04-02T16:12:15.000Z</time>
      </trkpt>
      <trkpt lat="45.19376" lon="5.85278">
        <ele>478.75</ele>
        <time>2021-04-02T16:12:20.000Z</time>
      </trkpt>
      <trkpt lat="45.19374" lon="5.85302">
        <ele>479.41</ele>
        <time>2021-04-02T16:12:25.000Z</time>
      </trkpt>
      <trkpt lat="45.19374" lon="5.85321">
        <ele>481.08</ele>
        <time>2021-04-02T16:12:30.000Z</time>
      </trkpt>
      <trkpt lat="45.19376" lon="5.85346">
        <ele>483.4</ele>
        <time>2021-04-02T16:12:35.000Z</time>
      </trkpt>
      <trkpt lat="45.19372" lon="5.8536">
        <ele>487.44</ele>
        <time>2021-04-02T16:12:40.000Z</time>
      </trkpt>
      <trkpt lat="45.1936" lon="5.8536">
        <ele>493.44</ele>
        <time>2021-04-02T16:15:12.000Z</time>
      </trkpt>
      <trkpt lat="45.19344" lon="5.85335">
        <ele>492.75</ele>
        <time>2021-04-02T16:15:17.000Z</time>
      </trkpt>
      <trkpt lat="45.19319" lon="5.85323">
        <ele>492.59</ele>
        <time>2021-04-02T16:15:22.000Z</time>
      </trkpt>
      <trkpt lat="45.19299" lon="5.8533">
        <ele>494.89</ele>
        <time>2021-04-02T16:15:27.000Z</time>
      </trkpt>
      <trkpt lat="45.19281" lon="5.85338">
        <ele>493.18</ele>
        <time>2021-04-02T16:15:32.000Z</time>
      </trkpt>
      <trkpt lat="45.19262" lon="5.85348">
        <ele>497.07</ele>
        <time>2021-04-02T16:15:37.000Z</time>
      </trkpt>
      <trkpt lat="45.19246" lon="5.85354">
        <ele>495.28</ele>
        <time>2021-04-02T16:15:42.000Z</time>
      </trkpt>
      <trkpt lat="45.19228" lon="5.85361">
        <ele>497.88</ele>
        <time>2021-04-02T16:15:47.000Z</time>
      </trkpt>
      <trkpt lat="45.19211" lon="5.85363">
        <ele>494.55</ele>
        <time>2021-04-02T16:15:52.000Z</time>
      </trkpt>
      <trkpt lat="45.19191" lon="5.85373">
        <ele>498.15</ele>
        <time>2021-04-02T16:15:57.000Z</time>
      </trkpt>
      <trkpt lat="45.19172" lon="5.85388">
        <ele>501.73</ele>
        <time>2021-04-02T16:16:02.000Z</time>
      </trkpt>
      <trkpt lat="45.19154" lon="5.85406">
        <ele>502.44</ele>
        <time>2021-04-02T16:16:07.000Z</time>
      </trkpt>
      <trkpt lat="45.19139" lon="5.85421">
        <ele>507.27</ele>
        <time>2021-04-02T16:16:12.000Z</time>
      </trkpt>
      <trkpt lat="45.19124" lon="5.85438">
        <ele>509.77</ele>
        <time>2021-04-02T16:16:17.000Z</time>
      </trkpt>
      <trkpt lat="45.1911" lon="5.85454">
        <ele>512.37</ele>
        <time>2021-04-02T16:16:22.000Z</time>
      </trkpt>
      <trkpt lat="45.19096" lon="5.8547">
        <ele>513.33</ele>
        <time>2021-04-02T16:16:27.000Z</time>
      </trkpt>
      <trkpt lat="45.19074" lon="5.85481">
        <ele>515.03</ele>
        <time>2021-04-02T16:16:32.000Z</time>
      </trkpt>
      <trkpt lat="45.1906" lon="5.8549">
        <ele>515.7</ele>
        <time>2021-04-02T16:16:37.000Z</time>
      </trkpt>
      <trkpt lat="45.19044" lon="5.85501">
        <ele>514.88</ele>
        <time>2021-04-02T16:16:42.000Z</time>
      </trkpt>
      <trkpt lat="45.19025" lon="5.85511">
        <ele>518.02</ele>
        <time>2021-04-02T16:16:47.000Z</time>
      </trkpt>
      <trkpt lat="45.19005" lon="5.85522">
        <ele>520.73</ele>
        <time>2021-04-02T16:16:52.000Z</time>
      </trkpt>
      <trkpt lat="45.1899" lon="5.85539">
        <ele>525.27</ele>
        <time>2021-04-02T16:16:57.000Z</time>
      </trkpt>
      <trkpt lat="45.18977" lon="5.85558">
        <ele>524.62</ele>
        <time>2021-04-02T16:17:02.000Z</time>
      </trkpt>
      <trkpt lat="45.1897" lon="5.85583">
        <ele>526.28</ele>
        <time>2021-04-02T16:17:07.000Z</time>
      </trkpt>
      <trkpt lat="45.18962" lon="5.85608">
        <ele>524.13</ele>
        <time>2021-04-02T16:17:12.000Z</time>
      </trkpt>
      <trkpt lat="45.18954" lon="5.85632">
        <ele>524.63</ele>
        <time>2021-04-02T16:17:17.000Z</time>
      </trkpt>
      <trkpt lat="45.18941" lon="5.85652">
        <ele>526.29</ele>
        <time>2021-04-02T16:17:22.000Z</time>
      </trkpt>
      <trkpt lat="45.18939" lon="5.85675">
        <ele>528.19</ele>
        <time>2021-04-02T16:17:27.000Z</time>
      </trkpt>
      <trkpt lat="45.18943" lon="5.85701">
        <ele>529.69</ele>
        <time>2021-04-02T16:17:32.000Z</time>
      </trkpt>
      <trkpt lat="45.18946" lon="5.85725">
        <ele>534.46</ele>
        <time>2021-04-02T16:17:37.000Z</time>
      </trkpt>
      <trkpt lat="45.18952" lon="5.8575">
        <ele>534.31</ele>
        <time>2021-04-02T16:17:42.000Z</time>
      </trkpt>
      <trkpt lat="45.18957" lon="5.85778">
        <ele>535.26</ele>
        <time>2021-04-02T16:17:47.000Z</time>
      </trkpt>
      <trkpt lat="45.18958" lon="5.85805">
        <ele>538.18</ele>
        <time>2021-04-02T16:17:52.000Z</time>
      </trkpt>
      <trkpt lat="45.18959" lon="5.85829">
        <ele>537.78</ele>
        <time>2021-04-02T16:17:57.000Z</time>
      </trkpt>
      <trkpt lat="45.18959" lon="5.85856">
        <ele>538.48</ele>
        <time>2021-04-02T16:18:02.000Z</time>
      </trkpt>
      <trkpt lat="45.18959" lon="5.85883">
        <ele>542.57</ele>
        <time>2021-04-02T16:18:07.000Z</time>
      </trkpt>
      <trkpt lat="45.18964" lon="5.85911">
        <ele>544.28</ele>
        <time>2021-04-02T16:18:12.000Z</time>
      </trkpt>
      <trkpt lat="45.18968" lon="5.8594">
        <ele>546.8</ele>
        <time>2021-04-02T16:18:17.000Z</time>
      </trkpt>
      <trkpt lat="45.18969" lon="5.85964">
        <ele>548.51</ele>
        <time>2021-04-02T16:18:22.000Z</time>
      </trkpt>
      <trkpt lat="45.18966" lon="5.85983">
        <ele>551.62</ele>
        <time>2021-04-02T16:18:27.000Z</time>
      </trkpt>
      <trkpt lat="45.1896" lon="5.86007">
        <ele>551.65</ele>
        <time>2021-04-02T16:18:32.000Z</time>
      </trkpt>
      <trkpt lat="45.18954" lon="5.86034">
        <ele>553.44</ele>
        <time>2021-04-02T16:18:37.000Z</time>
      </trkpt>
      <trkpt lat="45.18947" lon="5.86061">
        <ele>554.7</ele>
        <time>2021-04-02T16:18:42.000Z</time>
      </trkpt>
      <trkpt lat="45.1894" lon="5.86089">
        <ele>557.5</ele>
        <time>2021-04-02T16:18:47.000Z</time>
      </trkpt>
      <trkpt lat="45.18937" lon="5.86114">
        <ele>557.1</ele>
        <time>2021-04-02T16:18:52.000Z</time>
      </trkpt>
      <trkpt lat="45.18936" lon="5.86142">
        <ele>557.8</ele>
        <time>2021-04-02T16:18:57.000Z</time>
      </trkpt>
      <trkpt lat="45.18936" lon="5.86171">
        <ele>558.79</ele>
        <time>2021-04-02T16:19:02.000Z</time>
      </trkpt>
      <trkpt lat="45.18932" lon="5.86199">
        <ele>559.97</ele>
        <time>2021-04-02T16:19:07.000Z</time>
      </trkpt>
      <trkpt lat="45.18927" lon="5.86227">
        <ele>561.21</ele>
        <time>2021-04-02T16:19:12.000Z</time>
      </trkpt>
      <trkpt lat="45.18921" lon="5.86254">
        <ele>562.42</ele>
        <time>2021-04-02T16:19:17.000Z</time>
      </trkpt>
      <trkpt lat="45.18916" lon="5.8628">
        <ele>563.33</ele>
        <time>2021-04-02T16:19:22.000Z</time>
      </trkpt>
      <trkpt lat="45.1891" lon="5.86304">
        <ele>563.25</ele>
        <time>2021-04-02T16:19:27.000Z</time>
      </trkpt>
      <trkpt lat="45.18907" lon="5.86334">
        <ele>563.18</ele>
        <time>2021-04-02T16:19:32.000Z</time>
      </trkpt>
      <trkpt lat="45.18901" lon="5.86362">
        <ele>564.69</ele>
        <time>2021-04-02T16:19:37.000Z</time>
      </trkpt>
      <trkpt lat="45.1889" lon="5.86387">
        <ele>566.86</ele>
        <time>2021-04-02T16:19:42.000Z</time>
      </trkpt>
      <trkpt lat="45.18871" lon="5.86405">
        <ele>571.42</ele>
        <time>2021-04-02T16:19:47.000Z</time>
      </trkpt>
      <trkpt lat="45.18855" lon="5.86423">
        <ele>572.67</ele>
        <time>2021-04-02T16:19:52.000Z</time>
      </trkpt>
      <trkpt lat="45.1884" lon="5.86441">
        <ele>573.04</ele>
        <time>2021-04-02T16:19:57.000Z</time>
      </trkpt>
      <trkpt lat="45.18823" lon="5.86455">
        <ele>576.78</ele>
        <time>2021-04-02T16:20:02.000Z</time>
      </trkpt>
      <trkpt lat="45.18805" lon="5.86459">
        <ele>579.89</ele>
        <time>2021-04-02T16:20:07.000Z</time>
      </trkpt>
      <trkpt lat="45.18788" lon="5.8646">
        <ele>580.33</ele>
        <time>2021-04-02T16:20:12.000Z</time>
      </trkpt>
      <trkpt lat="45.18774" lon="5.86478">
        <ele>583.01</ele>
        <time>2021-04-02T16:20:17.000Z</time>
      </trkpt>
      <trkpt lat="45.18776" lon="5.86507">
        <ele>587.17</ele>
        <time>2021-04-02T16:20:22.000Z</time>
      </trkpt>
      <trkpt lat="45.18785" lon="5.86535">
        <ele>589.12</ele>
        <time>2021-04-02T16:20:27.000Z</time>
      </trkpt>
      <trkpt lat="45.18793" lon="5.86563">
        <ele>590.17</ele>
        <time>2021-04-02T16:20:32.000Z</time>
      </trkpt>
      <trkpt lat="45.18798" lon="5.8659">
        <ele>592.57</ele>
        <time>2021-04-02T16:20:37.000Z</time>
      </trkpt>
      <trkpt lat="45.18798" lon="5.86617">
        <ele>592.49</ele>
        <time>2021-04-02T16:20:42.000Z</time>
      </trkpt>
      <trkpt lat="45.18792" lon="5.86639">
        <ele>594.61</ele>
        <time>2021-04-02T16:20:47.000Z</time>
      </trkpt>
      <trkpt lat="45.18782" lon="5.86661">
        <ele>595.67</ele>
        <time>2021-04-02T16:20:52.000Z</time>
      </trkpt>
      <trkpt lat="45.18769" lon="5.86678">
        <ele>596.48</ele>
        <time>2021-04-02T16:20:57.000Z</time>
      </trkpt>
      <trkpt lat="45.18754" lon="5.86695">
        <ele>598.97</ele>
        <time>2021-04-02T16:21:02.000Z</time>
      </trkpt>
      <trkpt lat="45.18739" lon="5.86709">
        <ele>598.9</ele>
        <time>2021-04-02T16:21:07.000Z</time>
      </trkpt>
      <trkpt lat="45.18723" lon="5.86725">
        <ele>602.4</ele>
        <time>2021-04-02T16:21:12.000Z</time>
      </trkpt>
      <trkpt lat="45.18709" lon="5.86746">
        <ele>605.35</ele>
        <time>2021-04-02T16:21:17.000Z</time>
      </trkpt>
      <trkpt lat="45.18697" lon="5.86766">
        <ele>609.56</ele>
        <time>2021-04-02T16:21:22.000Z</time>
      </trkpt>
      <trkpt lat="45.18688" lon="5.86788">
        <ele>608.49</ele>
        <time>2021-04-02T16:21:27.000Z</time>
      </trkpt>
      <trkpt lat="45.18679" lon="5.86812">
        <ele>608.67</ele>
        <time>2021-04-02T16:21:32.000Z</time>
      </trkpt>
      <trkpt lat="45.18667" lon="5.86834">
        <ele>611.17</ele>
        <time>2021-04-02T16:21:37.000Z</time>
      </trkpt>
      <trkpt lat="45.18658" lon="5.86857">
        <ele>612.95</ele>
        <time>2021-04-02T16:21:42.000Z</time>
      </trkpt>
      <trkpt lat="45.18655" lon="5.86888">
        <ele>612.51</ele>
        <time>2021-04-02T16:21:47.000Z</time>
      </trkpt>
      <trkpt lat="45.18648" lon="5.86914">
        <ele>613.72</ele>
        <time>2021-04-02T16:21:52.000Z</time>
      </trkpt>
      <trkpt lat="45.18631" lon="5.86922">
        <ele>614.34</ele>
        <time>2021-04-02T16:21:57.000Z</time>
      </trkpt>
      <trkpt lat="45.18614" lon="5.86911">
        <ele>615.67</ele>
        <time>2021-04-02T16:22:02.000Z</time>
      </trkpt>
      <trkpt lat="45.18601" lon="5.86883">
        <ele>614.94</ele>
        <time>2021-04-02T16:22:07.000Z</time>
      </trkpt>
      <trkpt lat="45.18593" lon="5.86858">
        <ele>614.85</ele>
        <time>2021-04-02T16:22:12.000Z</time>
      </trkpt>
      <trkpt lat="45.1858" lon="5.86858">
        <ele>616.95</ele>
        <time>2021-04-02T16:22:17.000Z</time>
      </trkpt>
      <trkpt lat="45.18568" lon="5.86874">
        <ele>619.17</ele>
        <time>2021-04-02T16:22:22.000Z</time>
      </trkpt>
      <trkpt lat="45.18578" lon="5.86899">
        <ele>620.38</ele>
        <time>2021-04-02T16:22:27.000Z</time>
      </trkpt>
      <trkpt lat="45.18586" lon="5.86924">
        <ele>622.38</ele>
        <time>2021-04-02T16:22:32.000Z</time>
      </trkpt>
      <trkpt lat="45.18592" lon="5.86953">
        <ele>627.31</ele>
        <time>2021-04-02T16:22:37.000Z</time>
      </trkpt>
      <trkpt lat="45.18591" lon="5.86984">
        <ele>631.24</ele>
        <time>2021-04-02T16:22:42.000Z</time>
      </trkpt>
      <trkpt lat="45.18582" lon="5.87009">
        <ele>631.5</ele>
        <time>2021-04-02T16:22:47.000Z</time>
      </trkpt>
      <trkpt lat="45.18572" lon="5.87035">
        <ele>631.73</ele>
        <time>2021-04-02T16:22:52.000Z</time>
      </trkpt>
      <trkpt lat="45.1856" lon="5.87054">
        <ele>635.83</ele>
        <time>2021-04-02T16:22:57.000Z</time>
      </trkpt>
      <trkpt lat="45.18542" lon="5.87058">
        <ele>637.82</ele>
        <time>2021-04-02T16:23:02.000Z</time>
      </trkpt>
      <trkpt lat="45.18525" lon="5.87053">
        <ele>641.68</ele>
        <time>2021-04-02T16:23:07.000Z</time>
      </trkpt>
      <trkpt lat="45.1851" lon="5.87054">
        <ele>641.95</ele>
        <time>2021-04-02T16:23:12.000Z</time>
      </trkpt>
      <trkpt lat="45.18498" lon="5.87069">
        <ele>641.01</ele>
        <time>2021-04-02T16:23:17.000Z</time>
      </trkpt>
      <trkpt lat="45.18484" lon="5.87084">
        <ele>643.53</ele>
        <time>2021-04-02T16:23:22.000Z</time>
      </trkpt>
      <trkpt lat="45.18467" lon="5.87093">
        <ele>645.78</ele>
        <time>2021-04-02T16:23:27.000Z</time>
      </trkpt>
      <trkpt lat="45.18449" lon="5.87098">
        <ele>647.3</ele>
        <time>2021-04-02T16:23:32.000Z</time>
      </trkpt>
      <trkpt lat="45.18432" lon="5.87105">
        <ele>649.12</ele>
        <time>2021-04-02T16:23:37.000Z</time>
      </trkpt>
      <trkpt lat="45.18414" lon="5.87114">
        <ele>649.43</ele>
        <time>2021-04-02T16:23:42.000Z</time>
      </trkpt>
      <trkpt lat="45.18401" lon="5.8713">
        <ele>649.75</ele>
        <time>2021-04-02T16:23:47.000Z</time>
      </trkpt>
      <trkpt lat="45.18403" lon="5.87153">
        <ele>650.41</ele>
        <time>2021-04-02T16:23:52.000Z</time>
      </trkpt>
      <trkpt lat="45.18414" lon="5.87167">
        <ele>651.96</ele>
        <time>2021-04-02T16:23:57.000Z</time>
      </trkpt>
      <trkpt lat="45.1843" lon="5.87177">
        <ele>653.9</ele>
        <time>2021-04-02T16:24:02.000Z</time>
      </trkpt>
      <trkpt lat="45.18434" lon="5.87192">
        <ele>658.93</ele>
        <time>2021-04-02T16:24:07.000Z</time>
      </trkpt>
      <trkpt lat="45.18423" lon="5.87206">
        <ele>659.66</ele>
        <time>2021-04-02T16:24:12.000Z</time>
      </trkpt>
      <trkpt lat="45.18414" lon="5.87218">
        <ele>658.7</ele>
        <time>2021-04-02T16:24:17.000Z</time>
      </trkpt>
      <trkpt lat="45.18406" lon="5.87231">
        <ele>659.76</ele>
        <time>2021-04-02T16:24:22.000Z</time>
      </trkpt>
      <trkpt lat="45.184" lon="5.87246">
        <ele>661.39</ele>
        <time>2021-04-02T16:24:27.000Z</time>
      </trkpt>
      <trkpt lat="45.1839" lon="5.87262">
        <ele>665.51</ele>
        <time>2021-04-02T16:24:32.000Z</time>
      </trkpt>
      <trkpt lat="45.18383" lon="5.87279">
        <ele>668.27</ele>
        <time>2021-04-02T16:24:37.000Z</time>
      </trkpt>
      <trkpt lat="45.18383" lon="5.87298">
        <ele>671.37</ele>
        <time>2021-04-02T16:24:42.000Z</time>
      </trkpt>
      <trkpt lat="45.18388" lon="5.87316">
        <ele>675.49</ele>
        <time>2021-04-02T16:24:47.000Z</time>
      </trkpt>
      <trkpt lat="45.1839" lon="5.87334">
        <ele>677.42</ele>
        <time>2021-04-02T16:24:52.000Z</time>
      </trkpt>
      <trkpt lat="45.18393" lon="5.87353">
        <ele>677.22</ele>
        <time>2021-04-02T16:24:57.000Z</time>
      </trkpt>
      <trkpt lat="45.18392" lon="5.87372">
        <ele>679.67</ele>
        <time>2021-04-02T16:25:02.000Z</time>
      </trkpt>
      <trkpt lat="45.18385" lon="5.87387">
        <ele>681.64</ele>
        <time>2021-04-02T16:25:07.000Z</time>
      </trkpt>
      <trkpt lat="45.18376" lon="5.87382">
        <ele>681.09</ele>
        <time>2021-04-02T16:25:13.000Z</time>
      </trkpt>
      <trkpt lat="45.18379" lon="5.87381">
        <ele>685.46</ele>
        <time>2021-04-02T16:26:53.000Z</time>
      </trkpt>
    </trkseg>
  </trk>
</gpx>